Date StartTime U_cm/s V_cm/s W_cm/s Ustd_cm/s Vstd_cm/s Wstd_cm/s Uvar_(cm/s)^2 Vvar_(cm/s)^2 Wvar_(cm/s)^2 KE_(m/s)^2 TurbulentKE_(m/s)^2 HorizWindSpeed_cm/s FrictionSpeec_cm/s DragCoef SpeedOfSound_m/s SonicTemperature_C Pressure_mb 
07/30/2014  00:00:00     -167.498        0.973      -22.634       41.269       18.965       14.292     1703.111      359.655      204.258        1.542        0.113      167.501       17.329        0.011      346.486       24.768      865.594
07/30/2014  00:01:00     -187.390       23.054      -21.492       18.521       16.713       14.474      343.027      279.318      209.503        1.847        0.042      188.803       11.950        0.004      346.427       24.665      865.597
07/30/2014  00:02:00     -136.390      -37.595       -6.615       39.759       35.088       25.930     1580.790     1231.158      672.374        1.177        0.174      141.476       23.198        0.027      346.349       24.533      865.605
07/30/2014  00:03:00     -155.973      -19.647      -19.699       55.354       37.887       31.861     3064.011     1435.425     1015.147        1.531        0.276      157.205       31.005        0.039      346.298       24.445      865.596
07/30/2014  00:04:00     -146.056       -6.081      -16.824       38.168       32.649       23.086     1456.807     1065.952      532.975        1.235        0.153      146.183       21.337        0.021      346.217       24.304      865.593
07/30/2014  00:05:00     -190.827      -11.133      -18.161       37.428       29.325       22.398     1400.876      859.975      501.687        1.982        0.138      191.152       21.777        0.013      346.244       24.350      865.597
07/30/2014  00:06:00     -152.446      -16.383      -13.339       50.742       36.181       27.038     2574.771     1309.075      731.028        1.415        0.231      153.324       25.216        0.027      346.209       24.290      865.613
07/30/2014  00:07:00     -133.051       23.819       -6.103       44.936       41.764       32.730     2019.242     1744.209     1071.265        1.157        0.242      135.166       30.724        0.052      346.219       24.309      865.618
07/30/2014  00:08:00     -138.988       27.300       -6.285       46.872       57.099       28.566     2197.005     3260.249      816.041        1.319        0.314      141.643       25.380        0.032      346.220       24.311      865.617
07/30/2014  00:09:00      -98.312       -5.183       -1.395       61.456       51.954       22.458     3776.850     2699.241      504.354        0.834        0.349       98.449       26.848        0.074      346.141       24.173      865.637
07/30/2014  00:10:00      -64.005       -4.468       -7.828       43.170       36.191       22.769     1863.684     1309.785      518.415        0.393        0.185       64.161       13.155        0.042      346.066       24.046      865.644
07/30/2014  00:11:00     -131.029       13.023      -10.779       36.336       30.101       24.216     1320.280      906.071      586.418        1.013        0.141      131.674       13.846        0.011      346.165       24.216      865.640
07/30/2014  00:12:00      -94.943       17.990      -10.775       36.968       39.020       24.518     1366.643     1522.581      601.124        0.647        0.175       96.633       16.235        0.028      346.138       24.169      865.649
07/30/2014  00:13:00     -146.928      -56.574      -16.622       57.251       30.769       19.951     3277.706      946.739      398.054        1.484        0.231      157.443       23.266        0.022      346.063       24.040      865.662
07/30/2014  00:14:00     -113.495      -57.368       -3.628       42.430       28.155       17.620     1800.279      792.707      310.462        0.954        0.145      127.170       12.153        0.009      345.988       23.911      865.674
07/30/2014  00:15:00     -107.932      -23.620       -3.977       50.835       25.755       20.000     2584.199      663.295      400.000        0.793        0.182      110.486       22.850        0.043      346.046       24.012      865.684
07/30/2014  00:16:00      -35.565      -51.979        7.803       27.420       32.236       17.911      751.854     1039.145      320.809        0.307        0.106       62.982        7.221        0.013      346.071       24.056      865.712
07/30/2014  00:17:00      -25.940      -44.801        8.429       41.751       36.019       19.510     1743.126     1297.355      380.632        0.309        0.171       51.769       21.166        0.167      346.210       24.293      865.737
07/30/2014  00:18:00      -17.412     -118.960       -8.337       27.242       32.092       14.593      742.114     1029.891      212.964        0.825        0.099      120.227        5.580        0.002      346.316       24.475      865.776
07/30/2014  00:19:00      -45.926      -65.481       -9.177       25.925       47.296       22.501      672.123     2236.906      506.306        0.495        0.171       79.981       16.482        0.042      346.355       24.544      865.791
07/30/2014  00:20:00      -31.687      -23.480        2.597       20.421       19.209       13.421      416.998      369.004      180.119        0.126        0.048       39.438       11.075        0.079      346.347       24.530      865.801
07/30/2014  00:21:00      -34.257      -43.349        2.646       20.804       21.940       12.635      432.817      481.352      159.646        0.207        0.054       55.252       13.278        0.058      346.512       24.813      865.796
07/30/2014  00:22:00      -33.107      -73.518       -0.607       29.084       28.579       13.398      845.904      816.741      179.498        0.417        0.092       80.629       15.892        0.039      346.495       24.783      865.793
07/30/2014  00:23:00      -52.698      -73.974       -0.372       19.293       42.214       15.496      372.227     1782.017      240.136        0.532        0.120       90.825       20.305        0.050      346.464       24.731      865.795
07/30/2014  00:24:00      -41.476      -50.211        0.374       22.358       33.095       15.244      499.874     1095.274      232.367        0.303        0.091       65.126       14.310        0.048      346.408       24.634      865.795
07/30/2014  00:25:00      -48.675      -62.301        1.683       29.294       22.921       21.343      858.140      525.357      455.515        0.405        0.092       79.062       20.163        0.065      346.416       24.649      865.793
07/30/2014  00:26:00      -48.284      -49.434        0.846       40.569       32.291       18.984     1645.876     1042.704      360.393        0.391        0.152       69.102       20.739        0.090      346.324       24.489      865.787
07/30/2014  00:27:00      -98.084      -55.573        1.780       63.778       21.759       20.883     4067.626      473.467      436.116        0.884        0.249      112.733       28.027        0.062      346.385       24.595      865.787
07/30/2014  00:28:00     -109.494      -51.768        3.634       37.917       16.205       16.894     1437.699      262.602      285.417        0.833        0.099      121.115       18.323        0.023      346.255       24.370      865.772
07/30/2014  00:29:00     -121.765      -49.990        1.265       30.365       32.407       20.224      922.044     1050.215      409.028        0.985        0.119      131.627       18.532        0.020      346.260       24.379      865.747
07/30/2014  00:30:00     -104.988      -69.005        4.307       54.449       30.698       21.674     2964.698      942.354      469.745        1.009        0.219      125.635       22.549        0.032      346.200       24.277      865.726
07/30/2014  00:31:00     -124.507      -52.550        6.945       50.946       33.883       25.861     2595.450     1148.047      668.814        1.136        0.221      135.142       25.658        0.036      346.166       24.219      865.710
07/30/2014  00:32:00     -120.980      -60.764        3.421       58.656       55.280       22.998     3440.515     3055.867      528.930        1.268        0.351      135.383       26.203        0.037      346.248       24.358      865.698
07/30/2014  00:33:00     -125.605      -33.094        4.248       53.596       35.829       22.056     2872.492     1283.720      486.488        1.077        0.232      129.891       23.090        0.032      346.285       24.424      865.686
07/30/2014  00:34:00     -151.282      -44.964       -3.695       47.122       44.376       28.958     2220.470     1969.205      838.585        1.497        0.251      157.823       23.475        0.022      346.219       24.308      865.685
07/30/2014  00:35:00     -104.265      -28.815        5.184       50.674       39.978       24.714     2567.836     1598.214      610.791        0.825        0.239      108.173       24.560        0.052      346.190       24.259      865.688
07/30/2014  00:36:00      -98.862      -18.976        1.549       41.620       39.067       22.228     1732.223     1526.264      494.073        0.694        0.188      100.667       17.203        0.029      346.036       23.995      865.674
07/30/2014  00:37:00     -112.025      -22.819        6.129       48.341       36.270       26.513     2336.806     1315.482      702.936        0.873        0.218      114.326       26.484        0.054      346.038       23.998      865.655
07/30/2014  00:38:00     -131.333      -34.237        6.343       42.556       36.305       25.610     1811.007     1318.053      655.874        1.112        0.189      135.722       23.275        0.029      346.069       24.053      865.647
07/30/2014  00:39:00     -141.833      -29.856        3.557       60.609       41.247       31.249     3673.411     1701.337      976.513        1.368        0.318      144.941       31.914        0.048      346.102       24.108      865.656
07/30/2014  00:40:00     -160.013      -32.261        1.698       50.312       50.129       24.017     2531.298     2512.887      576.800        1.613        0.281      163.233       27.118        0.028      346.072       24.057      865.659
07/30/2014  00:41:00     -165.028      -43.410       -1.719       36.841       36.331       21.178     1357.251     1319.975      448.509        1.612        0.156      170.642       18.664        0.012      346.121       24.140      865.651
07/30/2014  00:42:00     -121.232      -65.732        2.518       46.550       46.815       25.041     2166.909     2191.613      627.075        1.200        0.249      137.906       20.090        0.021      346.007       23.944      865.644
07/30/2014  00:43:00     -137.635      -44.611       -4.779       40.388       31.854       23.260     1631.224     1014.705      541.011        1.207        0.159      144.684       16.842        0.014      346.002       23.938      865.636
07/30/2014  00:44:00     -118.868      -45.382        1.220       37.399       32.553       20.502     1398.680     1059.687      420.341        0.953        0.144      127.236       20.342        0.026      345.912       23.783      865.642
07/30/2014  00:45:00     -137.144      -31.188       -2.022       63.551       45.159       26.067     4038.696     2039.341      679.463        1.327        0.338      140.646       31.407        0.050      345.858       23.689      865.647
07/30/2014  00:46:00     -158.814      -54.951        0.787       50.289       48.855       26.355     2528.948     2386.851      694.582        1.693        0.281      168.052       26.629        0.025      345.852       23.678      865.650
07/30/2014  00:47:00     -163.317      -49.716       -0.851       64.379       47.237       32.372     4144.596     2231.340     1047.960        1.828        0.371      170.716       34.384        0.041      345.804       23.595      865.650
07/30/2014  00:48:00     -135.872      -27.112       -1.567       73.716       46.377       33.058     5434.117     2150.809     1092.858        1.394        0.434      138.550       36.527        0.070      345.795       23.580      865.648
07/30/2014  00:49:00     -161.691      -31.525       -2.736       54.384       49.856       33.886     2957.643     2485.585     1148.269        1.687        0.330      164.736       30.755        0.035      345.824       23.629      865.649
07/30/2014  00:50:00     -166.279      -48.473        0.443       76.316       56.257       26.306     5824.067     3164.851      691.988        1.984        0.484      173.200       30.511        0.031      345.791       23.572      865.644
07/30/2014  00:51:00     -196.031      -53.158       -7.514       62.703       47.014       34.358     3931.640     2210.295     1180.444        2.431        0.366      203.111       35.798        0.031      345.893       23.747      865.631
07/30/2014  00:52:00     -171.754      -65.045       -1.320       60.633       51.683       34.099     3676.373     2671.118     1162.740        2.062        0.376      183.658       31.434        0.029      345.880       23.725      865.631
07/30/2014  00:53:00     -161.504      -51.967        1.277       59.366       44.441       25.943     3524.379     1975.003      673.026        1.748        0.309      169.658       21.928        0.017      345.797       23.584      865.632
07/30/2014  00:54:00     -162.486      -50.381       -0.582       32.707       39.850       22.894     1069.724     1588.029      524.151        1.606        0.159      170.118       17.200        0.010      345.783       23.560      865.628
07/30/2014  00:55:00     -176.403      -83.609       -7.337       38.296       39.224       20.088     1466.578     1538.518      403.518        2.078        0.170      195.214       12.813        0.004      345.805       23.596      865.622
07/30/2014  00:56:00     -169.514      -51.630        0.564       68.297       48.335       32.466     4664.543     2336.292     1054.015        1.973        0.403      177.202       35.445        0.040      345.791       23.572      865.625
07/30/2014  00:57:00     -150.705      -20.026        2.247       67.106       61.460       34.804     4503.207     3777.347     1211.302        1.630        0.475      152.030       40.244        0.070      345.722       23.454      865.622
07/30/2014  00:58:00     -139.077      -31.016        7.543       65.635       41.371       37.371     4307.956     1711.569     1396.609        1.389        0.371      142.494       37.298        0.069      345.706       23.428      865.608
07/30/2014  00:59:00     -181.667      -45.238        1.603       75.230       51.301       31.243     5659.554     2631.802      976.135        2.216        0.463      187.214       31.608        0.029      345.810       23.605      865.605
07/30/2014  01:00:00     -148.449      -39.003       -9.690       62.456       56.172       30.224     3900.748     3155.339      913.484        1.581        0.398      153.487       32.518        0.045      345.761       23.521      865.604
07/30/2014  01:01:00     -109.273      -39.207       -4.457       41.580       48.326       31.006     1728.924     2335.421      961.381        0.926        0.251      116.094       22.758        0.038      345.628       23.294      865.627
07/30/2014  01:02:00     -129.127      -20.993        4.911       71.616       47.555       36.653     5128.873     2261.466     1343.473        1.293        0.437      130.822       40.410        0.095      345.515       23.099      865.628
07/30/2014  01:03:00     -148.274      -34.039       -5.801       51.986       53.458       30.555     2702.578     2857.707      933.600        1.483        0.325      152.131       22.616        0.022      345.524       23.115      865.622
07/30/2014  01:04:00      -96.439      -13.197        2.747       47.683       36.203       24.022     2273.713     1310.676      577.069        0.682        0.208       97.338       23.246        0.057      345.452       22.992      865.626
07/30/2014  01:05:00      -66.772        5.242        5.764       44.618       28.475       22.208     1990.741      810.844      493.182        0.391        0.165       66.978       23.597        0.124      345.497       23.069      865.632
07/30/2014  01:06:00        0.766      -41.857        0.932       18.722       19.303       14.431      350.522      372.596      208.258        0.134        0.047       41.864       11.902        0.081      345.557       23.172      865.639
07/30/2014  01:07:00       -6.845      -65.446        0.876       20.012       27.166       13.917      400.472      737.995      193.688        0.283        0.067       65.803        6.855        0.011      345.623       23.284      865.662
07/30/2014  01:08:00      -15.158     -107.463        6.548       21.498       17.829       16.598      462.161      317.877      275.498        0.644        0.053      108.527       10.871        0.010      345.745       23.497      865.698
07/30/2014  01:09:00      -46.721     -112.554       -2.518       21.023       30.363       12.266      441.970      921.887      150.444        0.819        0.076      121.865        4.265        0.001      345.815       23.613      865.721
07/30/2014  01:10:00      -62.319      -40.841       -3.248       27.398       19.029       15.736      750.641      362.117      247.637        0.346        0.068       74.509       12.382        0.028      345.757       23.517      865.726
07/30/2014  01:11:00      -34.613      -51.400       -4.793       24.113       21.375       16.409      581.425      456.906      269.244        0.259        0.065       61.968       16.340        0.070      345.765       23.529      865.736
07/30/2014  01:12:00      -65.377      -81.302       -5.325       34.115       31.071       26.530     1163.820      965.413      703.864        0.687        0.142      104.327       28.447        0.074      345.820       23.625      865.740
07/30/2014  01:13:00      -91.355      -55.731       -3.786       22.805       24.236       15.060      520.077      587.397      226.792        0.640        0.067      107.012       11.569        0.012      345.792       23.576      865.743
07/30/2014  01:14:00     -111.547      -73.283       -6.014       23.915       21.111       15.158      571.924      445.655      229.761        0.955        0.062      133.466       11.941        0.008      345.735       23.479      865.733
07/30/2014  01:15:00     -101.877      -77.380        2.496       42.569       33.232       20.404     1812.119     1104.362      416.318        0.985        0.167      127.932       16.890        0.017      345.672       23.367      865.735
07/30/2014  01:16:00     -104.346      -38.117        4.162       42.365       31.506       18.767     1794.765      992.613      352.196        0.775        0.157      111.090       17.909        0.026      345.715       23.444      865.728
07/30/2014  01:17:00     -111.189      -79.317        8.050       50.893       32.097       23.958     2590.138     1030.210      573.982        1.146        0.210      136.580       19.389        0.020      345.712       23.438      865.723
07/30/2014  01:18:00      -84.961      -59.841        1.950       57.310       32.240       26.409     3284.425     1039.387      697.425        0.791        0.251      103.919       28.866        0.077      345.709       23.432      865.724
07/30/2014  01:19:00      -72.671      -61.366        3.428       49.580       35.527       22.291     2458.201     1262.179      496.893        0.664        0.211       95.116       21.514        0.051      345.690       23.400      865.727
07/30/2014  01:20:00      -49.330      -47.662        4.556       32.923       32.518       18.236     1083.927     1057.400      332.555        0.360        0.124       68.594       18.416        0.072      345.686       23.394      865.732
07/30/2014  01:21:00      -18.343      -35.319        4.877       21.223       28.174       17.900      450.425      793.796      320.396        0.159        0.078       39.799       15.987        0.161      345.642       23.318      865.735
07/30/2014  01:22:00      -39.833      -22.894        4.921       24.562       13.163       11.574      603.303      173.266      133.948        0.152        0.046       45.944        9.332        0.041      345.693       23.407      865.747
07/30/2014  01:23:00       -7.138      -45.241       -3.575       12.095       18.125        8.872      146.300      328.501       78.711        0.133        0.028       45.801        7.866        0.029      345.707       23.434      865.770
07/30/2014  01:24:00        0.453       -4.820       -5.021       15.808       27.569       16.466      249.884      760.030      271.138        0.066        0.064        4.842       15.190        9.844      345.691       23.402      865.784
07/30/2014  01:25:00       11.525       49.041       16.403       28.935       22.682       16.895      837.232      514.471      285.448        0.222        0.082       50.377       13.822        0.075      345.517       23.102      865.808
07/30/2014  01:26:00        2.254        7.931       19.429       17.702       15.240       13.829      313.357      232.249      191.249        0.059        0.037        8.245        7.769        0.888      345.277       22.690      865.824
07/30/2014  01:27:00       18.161       52.520       -4.205       21.876       18.271       18.605      478.571      333.828      346.143        0.213        0.058       55.572       15.138        0.074      345.054       22.311      865.830
07/30/2014  01:28:00       12.960       60.147      -10.956       13.142       17.717        8.542      172.702      313.898       72.961        0.223        0.028       61.527        4.645        0.006      345.164       22.497      865.843
07/30/2014  01:29:00      -13.976       55.086      -15.635       19.146       19.944        6.142      366.568      397.755       37.724        0.214        0.040       56.832        5.105        0.008      345.206       22.572      865.839
07/30/2014  01:30:00      -16.237       22.381      -10.103       11.851       16.068        5.398      140.453      258.192       29.136        0.065        0.021       27.650        3.076        0.012      345.473       23.030      865.830
07/30/2014  01:31:00      -34.591        8.056       -3.243       10.186        9.004        5.527      103.753       81.072       30.552        0.074        0.011       35.517        3.555        0.010      345.531       23.128      865.815
07/30/2014  01:32:00      -25.715       22.306       -5.150        7.194        7.674        5.704       51.755       58.885       32.531        0.066        0.007       34.042        3.935        0.013      345.504       23.082      865.799
07/30/2014  01:33:00      -31.384       26.723       -8.026        9.830        9.834        5.744       96.622       96.713       32.994        0.099        0.011       41.220        5.099        0.015      345.471       23.026      865.795
07/30/2014  01:34:00      -46.969        4.700       -4.840        8.299       12.944        8.449       68.877      167.544       71.388        0.128        0.015       47.204        5.383        0.013      345.150       22.475      865.795
07/30/2014  01:35:00      -58.333       14.554       -2.261       21.407       14.570       12.676      458.248      212.280      160.670        0.223        0.042       60.121        9.961        0.027      345.121       22.425      865.799
07/30/2014  01:36:00      -83.270       35.786       -6.754       30.770       18.064       14.727      946.815      326.305      216.896        0.487        0.075       90.634        7.672        0.007      345.239       22.628      865.794
07/30/2014  01:37:00      -77.297       14.889      -10.258       14.174       15.145        9.295      200.914      229.379       86.390        0.341        0.026       78.718        3.589        0.002      345.157       22.487      865.785
07/30/2014  01:38:00      -60.766       10.109       -6.700       18.044       16.845       13.545      325.572      283.768      183.454        0.232        0.040       61.601        9.899        0.026      345.190       22.545      865.766
07/30/2014  01:39:00      -54.661      -15.192       -8.177       14.396       17.087        9.152      207.233      291.976       83.752        0.193        0.029       56.733        6.354        0.013      345.179       22.524      865.750
07/30/2014  01:40:00      -43.889      -12.779       -7.908       17.978       16.503       12.308      323.211      272.350      151.478        0.145        0.037       45.711       11.816        0.067      345.129       22.438      865.730
07/30/2014  01:41:00      -26.541      -29.728       -3.978       24.764       13.509       12.988      613.244      182.485      168.690        0.128        0.048       39.852        9.891        0.062      345.315       22.757      865.704
07/30/2014  01:42:00       -4.182      -12.795       -2.658       16.518       19.273       14.790      272.831      371.459      218.752        0.053        0.043       13.461       10.064        0.559      345.162       22.496      865.675
07/30/2014  01:43:00      -56.905      -47.860        1.674       30.546       31.237       16.444      933.031      975.759      270.409        0.385        0.109       74.355       14.308        0.037      345.021       22.256      865.639
07/30/2014  01:44:00      -78.591      -54.954       -3.317       23.513       19.572       18.096      552.866      383.081      327.474        0.524        0.063       95.898        8.290        0.007      345.055       22.314      865.625
07/30/2014  01:45:00     -104.536      -77.096       -5.940       33.573       24.632       16.614     1127.138      606.758      276.018        0.946        0.100      129.890       13.639        0.011      345.074       22.345      865.614
07/30/2014  01:46:00     -114.521      -41.846        4.990       32.019       25.658       19.092     1025.215      658.328      364.507        0.847        0.102      121.927       18.565        0.023      345.126       22.435      865.604
07/30/2014  01:47:00     -133.719      -28.745        3.504       37.733       33.282       20.035     1423.798     1107.676      401.394        1.083        0.147      136.774       16.526        0.015      345.076       22.350      865.594
07/30/2014  01:48:00     -145.604      -42.218       -4.217       28.558       26.122       23.258      815.581      682.354      540.915        1.252        0.102      151.601       18.483        0.015      344.913       22.070      865.590
07/30/2014  01:49:00      -98.292      -46.184        2.301       42.491       25.965       22.005     1805.501      674.169      484.209        0.738        0.148      108.601       21.822        0.040      344.957       22.144      865.599
07/30/2014  01:50:00      -53.737      -41.940       -6.917       18.891       16.817       13.812      356.857      282.825      190.771        0.276        0.042       68.166        5.399        0.006      344.867       21.990      865.614
07/30/2014  01:51:00      -25.584      -25.642        3.720       16.446       14.381       13.121      270.487      206.826      172.148        0.099        0.032       36.222       11.334        0.098      344.931       22.100      865.614
07/30/2014  01:52:00       -7.626       -8.512       -3.444       26.870       40.752       19.037      721.976     1660.759      362.422        0.144        0.137       11.428       12.852        1.265      344.999       22.215      865.612
07/30/2014  01:53:00        2.365       16.253       11.970       10.750       15.491       13.450      115.559      239.970      180.907        0.047        0.027       16.424        9.785        0.355      344.907       22.059      865.609
07/30/2014  01:54:00       21.842       28.310       -0.541       12.122       10.852       12.760      146.941      117.767      162.807        0.085        0.021       35.757        9.208        0.066      344.853       21.966      865.611
07/30/2014  01:55:00       -0.364       14.511       -3.045        9.960       16.083       11.152       99.197      258.674      124.363        0.035        0.024       14.515        9.949        0.470      344.793       21.864      865.614
07/30/2014  01:56:00      -28.504        9.653      -12.512       20.870       24.232       11.221      435.566      587.212      125.920        0.111        0.057       30.094        5.060        0.028      344.654       21.627      865.602
07/30/2014  01:57:00      -35.780       22.187       -3.590       29.225       21.491       13.353      854.109      461.878      178.308        0.164        0.075       42.101       16.774        0.159      344.571       21.484      865.592
07/30/2014  01:58:00      -24.865      -17.486       -9.606       27.859       18.000       12.129      776.135      323.994      147.101        0.113        0.062       30.398       14.363        0.223      344.660       21.639      865.585
07/30/2014  01:59:00      -15.045      -54.663        4.311       27.244       22.886       17.477      742.224      523.767      305.451        0.240        0.079       56.695       19.742        0.121      344.742       21.776      865.579
07/30/2014  02:00:00      -73.939      -55.104      -10.488       35.384       17.077       17.196     1252.025      291.633      295.690        0.523        0.092       92.214       14.421        0.024      344.832       21.932      865.573
07/30/2014  02:01:00      -42.178      -35.824        0.873       41.892       32.608       16.087     1754.900     1063.309      258.791        0.307        0.154       55.338       19.773        0.128      344.710       21.722      865.571
07/30/2014  02:02:00      -34.850      -30.590        2.168       24.360       28.914       13.760      593.419      835.997      189.328        0.189        0.081       46.371       10.219        0.049      344.719       21.737      865.584
07/30/2014  02:03:00      -16.373       -9.915        2.620       22.401       23.653       10.850      501.796      559.446      117.723        0.078        0.059       19.141       10.090        0.278      344.707       21.717      865.609
07/30/2014  02:04:00       36.287       68.799      -14.382       15.999       24.344       18.111      255.974      592.633      328.004        0.372        0.059       77.783       18.458        0.056      344.531       21.416      865.648
07/30/2014  02:05:00       38.986       41.165       -3.089       31.764       25.274       15.180     1008.945      638.771      230.444        0.255        0.094       56.697       11.512        0.041      344.571       21.484      865.673
07/30/2014  02:06:00       27.882       25.763       -0.731       20.081       18.123       16.602      403.254      328.425      275.631        0.122        0.050       37.962        3.834        0.010      344.596       21.528      865.691
07/30/2014  02:07:00       -6.244       27.662      -12.899       34.020       26.601       12.997     1157.333      707.608      168.931        0.150        0.102       28.358       15.127        0.285      344.626       21.581      865.701
07/30/2014  02:08:00      -21.330       25.054       -1.047       16.560       19.759       16.123      274.232      390.418      259.936        0.100        0.046       32.904       10.801        0.108      344.603       21.538      865.725
07/30/2014  02:09:00       15.346       81.934       -8.683       30.883       37.360       23.750      953.773     1395.789      564.061        0.497        0.146       83.358       17.651        0.045      344.953       22.137      865.725
07/30/2014  02:10:00       31.109       94.218       -4.924       28.441       49.347       27.692      808.894     2435.134      766.855        0.694        0.201       99.220       29.461        0.088      345.143       22.461      865.711
07/30/2014  02:11:00       70.774       90.364       -0.915       46.637       50.110       36.145     2174.979     2511.008     1306.468        0.958        0.300      114.781       32.485        0.080      345.301       22.735      865.714
07/30/2014  02:12:00       19.371       86.486        0.935       39.283       60.294       32.267     1543.163     3635.426     1041.182        0.704        0.311       88.629       33.683        0.144      345.392       22.890      865.717
07/30/2014  02:13:00       25.475      106.924      -15.724       30.791       35.922       20.918      948.092     1290.382      437.549        0.750        0.134      109.917       23.179        0.044      345.355       22.825      865.724
07/30/2014  02:14:00       66.389      137.300      -14.618       42.687       68.282       37.310     1822.202     4662.394     1392.052        1.567        0.394      152.509       29.551        0.038      345.416       22.927      865.705
07/30/2014  02:15:00       -4.141       63.911        3.188       35.119       48.793       35.356     1233.312     2380.767     1250.042        0.449        0.243       64.045       28.254        0.195      345.345       22.808      865.700
07/30/2014  02:16:00     -104.925       29.363       -6.827       59.930       61.358       42.069     3591.609     3764.785     1769.804        1.052        0.456      108.956       31.588        0.084      345.186       22.537      865.699
07/30/2014  02:17:00     -134.206      157.728      -16.088      129.615      111.603       59.871    16799.965    12455.179     3584.500        3.799        1.642      207.097       69.213        0.112      345.296       22.720      865.686
07/30/2014  02:18:00     -108.832      143.119      -15.351       77.266       69.936       44.785     5969.995     4891.053     2005.695        2.271        0.643      179.798       39.336        0.048      345.296       22.722      865.674
07/30/2014  02:19:00     -123.811       92.659      -25.596       87.269       65.283       41.149     7615.825     4261.888     1693.248        1.907        0.679      154.645       31.582        0.042      345.399       22.899      865.664
07/30/2014  02:20:00      -77.911      241.601      -36.441       68.952      105.674       48.561     4754.370    11166.901     2358.190        4.202        0.914      253.853       47.205        0.035      345.475       23.028      865.669
07/30/2014  02:21:00      -87.788      332.901      -37.435       91.656       96.873       44.272     8400.743     9384.465     1960.002        6.983        0.987      344.282       38.535        0.013      345.509       23.086      865.676
07/30/2014  02:22:00      -83.889      237.933      -22.538       77.349       92.563       43.165     5982.814     8567.818     1863.174        4.028        0.821      252.289       46.320        0.034      345.535       23.130      865.664
07/30/2014  02:23:00      -69.963      164.485       -4.916       63.581       64.720       47.723     4042.483     4188.704     2277.509        2.124        0.525      178.746       44.948        0.063      345.474       23.028      865.656
07/30/2014  02:24:00      -67.714      221.952      -32.933       52.369       73.192       31.942     2742.465     5357.037     1020.311        3.202        0.456      232.051       25.133        0.012      345.564       23.180      865.658
07/30/2014  02:25:00      -97.835      110.392      -16.653       46.448       61.968       41.282     2157.434     3840.052     1704.223        1.487        0.385      147.506       32.676        0.049      345.513       23.097      865.652
07/30/2014  02:26:00      -78.381       77.324      -16.698       46.701       55.447       27.964     2180.954     3074.401      781.989        0.922        0.302      110.103       26.740        0.059      345.537       23.138      865.652
07/30/2014  02:27:00      -88.560       80.625      -13.367       68.236       77.850       39.380     4656.125     6060.616     1550.822        1.339        0.613      119.763       40.711        0.116      345.604       23.253      865.650
07/30/2014  02:28:00      -14.625       74.665       -7.094       36.824       86.560       24.980     1355.997     7492.610      623.992        0.765        0.474       76.084       36.317        0.228      345.512       23.094      865.663
07/30/2014  02:29:00      -15.232      103.502      -14.684       34.202       83.906       20.558     1169.761     7040.274      422.616        0.989        0.432      104.617       24.210        0.054      345.599       23.242      865.660
07/30/2014  02:30:00      -26.955      -10.997        5.136       52.241       18.638       19.236     2729.071      347.370      370.038        0.216        0.172       29.112        9.936        0.116      345.625       23.288      865.656
07/30/2014  02:31:00      -52.307       18.856       -4.368       47.628       31.933       22.153     2268.441     1019.727      490.754        0.344        0.189       55.602       17.684        0.101      345.635       23.307      865.672
07/30/2014  02:32:00      -43.605       13.167       -6.971       37.759       27.173       22.541     1425.746      738.390      508.110        0.240        0.134       45.550       18.536        0.166      345.670       23.367      865.672
07/30/2014  02:33:00      -75.738      -11.165       -5.388       27.309       27.061       21.810      745.801      732.277      475.696        0.392        0.098       76.556       18.898        0.061      345.659       23.347      865.671
07/30/2014  02:34:00     -137.603       12.273      -11.691       46.682       32.325       22.649     2179.196     1044.931      512.984        1.148        0.187      138.149       19.244        0.019      345.656       23.342      865.670
07/30/2014  02:35:00      -76.017      -18.634       -1.319       73.520       59.117       26.171     5405.135     3494.823      684.908        0.785        0.479       78.268       29.765        0.145      345.589       23.226      865.675
07/30/2014  02:36:00      -94.757        7.914       -8.373       35.603       65.800       31.066     1267.575     4329.676      965.119        0.784        0.328       95.087       28.225        0.088      345.663       23.356      865.676
07/30/2014  02:37:00     -116.587      -10.824      -15.578       35.644       56.312       17.725     1270.499     3171.049      314.182        0.935        0.238      117.089       15.530        0.018      345.662       23.353      865.669
07/30/2014  02:38:00       -8.117      -17.872       -1.633       50.970       43.316       28.095     2597.967     1876.248      789.348        0.282        0.263       19.629       23.081        1.383      345.656       23.341      865.668
07/30/2014  02:39:00      -53.723      -80.043        8.076       51.873       33.926       30.191     2690.836     1151.005      911.510        0.705        0.238       96.401       27.227        0.080      345.629       23.297      865.666
07/30/2014  02:40:00      -93.587      -59.361        8.498       67.488       42.191       26.712     4554.666     1780.093      713.536        0.970        0.352      110.826       30.806        0.077      345.453       22.994      865.681
07/30/2014  02:41:00      -54.706      -59.903       -4.208       41.085       51.967       24.833     1687.970     2700.582      616.690        0.580        0.250       81.124       25.835        0.101      345.424       22.943      865.691
07/30/2014  02:42:00      -57.094      -35.935        1.135       30.838       27.518       19.907      950.973      757.242      396.284        0.333        0.105       67.461       19.810        0.086      345.383       22.874      865.691
07/30/2014  02:43:00      -87.862      -71.582       -3.445       46.899       37.629       24.086     2199.527     1415.969      580.156        0.852        0.210      113.330       16.823        0.022      345.342       22.803      865.699
07/30/2014  02:44:00      -97.711      -81.970        1.236       55.037       46.258       29.803     3029.030     2139.803      888.194        1.116        0.303      127.540       25.869        0.041      345.288       22.710      865.702
07/30/2014  02:45:00      -99.435      -72.509       -5.892       36.988       39.954       20.437     1368.131     1596.333      417.672        0.928        0.169      123.064        4.408        0.001      345.288       22.711      865.704
07/30/2014  02:46:00     -109.229      -76.368        3.314       48.656       37.182       26.639     2367.449     1382.469      709.634        1.112        0.223      133.279       21.863        0.027      345.165       22.502      865.704
07/30/2014  02:47:00      -94.638      -76.869        1.635       51.791       34.332       22.392     2682.307     1178.717      501.393        0.961        0.218      121.923       24.512        0.040      345.105       22.400      865.703
07/30/2014  02:48:00      -61.353      -48.423       11.394       42.841       38.591       25.282     1835.364     1489.254      639.184        0.510        0.198       78.160       22.477        0.083      345.043       22.293      865.695
07/30/2014  02:49:00      -75.519      -51.817        7.127       53.658       38.473       24.128     2879.212     1480.158      582.163        0.669        0.247       91.586       22.171        0.059      345.060       22.321      865.683
07/30/2014  02:50:00     -158.799      -74.326       -7.027       65.526       50.912       38.536     4293.687     2592.077     1485.042        1.958        0.419      175.332       37.507        0.046      345.114       22.412      865.664
07/30/2014  02:51:00     -175.495      -74.959       -5.459       83.537       56.790       31.806     6978.492     3225.144     1011.632        2.383        0.561      190.833       30.351        0.025      345.105       22.396      865.653
07/30/2014  02:52:00     -103.441      -66.554       10.911       75.745       41.176       33.368     5737.284     1695.502     1113.451        1.190        0.427      123.002       25.904        0.044      345.067       22.334      865.633
07/30/2014  02:53:00      -95.972      -81.747       -0.659       65.365       60.620       33.794     4272.565     3674.725     1142.051        1.249        0.454      126.069       32.773        0.068      345.009       22.232      865.620
07/30/2014  02:54:00      -34.052     -140.939        6.278       33.908       76.653       25.989     1149.737     5875.726      675.432        1.438        0.385      144.994       23.942        0.027      344.970       22.165      865.611
07/30/2014  02:55:00      -40.953     -221.044       -1.056       43.632       54.975       27.900     1903.783     3022.300      778.416        2.812        0.285      224.805        8.471        0.001      345.006       22.225      865.611
07/30/2014  02:56:00      -40.715     -140.076       -7.154       31.732       53.726       26.796     1006.918     2886.469      718.017        1.297        0.231      145.873        9.748        0.004      344.945       22.124      865.605
07/30/2014  02:57:00      -66.022      -68.232       -9.218       45.645       47.367       24.318     2083.477     2243.628      591.374        0.701        0.246       94.945       21.592        0.052      344.933       22.103      865.609
07/30/2014  02:58:00      -22.860     -102.954      -11.984       68.725       41.918       30.822     4723.110     1757.082      949.975        0.935        0.372      105.461       19.753        0.035      344.939       22.111      865.610
07/30/2014  02:59:00      -51.464     -110.677        3.706       60.201       40.206       32.445     3624.168     1616.492     1052.653        1.060        0.315      122.057       29.819        0.060      344.814       21.899      865.621
07/30/2014  03:00:00      -45.193      -95.000        4.799       37.153       44.006       21.202     1380.346     1936.560      449.518        0.743        0.188      105.202       20.904        0.039      344.822       21.913      865.613
07/30/2014  03:01:00      -38.044      -37.810       -1.652       48.761       18.468       16.188     2377.680      341.061      262.040        0.293        0.149       53.637        9.798        0.033      344.816       21.904      865.612
07/30/2014  03:02:00      -11.546      -34.967        9.263       27.566       23.324       13.518      759.866      544.018      182.745        0.146        0.074       36.824        9.299        0.064      344.791       21.861      865.601
07/30/2014  03:03:00      -36.973      -66.821       14.944       50.774       44.735       24.429     2578.040     2001.233      596.772        0.561        0.259       76.368       19.903        0.068      344.826       21.922      865.583
07/30/2014  03:04:00      -43.947      -46.765        9.890       39.247       33.368       22.721     1540.363     1113.407      516.222        0.369        0.158       64.173       18.489        0.083      344.746       21.783      865.563
07/30/2014  03:05:00      -55.952     -123.003        7.290       35.873       42.776       21.909     1286.844     1829.824      480.020        1.095        0.180      135.131       21.699        0.026      344.841       21.946      865.541
07/30/2014  03:06:00      -78.959     -124.835       -3.501       40.772       50.719       23.603     1662.384     2572.417      557.085        1.331        0.240      147.710       18.444        0.016      344.835       21.935      865.535
07/30/2014  03:07:00      -20.397      -85.774        4.625       43.970       52.278       30.335     1933.371     2733.037      920.191        0.669        0.279       88.166       35.522        0.162      344.732       21.758      865.531
07/30/2014  03:08:00      -50.836      -76.102        9.894       44.523       64.719       29.862     1982.316     4188.598      891.744        0.777        0.353       91.519       35.822        0.153      344.755       21.799      865.513
07/30/2014  03:09:00      -15.747      -88.954        8.984       43.066       39.184       27.839     1854.682     1535.369      775.017        0.620        0.208       90.337       23.422        0.067      344.775       21.834      865.501
07/30/2014  03:10:00      -37.624     -104.942       -1.353       38.042       50.616       19.428     1447.168     2562.021      377.440        0.841        0.219      111.483       23.110        0.043      344.779       21.839      865.491
07/30/2014  03:11:00      -28.564      -26.258        0.302       30.087       33.236       20.838      905.210     1104.663      434.223        0.197        0.122       38.800       19.612        0.255      344.733       21.760      865.490
07/30/2014  03:12:00       26.512      -24.191        1.086       24.364       27.419       17.989      593.587      751.814      323.605        0.148        0.083       35.890       11.365        0.100      344.734       21.762      865.505
07/30/2014  03:13:00       15.891      -25.818        9.658       17.048       23.150       16.862      290.627      535.908      284.331        0.106        0.056       30.317       13.225        0.190      344.755       21.800      865.494
07/30/2014  03:14:00       17.339        3.626        7.021       10.242        6.083       14.097      104.892       37.003      198.726        0.035        0.017       17.714        6.932        0.153      344.714       21.730      865.495
07/30/2014  03:15:00        4.948        6.167        4.081       12.276       10.480        8.227      150.709      109.820       67.676        0.020        0.016        7.907        9.485        1.439      344.569       21.480      865.499
07/30/2014  03:16:00        1.668       18.203       16.704       17.478       12.631       12.907      305.473      159.533      166.592        0.062        0.032       18.279        7.805        0.182      344.612       21.555      865.513
07/30/2014  03:17:00        6.403       38.282       -4.708       12.589       21.309       13.885      158.481      454.091      192.802        0.117        0.040       38.814       14.260        0.135      344.444       21.268      865.518
07/30/2014  03:18:00       -0.734       13.893       -6.142       14.870       22.576       12.207      221.116      509.674      149.004        0.056        0.044       13.912        8.229        0.350      344.622       21.572      865.521
07/30/2014  03:19:00      -11.587       14.616       -0.632       12.615       21.249       15.797      159.130      451.499      249.543        0.060        0.043       18.652       13.959        0.560      344.700       21.703      865.522
07/30/2014  03:20:00      -18.886       28.935       -0.387       10.541       15.619        7.698      111.122      243.945       59.252        0.080        0.021       34.553        2.984        0.007      344.648       21.613      865.524
07/30/2014  03:21:00      -24.537       12.917        3.573       15.495       10.189        8.600      240.107      103.824       73.959        0.060        0.021       27.729        6.716        0.059      344.580       21.500      865.533
07/30/2014  03:22:00      -61.970       -6.978       -2.402        9.705       12.296        5.435       94.184      151.203       29.544        0.208        0.014       62.362        5.517        0.008      344.712       21.723      865.536
07/30/2014  03:23:00      -38.232      -23.969        1.038       23.336        9.017       10.030      544.588       81.308      100.595        0.138        0.036       45.124       12.455        0.076      344.652       21.624      865.530
07/30/2014  03:24:00        1.313      -37.126        0.528        9.718       18.469        7.626       94.445      341.105       58.159        0.094        0.025       37.149        3.832        0.011      344.683       21.678      865.522
07/30/2014  03:25:00      -21.510      -50.705       -2.527       22.555       15.743        8.569      508.744      247.852       73.426        0.193        0.042       55.079        3.771        0.005      344.758       21.803      865.518
07/30/2014  03:26:00      -50.861      -38.365        0.451       32.890       26.009       13.518     1081.753      676.476      182.737        0.300        0.097       63.708       15.840        0.062      344.748       21.787      865.512
07/30/2014  03:27:00       -2.807      -15.608        3.981       13.682       12.892       10.879      187.199      166.210      118.360        0.037        0.024       15.859        9.460        0.356      344.632       21.590      865.517
07/30/2014  03:28:00      -15.072      -65.651        0.142       11.331       31.507       11.228      128.383      992.722      126.070        0.289        0.062       67.359        4.731        0.005      344.792       21.862      865.519
07/30/2014  03:29:00      -43.724      -90.095       -4.289       28.981       29.597       15.250      839.910      875.976      232.578        0.600        0.097      100.144       16.538        0.027      344.829       21.925      865.530
07/30/2014  03:30:00        7.232      -42.808       -2.028       26.949       19.474       16.736      726.253      379.240      280.083        0.164        0.069       43.415       12.390        0.081      344.715       21.731      865.533
07/30/2014  03:31:00        2.314      -28.790        3.794       18.174       21.487       13.909      330.300      461.703      193.472        0.092        0.049       28.883       11.655        0.163      344.646       21.612      865.530
07/30/2014  03:32:00      -40.363      -74.091       -6.862       27.540       29.691       18.488      758.442      881.545      341.821        0.457        0.099       84.372       11.083        0.017      344.698       21.701      865.520
07/30/2014  03:33:00      -59.439     -113.742       -5.546       34.633       36.724       15.575     1199.467     1348.659      242.580        0.965        0.140      128.337       16.632        0.017      344.732       21.759      865.508
07/30/2014  03:34:00      -65.984      -84.192       -1.717       37.753       29.705       21.174     1425.291      882.412      448.323        0.710        0.138      106.968       20.301        0.036      344.656       21.630      865.495
07/30/2014  03:35:00     -101.698      -94.130       -4.377       43.423       34.688       23.662     1885.529     1203.230      559.905        1.143        0.182      138.575       22.158        0.026      344.655       21.628      865.491
07/30/2014  03:36:00      -84.647      -72.569        1.721       26.396       42.622       24.383      696.742     1816.629      594.517        0.777        0.155      111.496       18.238        0.027      344.557       21.461      865.481
07/30/2014  03:37:00     -102.763      -82.702       -6.401       34.869       27.182       16.886     1215.843      738.839      285.150        0.984        0.112      131.909       12.382        0.009      344.607       21.547      865.473
07/30/2014  03:38:00      -45.860      -78.583        5.371       37.964       41.767       22.993     1441.256     1744.492      528.693        0.601        0.186       90.986       17.124        0.035      344.622       21.572      865.466
07/30/2014  03:39:00      -58.073      -74.305       -1.139       41.539       39.795       21.907     1725.468     1583.602      479.918        0.634        0.189       94.306       19.133        0.041      344.567       21.478      865.462
07/30/2014  03:40:00      -32.879     -123.431       11.989       40.405       59.287       26.971     1632.599     3514.985      727.424        1.117        0.294      127.735       25.940        0.041      344.602       21.538      865.471
07/30/2014  03:41:00      -47.155      -67.037        2.572       43.376       34.601       18.289     1881.472     1197.251      334.492        0.507        0.171       81.961       13.075        0.025      344.561       21.468      865.481
07/30/2014  03:42:00      -87.534     -102.818       -4.994       56.587       53.452       26.880     3202.034     2857.116      722.512        1.252        0.339      135.032       18.151        0.018      344.467       21.307      865.496
07/30/2014  03:43:00      -59.450     -102.850       -0.245       55.401       57.076       27.177     3069.253     3257.680      738.593        1.059        0.353      118.796       24.700        0.043      344.423       21.229      865.497
07/30/2014  03:44:00      -55.098      -56.405        2.341       65.220       32.424       30.131     4253.634     1051.301      907.888        0.622        0.311       78.850       34.143        0.187      344.408       21.204      865.488
07/30/2014  03:45:00      -32.954      -40.002        4.321       30.857       41.071       22.955      952.131     1686.806      526.919        0.293        0.158       51.828       20.107        0.151      344.384       21.164      865.497
07/30/2014  03:46:00      -56.825      -51.953        7.252       42.290       38.137       24.538     1788.456     1454.440      602.130        0.491        0.192       76.995       25.779        0.112      344.346       21.101      865.507
07/30/2014  03:47:00      -31.966      -61.451       -8.068       59.096       32.060       18.760     3492.390     1027.834      351.931        0.487        0.244       69.268       13.476        0.038      344.417       21.221      865.524
07/30/2014  03:48:00      -30.985      -57.356       -0.562       33.627       26.480       21.404     1130.800      701.208      458.135        0.327        0.115       65.191       20.566        0.100      344.408       21.207      865.538
07/30/2014  03:49:00      -41.136      -81.036       -1.882       29.958       42.953       20.288      897.486     1844.992      411.620        0.571        0.158       90.879       15.873        0.031      344.468       21.307      865.534
07/30/2014  03:50:00       -2.992      -30.502       11.784       18.514       25.292       16.592      342.761      639.687      275.297        0.117        0.063       30.648       15.236        0.247      344.480       21.328      865.536
07/30/2014  03:51:00       -7.518        2.025        7.720       16.826       10.973        9.872      283.100      120.411       97.465        0.031        0.025        7.786        8.711        1.252      344.334       21.079      865.549
07/30/2014  03:52:00       27.784       14.532       -0.934       10.551        9.292        8.628      111.333       86.346       74.443        0.063        0.014       31.355        6.522        0.043      344.286       20.998      865.561
07/30/2014  03:53:00       29.424       21.948       -0.323       14.711       18.302       12.053      216.417      334.972      145.279        0.102        0.035       36.708       12.047        0.108      344.185       20.825      865.559
07/30/2014  03:54:00       77.115       31.197        0.489       20.909       16.975       17.716      437.183      288.164      313.842        0.398        0.052       83.186       10.344        0.015      343.846       20.246      865.557
07/30/2014  03:55:00       49.172       19.484        4.563       27.698       18.448       15.475      767.192      340.320      239.462        0.208        0.067       52.891        5.494        0.011      343.904       20.343      865.559
07/30/2014  03:56:00       49.383       35.188        1.856       17.184       17.480       14.202      295.278      305.538      201.699        0.224        0.040       60.637        9.154        0.023      343.881       20.305      865.558
07/30/2014  03:57:00       67.498       38.873        1.101       17.226       13.804        9.670      296.742      190.550       93.515        0.332        0.029       77.892        7.543        0.009      343.935       20.399      865.547
07/30/2014  03:58:00       48.254       13.329       -4.768       15.684       17.004       10.350      245.983      289.144      107.116        0.159        0.032       50.061        5.250        0.011      344.070       20.627      865.541
07/30/2014  03:59:00       14.482       -8.850       -3.185       14.371       13.648        4.772      206.527      186.273       22.770        0.036        0.021       16.972        3.863        0.052      344.137       20.742      865.532
07/30/2014  04:00:00       -1.610       -2.994       -1.811        3.339        3.973        2.874       11.147       15.782        8.261        0.003        0.002        3.400        2.373        0.487      344.068       20.626      865.518
07/30/2014  04:01:00       -8.029        0.212        1.792        8.812        3.141        4.680       77.644        9.866       21.903        0.009        0.005        8.032        2.987        0.138      344.049       20.593      865.514
07/30/2014  04:02:00      -20.200        5.644       -1.302        6.243        3.913        3.125       38.972       15.312        9.764        0.025        0.003       20.974        2.644        0.016      344.088       20.659      865.507
07/30/2014  04:03:00       -1.399       -2.100        2.201        6.372        3.477        7.202       40.602       12.088       51.869        0.006        0.005        2.524        5.005        3.933      344.059       20.609      865.505
07/30/2014  04:04:00        6.669        6.042        4.137        7.592       14.237        4.486       57.645      202.705       20.120        0.019        0.014        8.999        3.929        0.191      344.116       20.708      865.509
07/30/2014  04:05:00       47.760       40.735       14.460       13.103       10.975        9.270      171.698      120.445       85.930        0.226        0.019       62.772        5.546        0.008      344.241       20.921      865.516
07/30/2014  04:06:00       42.271       29.745        7.161       14.510       13.819       12.011      210.545      190.974      144.270        0.163        0.027       51.688        8.393        0.026      344.047       20.589      865.527
07/30/2014  04:07:00       43.936       24.457        2.677       19.137       13.494       12.324      366.207      182.091      151.875        0.162        0.035       50.284        8.839        0.031      343.863       20.274      865.541
07/30/2014  04:08:00       22.184       28.313        6.108       20.313       17.871       12.586      412.615      319.369      158.414        0.111        0.045       35.969        9.075        0.064      343.770       20.118      865.540
07/30/2014  04:09:00       24.103       59.888       -6.632       16.423       25.461       14.562      269.718      648.276      212.049        0.267        0.057       64.557        7.813        0.015      343.877       20.298      865.545
07/30/2014  04:10:00        2.301      115.621      -18.324       24.366       35.715       13.644      593.690     1275.529      186.145        0.788        0.103      115.644       11.982        0.011      344.023       20.549      865.548
07/30/2014  04:11:00      -43.050      104.188      -14.394       22.508       29.278       16.436      506.592      857.222      270.158        0.727        0.082      112.732        8.829        0.006      343.841       20.239      865.546
07/30/2014  04:12:00      -52.316      102.632      -18.631       30.845       38.978       18.408      951.430     1519.315      338.847        0.821        0.140      115.197       16.030        0.019      343.872       20.290      865.548
07/30/2014  04:13:00      -43.142       67.179       -4.633       24.341       37.941       20.435      592.493     1439.542      417.597        0.442        0.122       79.839       21.504        0.073      343.911       20.357      865.547
07/30/2014  04:14:00      -32.328       -7.596       -5.170       18.607       21.061       20.061      346.212      443.585      402.438        0.116        0.060       33.208       16.561        0.249      343.799       20.165      865.543
07/30/2014  04:15:00      -21.313       29.444       -5.070       20.184       29.972       15.185      407.408      898.311      230.579        0.144        0.077       36.349       12.652        0.121      343.826       20.212      865.544
07/30/2014  04:16:00      -16.437        0.351        0.986       20.916       17.244       10.461      437.494      297.346      109.434        0.056        0.042       16.441       11.369        0.478      343.836       20.228      865.556
07/30/2014  04:17:00      -18.576       74.680       -7.803       26.154       34.667       13.107      684.042     1201.809      171.786        0.402        0.103       76.956       12.913        0.028      344.052       20.598      865.582
07/30/2014  04:18:00       19.155       60.402       -6.625       18.047       22.310        7.881      325.684      497.730       62.107        0.247        0.044       63.367        7.236        0.013      344.025       20.552      865.597
07/30/2014  04:19:00       19.344       58.552       -4.986       14.825       27.144       13.983      219.776      736.771      195.512        0.249        0.058       61.665       12.877        0.044      343.922       20.375      865.615
07/30/2014  04:20:00       21.121       69.953       -6.294       19.510       29.041       20.502      380.629      843.401      420.323        0.351        0.082       73.072       14.015        0.037      343.896       20.330      865.632
07/30/2014  04:21:00       21.734       76.783       -6.667       25.732       35.721       20.331      662.139     1276.018      413.337        0.438        0.118       79.800       21.306        0.071      343.849       20.251      865.658
07/30/2014  04:22:00       21.805      135.669      -20.403       16.448       19.085       10.717      270.552      364.254      114.860        1.002        0.037      137.411        9.447        0.005      344.069       20.627      865.674
07/30/2014  04:23:00        8.994      130.770      -16.820       15.737       17.415        8.843      247.651      303.282       78.200        0.905        0.031      131.079        7.365        0.003      344.145       20.756      865.687
07/30/2014  04:24:00      -23.674      108.665      -16.165       23.899       19.450        9.955      571.142      378.307       99.099        0.684        0.052      111.214        6.765        0.004      344.010       20.525      865.694
07/30/2014  04:25:00      -34.244       71.608      -14.046       18.103       15.488        9.845      327.733      239.885       96.921        0.358        0.033       79.375        8.698        0.012      343.976       20.468      865.704
07/30/2014  04:26:00      -40.313       21.328       -3.070       16.780       26.362        8.707      281.554      694.947       75.803        0.157        0.053       45.608        9.563        0.044      343.821       20.203      865.724
07/30/2014  04:27:00      -48.427       -7.985       -4.244       18.250       15.411       11.259      333.055      237.506      126.754        0.156        0.035       49.081       11.945        0.059      343.636       19.887      865.741
07/30/2014  04:28:00      -64.541      -14.937       -9.737       12.747       13.784       11.450      162.495      189.990      131.112        0.248        0.024       66.247        7.555        0.013      343.530       19.707      865.750
07/30/2014  04:29:00      -72.893      -17.120      -15.918       14.929       16.250       12.869      222.869      264.069      165.623        0.326        0.033       74.876        4.042        0.003      343.542       19.726      865.753
07/30/2014  04:30:00      -77.656      -30.509      -10.537       20.405       18.679       13.188      416.379      348.921      173.917        0.401        0.047       83.434        7.548        0.008      343.425       19.526      865.755
07/30/2014  04:31:00      -79.838      -19.466      -13.644       14.963       15.799       10.883      223.905      249.615      118.442        0.377        0.030       82.177        6.044        0.005      343.414       19.507      865.764
07/30/2014  04:32:00      -75.892      -30.010      -14.877       23.837       19.590       12.625      568.185      383.757      159.379        0.400        0.056       81.610        9.886        0.015      343.514       19.680      865.760
07/30/2014  04:33:00     -109.088      -31.433      -14.115       13.119       18.328       13.616      172.101      335.902      185.403        0.689        0.035      113.526        8.439        0.006      343.505       19.663      865.758
07/30/2014  04:34:00     -107.550      -51.297      -11.857       14.378       14.859        7.785      206.718      220.785       60.601        0.741        0.024      119.157        5.695        0.002      343.496       19.649      865.755
07/30/2014  04:35:00     -109.210      -48.834      -12.562       13.018       19.877        9.695      169.479      395.091       94.000        0.756        0.033      119.631        6.168        0.003      343.528       19.702      865.756
07/30/2014  04:36:00     -105.823      -21.060       -7.923       26.679       14.948       14.321      711.751      223.446      205.084        0.642        0.057      107.899       13.549        0.016      343.478       19.618      865.751
07/30/2014  04:37:00     -102.018      -27.539       -1.079       28.375       17.801       13.881      805.160      316.867      192.674        0.624        0.066      105.670       12.380        0.014      343.448       19.567      865.740
07/30/2014  04:38:00      -80.803      -34.094        2.262       25.999       23.804       17.715      675.944      566.612      313.809        0.463        0.078       87.701       14.824        0.029      343.350       19.399      865.739
07/30/2014  04:39:00      -94.540      -47.193       -3.539       21.720       19.389       11.064      471.739      375.925      122.405        0.607        0.049      105.665        9.552        0.008      343.352       19.403      865.753
07/30/2014  04:40:00      -96.057      -20.450       -9.610       19.916       17.571       14.567      396.663      308.757      212.196        0.533        0.046       98.210       12.138        0.015      343.356       19.409      865.755
07/30/2014  04:41:00     -106.533      -30.497      -12.909       11.654       15.264       11.787      135.821      232.982      138.931        0.648        0.025      110.812        5.997        0.003      343.364       19.424      865.754
07/30/2014  04:42:00     -104.182      -34.758       -8.849       25.528       19.323       14.232      651.697      373.376      202.564        0.668        0.061      109.827        9.870        0.008      343.261       19.248      865.760
07/30/2014  04:43:00      -98.633        8.211       -7.728       42.742       42.685       24.185     1826.894     1822.023      584.895        0.704        0.212       98.974       22.897        0.054      343.378       19.447      865.780
07/30/2014  04:44:00     -169.307       47.921      -16.736       56.177       38.490       24.961     3155.898     1481.512      623.065        1.825        0.263      175.958       22.766        0.017      343.482       19.624      865.804
07/30/2014  04:45:00     -190.895       54.136      -23.078       51.144       43.027       25.466     2615.688     1851.329      648.501        2.251        0.256      198.422       21.706        0.012      343.388       19.462      865.822
07/30/2014  04:46:00     -156.368       20.917      -15.074       50.567       54.416       29.204     2556.989     2961.095      852.883        1.574        0.319      157.761       30.148        0.037      343.312       19.334      865.834
07/30/2014  04:47:00     -131.495        9.641      -16.924       44.478       42.891       26.057     1978.285     1839.604      678.946        1.108        0.225      131.848       12.784        0.009      343.305       19.323      865.837
07/30/2014  04:48:00     -167.224        3.243      -14.527       36.025       37.037       20.446     1297.803     1371.749      418.048        1.564        0.154      167.255       17.750        0.011      343.215       19.168      865.843
07/30/2014  04:49:00     -135.315      -18.141      -14.654       39.354       23.246       23.025     1548.776      540.357      530.140        1.074        0.131      136.525       22.694        0.028      343.209       19.158      865.832
07/30/2014  04:50:00      -69.932      -19.379      -11.417       19.928       28.811       16.354      397.107      830.058      267.469        0.345        0.075       72.567       10.123        0.019      343.225       19.187      865.801
07/30/2014  04:51:00      -73.117      -34.372      -13.444       11.861       13.952       11.158      140.694      194.647      124.499        0.358        0.023       80.793        7.125        0.008      343.303       19.320      865.787
07/30/2014  04:52:00      -24.583      -17.922        0.066       21.328       21.921       12.966      454.872      480.533      168.108        0.101        0.055       30.423        9.750        0.103      343.251       19.231      865.761
07/30/2014  04:53:00      -74.872      -24.062       -2.927       20.289       14.089       13.684      411.659      198.500      187.244        0.350        0.040       78.643       13.916        0.031      343.220       19.180      865.747
07/30/2014  04:54:00      -86.443      -29.736       -9.693       16.737       20.279       10.817      280.136      411.253      116.997        0.463        0.040       91.414        6.351        0.005      343.267       19.258      865.742
07/30/2014  04:55:00      -85.478      -55.814       -6.468       16.511       13.378        8.538      272.615      178.967       72.902        0.549        0.026      102.086        6.765        0.004      343.293       19.301      865.738
07/30/2014  04:56:00      -80.328      -49.335       -2.853       26.013       16.816       13.039      676.696      282.789      170.026        0.501        0.056       94.268       11.419        0.015      343.349       19.397      865.733
07/30/2014  04:57:00     -109.443      -33.572       -3.817       30.488       21.223       14.453      929.537      450.400      208.875        0.735        0.079      114.476       11.857        0.011      343.352       19.403      865.732
07/30/2014  04:58:00     -118.920       -8.791       -0.072       44.429       31.615       21.155     1973.960      999.533      447.521        0.882        0.171      119.244       24.229        0.041      343.344       19.389      865.719
07/30/2014  04:59:00     -134.751        6.108       -5.253       42.352       30.458       22.626     1793.711      927.717      511.936        1.073        0.162      134.890       22.665        0.028      343.277       19.276      865.714
07/30/2014  05:00:00     -187.427       17.964      -17.477       38.673       28.104       20.884     1495.627      789.815      436.135        1.924        0.136      188.286       18.073        0.009      343.231       19.196      865.725
07/30/2014  05:01:00     -154.767      -35.841      -21.149       60.978       48.113       26.004     3718.328     2314.846      676.211        1.620        0.335      158.863       27.795        0.031      343.213       19.165      865.731
07/30/2014  05:02:00     -126.029        6.868      -16.473       29.586       32.339       20.518      875.316     1045.815      421.000        0.927        0.117      126.216       17.874        0.020      343.179       19.108      865.728
07/30/2014  05:03:00     -145.412       11.844      -12.797       30.052       34.472       19.581      903.108     1188.335      383.405        1.196        0.124      145.893       15.150        0.011      343.286       19.290      865.716
07/30/2014  05:04:00     -137.540      -35.549      -14.983       34.234       35.077       22.881     1171.934     1230.361      523.554        1.167        0.146      142.060       16.966        0.014      343.273       19.267      865.719
07/30/2014  05:05:00     -151.356        0.339      -10.585       45.086       38.160       26.793     2032.774     1456.222      717.842        1.361        0.210      151.356       23.184        0.023      343.181       19.111      865.727
07/30/2014  05:06:00     -157.249       12.641       -8.812       47.880       28.015       24.366     2292.463      784.868      593.689        1.432        0.184      157.757       25.164        0.025      343.247       19.223      865.732
07/30/2014  05:07:00     -111.754      -11.691      -10.960       39.817       25.779       19.254     1585.387      664.553      370.726        0.768        0.131      112.363       17.735        0.025      343.227       19.191      865.743
07/30/2014  05:08:00      -87.532      -19.544       -4.388       52.603       38.448       16.648     2767.044     1478.280      277.166        0.629        0.226       89.687       18.878        0.044      343.252       19.232      865.754
07/30/2014  05:09:00     -116.290       15.796       -0.801       34.899       32.669       19.615     1217.924     1067.249      384.759        0.822        0.133      117.358       12.586        0.012      343.322       19.352      865.752
07/30/2014  05:10:00      -71.184       -7.031       -0.278       32.562       21.149       18.471     1060.259      447.285      341.175        0.348        0.092       71.531       17.459        0.060      343.312       19.334      865.768
07/30/2014  05:11:00      -86.164      -14.305       -4.880       22.125       27.020       18.060      489.536      730.072      326.181        0.460        0.077       87.343       15.161        0.030      343.281       19.282      865.787
07/30/2014  05:12:00     -100.792      -23.911      -10.211       12.323       16.117       12.223      151.854      259.754      149.407        0.570        0.028      103.589        5.438        0.003      343.339       19.383      865.796
07/30/2014  05:13:00     -102.418      -34.912       -0.112       26.492       25.930       16.470      701.835      672.390      271.262        0.668        0.082      108.205       13.927        0.017      343.425       19.527      865.818
07/30/2014  05:14:00     -122.468      -34.898       -1.899       30.266       32.575       16.773      916.018     1061.099      281.330        0.924        0.113      127.343       16.496        0.017      343.372       19.437      865.841
07/30/2014  05:15:00     -107.907      -42.443        0.257       29.419       27.287       17.767      865.504      744.556      315.679        0.769        0.096      115.954       14.887        0.016      343.352       19.404      865.851
07/30/2014  05:16:00     -100.510        0.360       -1.686       38.235       29.117       21.438     1461.948      847.793      459.575        0.644        0.138      100.510       21.230        0.045      343.284       19.287      865.857
07/30/2014  05:17:00     -109.017      -27.993       -1.227       42.470       26.355       21.585     1803.702      694.600      465.908        0.782        0.148      112.553       21.815        0.038      343.294       19.305      865.871
07/30/2014  05:18:00     -121.983      -58.086        4.021       38.606       22.240       14.402     1490.433      494.611      207.430        1.023        0.110      135.107        9.451        0.005      343.371       19.435      865.900
07/30/2014  05:19:00      -45.958      -51.232        7.642       52.248       39.394       25.370     2729.844     1551.904      643.638        0.486        0.246       68.825       19.558        0.081      343.327       19.361      865.925
07/30/2014  05:20:00      -96.260      -50.115       -3.446       39.176       29.758       18.409     1534.780      885.554      338.874        0.727        0.138      108.525       14.697        0.018      343.335       19.376      865.928
07/30/2014  05:21:00     -130.420      -61.065      -13.713       19.145       31.194       13.655      366.538      973.038      186.451        1.123        0.076      144.008        9.603        0.004      343.378       19.450      865.924
07/30/2014  05:22:00     -121.370      -31.595       -5.362       44.384       22.924       17.463     1969.921      525.494      304.942        0.928        0.140      125.415       19.369        0.024      343.316       19.342      865.919
07/30/2014  05:23:00     -121.069      -50.641       -9.630       37.794       22.563       14.199     1428.371      509.081      201.606        0.973        0.107      131.234       14.836        0.013      343.327       19.360      865.916
07/30/2014  05:24:00      -79.379      -64.802       -6.472       27.828       28.526       23.225      774.381      813.714      539.380        0.633        0.106      102.471       15.326        0.022      343.299       19.313      865.920
07/30/2014  05:25:00      -81.279      -51.877       -0.143       53.507       34.114       21.642     2863.030     1163.770      468.367        0.690        0.225       96.424       22.347        0.054      343.279       19.279      865.925
07/30/2014  05:26:00      -84.079      -64.820        0.934       46.990       40.659       27.005     2208.061     1653.159      729.267        0.793        0.230      106.164       27.842        0.069      343.306       19.325      865.922
07/30/2014  05:27:00     -120.546      -51.506       -1.931       31.923       28.895       16.112     1019.099      834.934      259.590        0.965        0.106      131.088        8.365        0.004      343.407       19.498      865.923
07/30/2014  05:28:00     -101.055      -18.746       -9.985       25.351       23.486       15.383      642.687      551.605      236.647        0.605        0.072      102.779       10.796        0.011      343.483       19.625      865.927
07/30/2014  05:29:00     -109.374      -26.950      -11.615       17.842       24.814       15.274      318.340      615.757      233.280        0.700        0.058      112.646        7.681        0.005      343.413       19.506      865.943
07/30/2014  05:30:00     -117.780        2.715       -8.490       34.848       22.765       16.989     1214.362      518.246      288.611        0.799        0.101      117.811       15.883        0.018      343.372       19.437      865.953
07/30/2014  05:31:00     -158.407       13.861      -17.748       19.607       23.248       12.912      384.417      540.465      166.731        1.335        0.055      159.012        8.289        0.003      343.449       19.568      865.969
07/30/2014  05:32:00      -77.555      -16.590       -7.116       43.880       28.530       21.560     1925.411      813.939      464.845        0.477        0.160       79.309       12.500        0.025      343.349       19.395      865.984
07/30/2014  05:33:00      -89.126      -33.914       -5.398       30.274       32.117       14.060      916.501     1031.498      197.683        0.563        0.107       95.360       13.677        0.021      343.283       19.286      866.002
07/30/2014  05:34:00      -42.397        4.880       -4.765       13.400       17.501       10.574      179.573      306.293      111.805        0.122        0.030       42.676        6.474        0.023      343.269       19.260      866.016
07/30/2014  05:35:00      -57.120       11.762      -13.131       26.075       17.743       13.318      679.927      314.827      177.377        0.237        0.059       58.319       14.590        0.063      343.368       19.430      866.031
07/30/2014  05:36:00      -34.191        5.014       -7.032       20.990        9.720       13.551      440.574       94.477      183.636        0.098        0.036       34.557        9.178        0.071      343.374       19.440      866.041
07/30/2014  05:37:00       -6.000      -14.082       -5.658       12.116       14.473        9.412      146.785      209.481       88.586        0.036        0.022       15.307        4.853        0.101      343.468       19.602      866.044
07/30/2014  05:38:00      -13.980      -25.713       -8.123       20.229       14.393       11.061      409.208      207.172      122.344        0.083        0.037       29.268        8.691        0.088      343.396       19.476      866.057
07/30/2014  05:39:00      -15.037      -25.138        8.288       20.849       16.564       12.931      434.666      274.362      167.218        0.090        0.044       29.292        8.053        0.076      343.285       19.290      866.056
07/30/2014  05:40:00      -62.509      -37.131       -2.418       22.539       10.827       11.061      507.999      117.234      122.342        0.302        0.037       72.705       10.539        0.021      343.205       19.151      866.061
07/30/2014  05:41:00      -91.849      -28.934       -8.714       14.070       14.762       10.839      197.968      217.918      117.482        0.494        0.027       96.299        5.163        0.003      343.270       19.260      866.068
07/30/2014  05:42:00     -103.648      -48.826      -12.213       13.904       15.916       11.213      193.334      253.317      125.723        0.692        0.029      114.572        3.060        0.001      343.235       19.205      866.069
07/30/2014  05:43:00     -103.385      -45.781      -10.083       11.237       15.356        9.084      126.279      235.801       82.510        0.667        0.022      113.068        4.370        0.001      343.228       19.193      866.066
07/30/2014  05:44:00      -66.172      -51.066        1.228       28.577       23.619       15.134      816.667      557.872      229.037        0.430        0.080       83.585       12.244        0.021      343.178       19.107      866.068
07/30/2014  05:45:00      -81.382      -52.240       -2.047       34.492       22.004       16.614     1189.728      484.190      276.038        0.565        0.097       96.706       14.284        0.022      343.193       19.131      866.066
07/30/2014  05:46:00      -94.773      -65.312       -9.789       24.906       31.828       17.432      620.286     1013.033      303.859        0.764        0.097      115.098       11.123        0.009      343.296       19.306      866.077
07/30/2014  05:47:00     -101.347      -55.142       -1.989       18.158       16.956       10.992      329.728      287.497      120.825        0.703        0.037      115.377        5.916        0.003      343.319       19.346      866.092
07/30/2014  05:48:00      -92.535      -41.107       -6.794       14.487       21.527       11.622      209.881      463.398      135.072        0.555        0.040      101.254        5.936        0.003      343.221       19.179      866.115
07/30/2014  05:49:00      -91.951      -22.503       -3.622       27.613       17.813       14.174      762.462      317.312      200.911        0.513        0.064       94.664       14.892        0.025      343.194       19.135      866.128
07/30/2014  05:50:00      -63.833      -25.499        2.592       23.663       22.283       13.471      559.925      496.537      181.455        0.298        0.062       68.738       10.494        0.023      343.174       19.100      866.138
07/30/2014  05:51:00      -30.519      -19.100        0.112       14.086       18.502       11.237      198.403      342.342      126.281        0.098        0.033       36.003        5.251        0.021      343.187       19.123      866.152
07/30/2014  05:52:00      -11.352      -26.707        1.449       17.624       15.299        9.799      310.622      234.054       96.013        0.074        0.032       29.019        5.608        0.037      343.337       19.377      866.154
07/30/2014  05:53:00      -15.072      -16.773        0.615       15.399        8.171       10.071      237.134       66.773      101.433        0.046        0.020       22.550        9.175        0.166      343.368       19.433      866.151
07/30/2014  05:54:00      -58.099       -3.544       -4.922       17.253        7.079        9.718      297.667       50.107       94.435        0.193        0.022       58.207        9.588        0.027      343.338       19.379      866.143
07/30/2014  05:55:00      -79.286      -14.119       -8.477       11.954        9.984        9.884      142.889       99.680       97.698        0.345        0.017       80.534        7.357        0.008      343.455       19.577      866.133
07/30/2014  05:56:00      -85.028      -32.296      -10.751       11.365       11.459        7.475      129.174      131.300       55.869        0.435        0.016       90.955        5.985        0.004      343.376       19.445      866.120
07/30/2014  05:57:00      -55.907      -52.677        0.202       21.916       18.408       12.557      480.297      338.839      157.681        0.344        0.049       76.815       11.912        0.024      343.300       19.317      866.108
07/30/2014  05:58:00      -19.812      -26.630        4.442       31.762       15.616       14.460     1008.846      243.853      209.091        0.129        0.073       33.191       16.390        0.244      343.267       19.259      866.109
07/30/2014  05:59:00      -41.708      -37.501        2.916       22.011       14.749       11.251      484.486      217.519      126.585        0.199        0.041       56.089       12.174        0.047      343.256       19.239      866.109
07/30/2014  06:00:00      -35.677      -25.914        0.394       24.022       15.120       11.755      577.069      228.605      138.184        0.144        0.047       44.095       12.721        0.083      343.272       19.266      866.100
07/30/2014  06:01:00      -31.430      -37.002        0.097       16.345       11.527       12.426      267.167      132.868      154.412        0.146        0.028       48.549       10.492        0.047      343.289       19.297      866.092
07/30/2014  06:02:00      -37.688      -20.820      -10.928       15.447        9.950       10.739      238.602       98.993      115.328        0.121        0.023       43.056        5.833        0.018      343.438       19.551      866.081
07/30/2014  06:03:00      -68.683       -9.950       -8.161       12.945       11.720        9.647      167.566      137.359       93.068        0.264        0.020       69.400        6.498        0.009      343.481       19.623      866.072
07/30/2014  06:04:00      -72.497      -16.295       -2.571       16.249       13.138        9.442      264.041      172.599       89.160        0.303        0.026       74.306        7.648        0.011      343.488       19.636      866.066
07/30/2014  06:05:00      -97.464      -36.108       -6.387       11.793       13.190        7.023      139.083      173.974       49.317        0.560        0.018      103.938        2.040        0.000      343.461       19.588      866.063
07/30/2014  06:06:00     -119.655      -46.510       -2.756       29.597       26.576       14.307      876.002      706.279      204.704        0.914        0.089      128.376       12.294        0.009      343.469       19.602      866.070
07/30/2014  06:07:00     -152.096      -78.163       -6.702       38.933       31.635       19.601     1515.811     1000.742      384.184        1.609        0.145      171.005       11.581        0.005      343.312       19.334      866.078
07/30/2014  06:08:00     -161.621      -76.026        2.995       50.929       35.812       27.910     2593.715     1282.535      778.945        1.828        0.233      178.610       25.448        0.020      343.312       19.335      866.093
07/30/2014  06:09:00     -169.086      -42.362        0.531       33.256       27.310       27.409     1105.949      745.811      751.232        1.649        0.130      174.311       21.242        0.015      343.325       19.357      866.112
07/30/2014  06:10:00     -133.678      -63.862        1.976       41.298       43.536       27.385     1705.524     1895.403      749.916        1.315        0.218      148.149       23.763        0.026      343.311       19.332      866.119
07/30/2014  06:11:00     -121.743      -83.057       -0.336       43.666       44.963       25.686     1906.748     2021.632      659.786        1.315        0.229      147.376       24.841        0.028      343.352       19.402      866.126
07/30/2014  06:12:00      -89.179      -78.386        0.169       48.631       33.112       26.025     2364.932     1096.374      677.317        0.912        0.207      118.732       26.498        0.050      343.362       19.421      866.136
07/30/2014  06:13:00      -78.887     -121.989        7.551       65.072       55.564       39.454     4234.332     3087.340     1556.645        1.502        0.444      145.274       34.022        0.055      343.405       19.493      866.142
07/30/2014  06:14:00     -173.816      -87.451       -5.324       55.725       45.294       32.382     3105.246     2051.543     1048.585        2.205        0.310      194.575       27.694        0.020      343.309       19.330      866.145
07/30/2014  06:15:00     -143.050      -46.364       -0.294       45.253       34.875       26.650     2047.837     1216.292      710.217        1.329        0.199      150.376       17.217        0.013      343.305       19.323      866.150
07/30/2014  06:16:00      -89.970      -58.675        7.587       50.603       48.584       29.751     2560.668     2360.433      885.102        0.870        0.290      107.412       30.739        0.082      343.257       19.241      866.162
07/30/2014  06:17:00     -144.859      -71.779      -12.310       40.800       45.966       27.138     1664.677     2112.830      736.458        1.540        0.226      161.668       13.429        0.007      343.325       19.358      866.164
07/30/2014  06:18:00      -86.795      -33.732        2.220       39.467       23.842       20.558     1557.650      568.461      422.649        0.561        0.127       93.119       16.089        0.030      343.311       19.332      866.165
07/30/2014  06:19:00      -74.023      -41.266        6.523       35.403       33.271       21.521     1253.346     1106.961      463.147        0.502        0.141       84.749       16.872        0.040      343.291       19.299      866.173
07/30/2014  06:20:00      -84.645      -33.887       -0.135       26.643       25.475       19.417      709.869      649.000      377.003        0.502        0.087       91.177       13.409        0.022      343.279       19.279      866.177
07/30/2014  06:21:00      -82.980      -55.077       -5.537       23.360       20.152       16.486      545.678      406.111      271.789        0.559        0.061       99.595       14.283        0.021      343.276       19.273      866.187
07/30/2014  06:22:00      -72.566      -71.075        0.650       28.441       35.539       16.695      808.908     1263.026      278.721        0.633        0.118      101.575       16.443        0.026      343.308       19.327      866.189
07/30/2014  06:23:00      -57.463      -65.096       -4.041       27.087       31.532       15.421      733.704      994.245      237.809        0.476        0.098       86.830       12.038        0.019      343.268       19.260      866.195
07/30/2014  06:24:00      -33.340      -44.991       -8.569       23.379       25.539       14.010      546.594      652.259      196.268        0.230        0.070       55.997        7.286        0.017      343.351       19.399      866.203
07/30/2014  06:25:00      -33.769      -47.123        4.429       27.405       34.821       16.185      751.026     1212.531      261.951        0.280        0.111       57.974       12.430        0.046      343.348       19.397      866.207
07/30/2014  06:26:00      -57.112      -30.132       -0.593       18.516       19.488       12.961      342.829      379.790      167.975        0.253        0.045       64.573       11.870        0.034      343.308       19.326      866.214
07/30/2014  06:27:00      -11.385      -24.778        3.977       22.402       18.584       15.540      501.864      345.380      241.507        0.092        0.054       27.268       17.063        0.392      343.351       19.401      866.208
07/30/2014  06:28:00      -48.695      -42.910      -10.146       24.698       13.139       10.913      610.002      172.637      119.094        0.261        0.045       64.904        8.212        0.016      343.378       19.448      866.204
07/30/2014  06:29:00      -33.732      -15.773       -0.905       12.545       24.253       10.802      157.379      588.198      116.683        0.112        0.043       37.238       13.763        0.137      343.393       19.474      866.197
07/30/2014  06:30:00      -40.220      -17.067       -1.107       23.236       24.812       15.062      539.893      615.618      226.860        0.165        0.069       43.691       15.056        0.119      343.333       19.372      866.187
07/30/2014  06:31:00      -59.973      -47.075       -5.921       25.489       19.228       17.317      649.675      369.708      299.889        0.358        0.066       76.242       13.374        0.031      343.274       19.269      866.181
07/30/2014  06:32:00     -104.091      -30.681       -8.769       23.921       34.131       14.723      572.236     1164.896      216.779        0.690        0.098      108.519       14.517        0.018      343.236       19.205      866.173
07/30/2014  06:33:00      -73.750      -52.930       -9.850       11.016       22.758        9.344      121.345      517.929       87.312        0.453        0.036       90.777        6.456        0.005      343.265       19.255      866.179
07/30/2014  06:34:00      -58.463      -21.897       -0.091       13.522       16.094        9.230      182.837      259.011       85.185        0.221        0.026       62.429        4.313        0.005      343.289       19.297      866.186
07/30/2014  06:35:00      -71.146      -25.991       -8.536        8.517       12.407        8.597       72.531      153.925       73.900        0.306        0.015       75.745        4.607        0.004      343.319       19.345      866.191
07/30/2014  06:36:00      -58.936      -16.534       -5.094        9.983       10.848        6.700       99.665      117.689       44.887        0.202        0.013       61.212        4.111        0.005      343.279       19.277      866.202
07/30/2014  06:37:00      -66.852      -21.225       -5.615       17.074       12.452       10.709      291.529      155.048      114.673        0.276        0.028       70.141        8.455        0.015      343.258       19.243      866.217
07/30/2014  06:38:00     -105.202      -35.556       -8.678       17.161       12.993       10.025      294.507      168.819      100.499        0.649        0.028      111.048        5.839        0.003      343.238       19.209      866.226
07/30/2014  06:39:00     -111.608      -22.552      -12.034       18.106       13.002       14.691      327.840      169.061      215.825        0.691        0.036      113.864       10.148        0.008      343.177       19.107      866.215
07/30/2014  06:40:00      -96.099      -20.229       -4.263       26.788       19.188       14.667      717.603      368.194      215.116        0.548        0.065       98.205       14.640        0.022      343.187       19.123      866.208
07/30/2014  06:41:00      -42.488       -3.860        0.120       16.424       14.846       12.752      269.763      220.417      162.605        0.124        0.033       42.663       10.362        0.059      343.249       19.228      866.206
07/30/2014  06:42:00      -55.331      -21.966       -6.224       22.093       13.521        9.192      488.088      182.819       84.491        0.217        0.038       59.532       11.925        0.040      343.347       19.394      866.201
07/30/2014  06:43:00      -60.987      -11.412       -0.593       17.598       10.708        8.505      309.703      114.665       72.332        0.217        0.025       62.046        9.483        0.023      343.308       19.328      866.192
07/30/2014  06:44:00      -68.955      -24.761       -7.521        7.802        9.619        5.334       60.873       92.533       28.448        0.280        0.009       73.266        3.650        0.002      343.419       19.514      866.196
07/30/2014  06:45:00      -33.280      -12.129        7.521       22.137       18.049       15.281      490.065      325.767      233.494        0.118        0.052       35.422       17.216        0.236      343.582       19.797      866.202
07/30/2014  06:46:00       -5.505      -22.978        0.933       12.525       10.965       11.366      156.877      120.234      129.181        0.048        0.020       23.628        8.447        0.128      343.619       19.857      866.195
07/30/2014  06:47:00      -46.790       -1.414       -2.527        7.679       10.008        6.543       58.962      100.151       42.815        0.120        0.010       46.812        4.034        0.007      343.544       19.730      866.190
07/30/2014  06:48:00      -40.183       -9.383        0.761        6.672        9.147        5.910       44.510       83.660       34.933        0.093        0.008       41.264        3.044        0.005      343.564       19.764      866.195
07/30/2014  06:49:00      -15.777      -20.312        4.085       13.783       17.077        5.069      189.967      291.632       25.691        0.059        0.025       25.719        5.423        0.044      343.640       19.896      866.186
07/30/2014  06:50:00      -35.982      -83.151        3.309       20.523       22.324       12.203      421.193      498.383      148.913        0.464        0.053       90.602       10.104        0.012      343.708       20.011      866.196
07/30/2014  06:51:00      -40.399      -49.424        3.016       21.284       15.804       11.684      453.012      249.766      136.510        0.246        0.042       63.834        7.531        0.014      343.760       20.097      866.209
07/30/2014  06:52:00       -8.714      -62.921        4.624       19.334       17.664        8.809      373.789      311.999       77.606        0.241        0.038       63.522        4.315        0.005      343.827       20.215      866.211
07/30/2014  06:53:00       -4.556      -64.652        8.523       20.142       24.658       17.104      405.697      608.034      292.555        0.279        0.065       64.812        9.329        0.021      343.828       20.215      866.223
07/30/2014  06:54:00      -33.710      -92.417       -1.354       48.815       21.672       21.121     2382.883      469.689      446.113        0.649        0.165       98.373       23.273        0.056      343.892       20.324      866.236
07/30/2014  06:55:00      -15.471      -63.765        0.568       41.059       23.729       17.848     1685.871      563.081      318.542        0.344        0.128       65.615        9.572        0.021      343.753       20.088      866.250
07/30/2014  06:56:00      -52.041      -63.134       -5.732       20.353       35.329       15.009      414.247     1248.125      225.267        0.431        0.094       81.818        5.988        0.005      343.742       20.067      866.261
07/30/2014  06:57:00      -47.091      -40.025       -1.594       22.513       28.016       11.601      506.838      784.869      134.582        0.262        0.071       61.802       11.273        0.033      343.697       19.991      866.258
07/30/2014  06:58:00      -17.931      -21.773        4.499       20.290       20.389       14.386      411.685      415.697      206.959        0.092        0.052       28.206       11.829        0.176      343.744       20.071      866.267
07/30/2014  06:59:00      -15.308      -93.147      -11.629       28.907       21.526       17.547      835.642      463.371      307.905        0.533        0.080       94.396        5.323        0.003      343.690       19.977      866.279
07/30/2014  07:00:00      -36.361      -83.075       -5.816       29.653       41.854       19.547      879.302     1751.786      382.066        0.563        0.151       90.684       18.976        0.044      343.646       19.904      866.285
07/30/2014  07:01:00      -37.884      -82.637      -12.366       48.804       29.958       25.682     2381.811      897.498      659.566        0.618        0.197       90.907       19.335        0.045      343.726       20.040      866.296
07/30/2014  07:02:00      -41.960      -58.736        9.644       27.772       34.150       28.057      771.270     1166.253      787.204        0.401        0.136       72.184       25.181        0.122      343.745       20.073      866.289
07/30/2014  07:03:00      -20.229        5.105       14.213       18.181       16.877       16.821      330.553      284.823      282.961        0.077        0.045       20.863       14.178        0.462      344.026       20.554      866.297
07/30/2014  07:04:00      -43.403      -15.070        1.516       32.613       26.133       23.335     1063.590      682.911      544.541        0.220        0.115       45.944       22.674        0.244      343.817       20.196      866.303
07/30/2014  07:05:00      -22.172       -8.742       16.507       34.559       23.791       19.118     1194.310      566.003      365.501        0.148        0.106       23.833       13.131        0.304      344.042       20.581      866.300
07/30/2014  07:06:00      -34.672        0.682        9.334       25.742       16.023       12.367      662.671      256.738      152.933        0.118        0.054       34.679       11.114        0.103      343.871       20.288      866.304
07/30/2014  07:07:00      -34.475      -33.640       13.386       28.879       46.380       20.942      834.015     2151.133      438.551        0.296        0.171       48.168       25.948        0.290      343.845       20.244      866.304
07/30/2014  07:08:00      -16.763      -48.291        3.760       27.361       25.328       13.081      748.626      641.529      171.115        0.209        0.078       51.117       15.618        0.093      343.724       20.036      866.309
07/30/2014  07:09:00      -63.472      -40.952        1.069       27.545       26.192       16.305      758.743      686.036      265.859        0.371        0.086       75.536       15.501        0.042      343.708       20.010      866.305
07/30/2014  07:10:00      -54.373      -67.691       -3.657       13.493       26.434       11.234      182.064      698.752      126.195        0.428        0.050       86.825        5.851        0.005      343.713       20.020      866.324
07/30/2014  07:11:00      -11.486      -67.079       -1.048       28.152       17.408       16.019      792.551      303.037      256.610        0.299        0.068       68.055        9.327        0.019      343.766       20.109      866.332
07/30/2014  07:12:00      -13.141      -55.333        0.869       29.448       20.541       27.631      867.188      421.941      763.478        0.264        0.103       56.872       11.453        0.041      343.899       20.335      866.345
07/30/2014  07:13:00      -41.845      -31.643       -0.942       35.322       27.488       16.887     1247.653      755.612      285.186        0.252        0.114       52.462       16.227        0.096      343.862       20.273      866.355
07/30/2014  07:14:00      -27.355      -16.362        5.824       26.675       16.981       16.283      711.575      288.339      265.121        0.116        0.063       31.875       16.382        0.264      344.003       20.513      866.371
07/30/2014  07:15:00      -31.117       -7.813        1.216       14.676       17.657       13.538      215.386      311.775      183.276        0.087        0.036       32.082        7.233        0.051      343.779       20.131      866.371
07/30/2014  07:16:00      -10.965       -8.026        7.346       24.907       12.093       14.078      620.350      146.242      198.194        0.060        0.048       13.588       10.517        0.599      343.913       20.358      866.392
07/30/2014  07:17:00       -9.254       13.640       31.297       11.668       17.221       20.018      136.133      296.561      400.705        0.104        0.042       16.483       10.326        0.392      344.324       21.062      866.405
07/30/2014  07:18:00      -15.252       -0.959       29.057       13.900       23.432       26.851      193.215      549.055      720.994        0.127        0.073       15.282       22.196        2.110      344.208       20.864      866.432
07/30/2014  07:19:00      -26.154       18.402       21.095       18.817       15.791       16.199      354.067      249.345      262.400        0.117        0.043       31.979       11.340        0.126      343.980       20.474      866.439
07/30/2014  07:20:00      -47.115       18.293        7.734       14.645       15.462       16.466      214.490      239.071      271.143        0.167        0.036       50.541       12.517        0.061      343.772       20.119      866.464
07/30/2014  07:21:00      -47.049        9.305       -4.261       16.579       12.511       12.758      274.868      156.524      162.756        0.146        0.030       47.961       11.579        0.058      343.739       20.061      866.476
07/30/2014  07:22:00      -26.238       16.406       19.174       21.987       18.531       13.907      483.450      343.411      193.399        0.117        0.051       30.945       16.746        0.293      344.059       20.609      866.487
07/30/2014  07:23:00      -15.835        7.494       16.585       21.791       14.566       10.156      474.842      212.155      103.147        0.069        0.040       17.519        9.888        0.319      344.297       21.016      866.490
07/30/2014  07:24:00      -38.050       27.344        6.046       18.012       14.857       22.533      324.432      220.722      507.723        0.164        0.053       46.856       15.257        0.106      344.075       20.639      866.501
07/30/2014  07:25:00      -15.528        7.194       17.540       15.085       11.667       14.001      227.559      136.111      196.014        0.058        0.028       17.113       11.179        0.427      344.474       21.320      866.511
07/30/2014  07:26:00      -33.815        2.787        4.697       18.654       15.559       13.094      347.967      242.079      171.456        0.097        0.038       33.929       13.473        0.158      343.992       20.495      866.520
07/30/2014  07:27:00      -42.554      -20.324       -6.506       16.357       18.126       12.168      267.559      328.550      148.056        0.151        0.037       47.159       11.913        0.064      343.873       20.294      866.524
07/30/2014  07:28:00      -27.734      -17.520        1.951       18.503       19.486       14.872      342.376      379.713      221.162        0.101        0.047       32.805       12.508        0.145      344.014       20.530      866.532
07/30/2014  07:29:00      -49.363      -11.557        8.691       40.811       19.557       14.183     1665.511      382.482      201.159        0.245        0.112       50.698       17.814        0.123      344.162       20.785      866.534
07/30/2014  07:30:00      -46.019      -35.028        6.491       32.952       24.161       14.787     1085.829      583.765      218.667        0.264        0.094       57.833       15.619        0.073      344.067       20.622      866.549
07/30/2014  07:31:00      -60.610      -19.466       -4.224       16.169       39.426       13.399      261.423     1554.379      179.545        0.303        0.100       63.660       19.866        0.097      344.019       20.541      866.555
07/30/2014  07:32:00      -15.659      -36.268       -8.861       20.215       33.551       10.065      408.654     1125.639      101.306        0.164        0.082       39.504       12.127        0.094      344.081       20.648      866.560
07/30/2014  07:33:00      -55.909      -26.701       -9.099       11.225       13.206       11.277      125.993      174.401      127.179        0.217        0.021       61.958        4.650        0.006      344.083       20.650      866.565
07/30/2014  07:34:00      -31.452       18.955        5.027       23.003       25.665       19.765      529.159      658.713      390.659        0.148        0.079       36.723       16.341        0.198      344.330       21.073      866.566
07/30/2014  07:35:00      -44.551       17.321       -3.561       21.006       14.377       11.645      441.259      206.692      135.597        0.154        0.039       47.799        8.051        0.028      344.137       20.745      866.567
07/30/2014  07:36:00       -6.340       24.622        9.013       16.778       23.699       17.791      281.504      561.647      316.527        0.094        0.058       25.425       14.825        0.340      344.647       21.614      866.570
07/30/2014  07:37:00       -3.153       20.768       14.140       12.966       32.070       14.899      168.127     1028.515      221.990        0.103        0.071       21.006       15.124        0.518      344.781       21.844      866.569
07/30/2014  07:38:00        4.584       41.026        2.686       18.582       22.868       17.663      345.280      522.925      311.997        0.145        0.059       41.282       14.349        0.121      344.595       21.527      866.551
07/30/2014  07:39:00       15.943       14.546        1.111       14.413       13.456       18.325      207.746      181.063      335.801        0.060        0.036       21.581       11.394        0.279      344.368       21.137      866.544
07/30/2014  07:40:00       -1.615        2.255        9.770        8.564        6.728       12.872       73.336       45.268      165.682        0.019        0.014        2.773        8.275        8.902      344.761       21.810      866.532
07/30/2014  07:41:00      -33.446       -9.953        6.588       24.527       21.295       12.366      601.558      453.466      152.917        0.123        0.060       34.895       14.380        0.170      344.486       21.340      866.524
07/30/2014  07:42:00      -17.266      -27.723       -7.203       13.124       25.458       10.780      172.238      648.106      116.198        0.103        0.047       32.660       10.087        0.095      344.352       21.110      866.528
07/30/2014  07:43:00      -16.267        4.295       10.107       12.514       13.764       12.778      156.590      189.442      163.272        0.045        0.025       16.824       10.194        0.367      344.720       21.740      866.535
07/30/2014  07:44:00      -19.576        7.424        7.216        7.510        6.590       14.280       56.405       43.430      203.907        0.040        0.015       20.937        6.906        0.109      344.521       21.399      866.548
07/30/2014  07:45:00       -4.214       14.146        7.744       18.103       11.644       11.846      327.728      135.578      140.335        0.044        0.030       14.761        7.394        0.251      344.692       21.692      866.558
07/30/2014  07:46:00       21.855       54.082        3.049       23.679       32.198       20.954      560.678     1036.693      439.091        0.272        0.102       58.331       17.598        0.091      344.797       21.872      866.578
07/30/2014  07:47:00       86.069       42.720        8.208       48.002       28.168       24.636     2304.168      793.443      606.928        0.650        0.185       96.088       18.922        0.039      344.629       21.584      866.591
07/30/2014  07:48:00      122.639       76.597       -2.094       43.089       29.224       32.027     1856.669      854.036     1025.731        1.232        0.187      144.594       22.119        0.023      344.384       21.164      866.600
07/30/2014  07:49:00       85.801       76.217       -1.688       35.150       32.020       23.674     1235.519     1025.308      560.477        0.800        0.141      114.764       13.760        0.014      344.387       21.169      866.608
07/30/2014  07:50:00       33.150       55.932        8.958       31.461       40.532       30.396      989.769     1642.812      923.945        0.393        0.178       65.018       21.075        0.105      344.589       21.515      866.606
07/30/2014  07:51:00       47.403       25.457        4.332       39.944       39.528       28.003     1595.556     1562.472      784.159        0.343        0.197       53.806       13.119        0.059      344.603       21.539      866.606
07/30/2014  07:52:00       18.428       28.390        7.195       34.259       22.723       22.406     1173.711      516.335      502.014        0.169        0.110       33.846       20.110        0.353      344.998       22.216      866.602
07/30/2014  07:53:00       28.666       30.112       27.073       35.935       24.448       17.479     1291.333      597.696      305.512        0.233        0.110       41.575       12.987        0.098      345.066       22.333      866.590
07/30/2014  07:54:00        5.923      -27.798       31.412       16.843       27.421       20.581      283.672      751.897      423.596        0.163        0.073       28.422       16.566        0.340      345.103       22.393      866.578
07/30/2014  07:55:00       11.641       22.293       37.683       20.406       21.793       17.264      416.418      474.925      298.035        0.162        0.059       25.149       12.148        0.233      345.086       22.366      866.572
07/30/2014  07:56:00       13.067       39.787       -7.006       17.490       13.228       12.599      305.892      174.979      158.735        0.122        0.032       41.878        7.989        0.036      344.602       21.537      866.569
07/30/2014  07:57:00       26.718       47.722       19.075       20.798       29.993       19.059      432.576      899.596      363.253        0.252        0.085       54.692       19.760        0.131      344.684       21.678      866.558
07/30/2014  07:58:00       54.882       46.250       36.083       34.660       31.554       23.612     1201.303      995.671      557.526        0.460        0.138       71.771       18.482        0.066      344.859       21.977      866.560
07/30/2014  07:59:00       68.691       62.915       19.491       42.708       30.237       34.590     1823.980      914.304     1196.482        0.649        0.197       93.149       19.282        0.043      344.749       21.789      866.563
07/30/2014  08:00:00       60.058       48.355        6.008       49.260       26.550       22.196     2426.521      704.883      492.642        0.480        0.181       77.105       20.693        0.072      344.836       21.937      866.566
07/30/2014  08:01:00       59.094       57.150       12.323       25.646       28.439       27.124      657.717      808.792      735.709        0.456        0.110       82.209       22.903        0.078      344.809       21.891      866.570
07/30/2014  08:02:00       54.130       30.553      -10.474       17.867       14.766       15.021      319.214      218.041      225.635        0.237        0.038       62.158        9.497        0.023      344.538       21.428      866.557
07/30/2014  08:03:00       26.082       43.179       27.095       23.346       26.429       17.563      545.040      698.502      308.474        0.242        0.078       50.445        8.476        0.028      344.965       22.159      866.550
07/30/2014  08:04:00       47.217       32.034       15.058       29.724       22.609       21.779      883.524      511.172      474.343        0.268        0.093       57.058       15.627        0.075      344.982       22.187      866.537
07/30/2014  08:05:00       73.990       46.344        4.668       46.200       28.414       25.921     2134.449      807.375      671.901        0.563        0.181       87.306       25.433        0.085      344.862       21.982      866.528
07/30/2014  08:06:00       71.407       53.656       14.855       41.079       35.453       33.077     1687.478     1256.890     1094.078        0.612        0.202       89.319       22.920        0.066      344.940       22.116      866.525
07/30/2014  08:07:00      108.295       85.939       20.594       34.928       30.459       26.906     1219.933      927.731      723.953        1.120        0.144      138.251       23.310        0.028      344.764       21.813      866.512
07/30/2014  08:08:00       45.164       34.421       39.409       41.957       39.842       23.534     1760.431     1587.353      553.866        0.434        0.195       56.786       19.435        0.117      345.185       22.535      866.511
07/30/2014  08:09:00       52.831       15.595       40.023       35.305       35.417       20.736     1246.442     1254.394      429.987        0.378        0.147       55.084       16.281        0.087      345.183       22.532      866.509
07/30/2014  08:10:00       31.006       10.053       27.128       28.639       22.766       26.145      820.204      518.277      683.550        0.191        0.101       32.596        9.025        0.077      345.349       22.816      866.507
07/30/2014  08:11:00       55.825       52.143        9.178       42.233       33.235       32.743     1783.620     1104.544     1072.091        0.494        0.198       76.389       16.873        0.049      345.284       22.704      866.493
07/30/2014  08:12:00        7.292       39.588        0.806       18.095       29.951       21.143      327.442      897.043      447.028        0.165        0.084       40.254       19.839        0.243      345.204       22.568      866.485
07/30/2014  08:13:00       16.648       18.381       31.969       21.863       20.092       19.970      477.972      403.704      398.809        0.146        0.064       24.799       12.493        0.254      345.601       23.249      866.478
07/30/2014  08:14:00       19.931       54.100        9.788       30.017       35.095       24.726      901.027     1231.645      611.354        0.308        0.137       57.655       22.522        0.153      345.287       22.712      866.467
07/30/2014  08:15:00       37.205       29.266        8.369       24.336       25.803       28.213      592.247      665.779      795.975        0.218        0.103       47.336       10.969        0.054      345.163       22.497      866.459
07/30/2014  08:16:00        3.080        8.170       14.465       18.059       14.487       15.615      326.133      209.879      243.841        0.053        0.039        8.731        6.841        0.614      345.574       23.202      866.452
07/30/2014  08:17:00      -37.118       44.185       -7.342       21.030       23.563       16.953      442.241      555.235      287.392        0.233        0.064       57.707       14.084        0.060      345.172       22.512      866.449
07/30/2014  08:18:00      -10.208       31.106        2.298       15.423       27.038       18.157      237.866      731.075      329.661        0.119        0.065       32.738        6.711        0.042      345.497       23.069      866.455
07/30/2014  08:19:00      -27.875        6.415       13.957       17.009       12.308       10.233      289.294      151.499      104.724        0.078        0.027       28.603        8.961        0.098      345.393       22.892      866.442
07/30/2014  08:20:00      -22.459        9.563       28.838       16.449       10.325       11.203      270.559      106.606      125.506        0.096        0.025       24.411        7.659        0.098      345.647       23.327      866.440
07/30/2014  08:21:00      -27.511        6.759        9.650       21.237        9.374       13.477      450.999       87.874      181.630        0.081        0.036       28.329       15.422        0.296      345.463       23.012      866.435
07/30/2014  08:22:00       17.863       25.483       -3.007       11.671       12.700       23.528      136.220      161.296      553.546        0.091        0.043       31.120        8.572        0.076      345.435       22.964      866.429
07/30/2014  08:23:00        6.041       31.162       -3.727       17.586       24.118       22.049      309.281      581.697      486.139        0.120        0.069       31.742        8.425        0.070      345.800       23.590      866.431
07/30/2014  08:24:00       -5.435       12.713       22.343       16.560       19.774       18.001      274.228      391.029      324.048        0.084        0.049       13.826       10.433        0.569      346.358       24.549      866.424
07/30/2014  08:25:00      -22.132      -11.626       10.668       18.003       16.258       14.806      324.122      264.337      219.224        0.077        0.040       24.999       10.659        0.182      345.496       23.068      866.422
07/30/2014  08:26:00      -13.884       -5.826       11.888       13.563       13.381       16.206      183.968      179.049      262.650        0.050        0.031       15.057       10.020        0.443      346.093       24.092      866.421
07/30/2014  08:27:00      -14.454       -2.072       19.164       11.628       13.601       15.288      135.215      184.977      233.729        0.057        0.028       14.602        6.271        0.184      346.295       24.441      866.419
07/30/2014  08:28:00       -3.310      -16.540       31.490       23.358       23.342       19.490      545.617      544.856      379.869        0.137        0.074       16.868       16.412        0.947      346.318       24.479      866.413
07/30/2014  08:29:00       16.495       -4.453       35.272       26.508       36.058       32.501      702.656     1300.181     1056.298        0.230        0.153       17.086       29.537        2.989      346.440       24.691      866.409
07/30/2014  08:30:00       -0.326       -0.114       45.753       23.327       38.815       28.283      544.152     1506.591      799.944        0.247        0.143        0.345       24.386     4989.902      346.483       24.764      866.403
07/30/2014  08:31:00       13.410       -4.714       28.575       24.990       23.250       28.988      624.519      540.543      840.280        0.151        0.100       14.214       16.912        1.416      346.294       24.438      866.408
07/30/2014  08:32:00       49.300      -29.622       15.637       39.358       50.196       42.548     1549.051     2519.674     1810.316        0.471        0.294       57.515       39.203        0.465      346.359       24.550      866.396
07/30/2014  08:33:00       35.186      -53.720       13.125       31.162       52.912       36.032      971.068     2799.725     1298.313        0.468        0.253       64.217       35.165        0.300      346.032       23.989      866.392
07/30/2014  08:34:00        3.047        7.049       53.268       28.291       51.778       30.080      800.354     2680.922      904.779        0.364        0.219        7.679       35.108       20.901      346.419       24.653      866.382
07/30/2014  08:35:00       13.672       56.982       70.853       38.499       40.179       30.422     1482.159     1614.315      925.497        0.624        0.201       58.599       31.168        0.283      346.326       24.492      866.380
07/30/2014  08:36:00       36.539       18.894       17.317       44.076       41.357       33.182     1942.728     1710.362     1101.070        0.337        0.238       41.135       32.003        0.605      346.050       24.017      866.379
07/30/2014  08:37:00       51.590       64.478       43.040       36.267       23.577       35.599     1315.279      555.872     1267.260        0.590        0.157       82.577       28.243        0.117      345.962       23.869      866.379
07/30/2014  08:38:00       83.202       25.539       11.955       34.849       32.748       43.045     1214.466     1072.453     1852.878        0.593        0.207       87.033       13.696        0.025      345.875       23.718      866.384
07/30/2014  08:39:00       24.524       45.854       28.139       23.247       27.318       17.798      540.445      746.279      316.786        0.255        0.080       52.001        9.590        0.034      346.195       24.268      866.378
07/30/2014  08:40:00       -1.415       17.319       52.711       22.200       29.369       16.407      492.855      862.561      269.182        0.235        0.081       17.377       14.394        0.686      346.908       25.494      866.369
07/30/2014  08:41:00       10.599       16.431       28.295       18.349       27.981       17.258      336.675      782.961      297.832        0.130        0.071       19.552       11.145        0.325      346.639       25.032      866.373
07/30/2014  08:42:00      -11.880       30.612       17.818       20.960       35.046       20.829      439.333     1228.189      433.867        0.175        0.105       32.836       20.539        0.391      346.636       25.027      866.370
07/30/2014  08:43:00       -6.802      -17.598       21.028       15.412       18.437       13.960      237.528      339.936      194.883        0.079        0.039       18.866        9.195        0.238      346.741       25.209      866.357
07/30/2014  08:44:00       27.300       -3.904       39.453       33.382       30.210       21.642     1114.389      912.641      468.368        0.241        0.125       27.578       13.680        0.246      346.690       25.121      866.358
07/30/2014  08:45:00       12.531        9.599        9.039       27.326       31.250       26.964      746.688      976.533      727.036        0.139        0.123       15.785       25.536        2.617      346.087       24.083      866.345
07/30/2014  08:46:00       33.301       31.847       12.007       17.099       11.719       21.249      292.390      137.339      451.529        0.157        0.044       46.078       11.247        0.060      345.947       23.842      866.348
07/30/2014  08:47:00        8.799       44.392        8.672       25.741       29.091       25.341      662.604      846.269      642.186        0.214        0.108       45.255       16.285        0.129      346.247       24.356      866.342
07/30/2014  08:48:00       -0.198       20.094       32.144       14.676       28.455       23.588      215.392      809.712      556.394        0.151        0.079       20.095       15.310        0.580      346.926       25.526      866.341
07/30/2014  08:49:00       -1.845       19.929        7.605       21.594       20.661       20.520      466.281      426.898      421.088        0.089        0.066       20.014       16.355        0.668      346.920       25.518      866.343
07/30/2014  08:50:00      -10.358       29.097       -8.361       15.605       24.456       24.554      243.513      598.073      602.897        0.123        0.072       30.886       16.384        0.281      346.680       25.104      866.337
07/30/2014  08:51:00       14.857       21.936       31.066       25.852       20.565       16.463      668.341      422.920      271.043        0.151        0.068       26.494       12.779        0.233      347.294       26.159      866.345
07/30/2014  08:52:00       -8.611       10.155       22.384       24.210       20.265       13.954      586.140      410.687      194.705        0.093        0.060       13.315        7.573        0.323      346.936       25.543      866.346
07/30/2014  08:53:00      -13.989      -11.672       19.512       26.120       20.009       18.958      682.231      400.348      359.416        0.108        0.072       18.219       17.209        0.892      346.617       24.994      866.352
07/30/2014  08:54:00       38.354       14.410       42.715       29.733       35.837       28.823      884.062     1284.287      830.751        0.325        0.150       40.971       17.974        0.192      347.018       25.684      866.351
07/30/2014  08:55:00      -10.449       21.471       57.803       15.241       33.167       19.914      232.294     1100.070      396.566        0.282        0.086       23.878       19.690        0.680      347.359       26.270      866.350
07/30/2014  08:56:00      -15.880       11.174       35.100       17.300       17.650       19.347      299.286      311.539      374.322        0.130        0.049       19.417       11.607        0.357      347.571       26.638      866.362
07/30/2014  08:57:00      -34.080       -1.707       17.529       35.977       36.186       21.081     1294.325     1309.458      444.408        0.226        0.152       34.123       23.136        0.460      346.679       25.100      866.361
07/30/2014  08:58:00      -18.332      -42.674        7.420       21.203       31.851       19.971      449.555     1014.503      398.848        0.204        0.093       46.445       13.451        0.084      346.632       25.018      866.369
07/30/2014  08:59:00       -9.194        1.403       31.950       20.113       27.910       20.372      404.553      778.981      415.014        0.135        0.080        9.300       19.382        4.343      347.713       26.883      866.376
07/30/2014  09:00:00       39.282      -37.799       22.052       47.241       79.858       55.860     2231.721     6377.335     3120.331        0.759        0.586       54.515       57.643        1.118      346.924       25.521      866.377
07/30/2014  09:01:00       21.040       32.893       65.412       29.556       27.810       19.918      873.544      773.415      396.727        0.392        0.102       39.046       10.768        0.076      347.006       25.664      866.381
07/30/2014  09:02:00       27.796       40.430        0.370       19.813       16.620       18.161      392.536      276.217      329.819        0.170        0.050       49.063        5.790        0.014      346.378       24.582      866.373
07/30/2014  09:03:00       77.854       54.997       26.390       23.255       23.344       22.429      540.796      544.934      503.055        0.569        0.079       95.321       14.412        0.023      346.478       24.756      866.364
07/30/2014  09:04:00       73.217       44.982       11.977       29.143       17.110       29.448      849.316      292.739      867.193        0.477        0.100       85.931        7.716        0.008      346.369       24.567      866.354
07/30/2014  09:05:00       20.833       24.401       11.060       14.107       18.016       20.930      199.020      324.589      438.079        0.106        0.048       32.085        3.813        0.014      346.733       25.193      866.352
07/30/2014  09:06:00       -1.809        2.798       21.399       20.806       20.022       17.383      432.898      400.876      302.160        0.080        0.057        3.332        8.068        5.862      347.467       26.458      866.345
07/30/2014  09:07:00       30.449      -11.556       44.068       38.331       45.184       33.159     1469.262     2041.569     1099.492        0.381        0.231       32.568       27.742        0.726      346.950       25.567      866.330
07/30/2014  09:08:00       12.056       32.609        7.218       29.708       22.909       21.991      882.585      524.814      483.618        0.158        0.095       34.766       15.744        0.205      346.880       25.446      866.321
07/30/2014  09:09:00       41.463       23.367       47.326       40.601       25.544       24.110     1648.431      652.515      581.274        0.369        0.144       47.594       14.487        0.093      347.309       26.186      866.317
07/30/2014  09:10:00       11.931       43.845       45.886       37.510       39.357       20.380     1407.007     1548.948      415.334        0.377        0.169       45.439       15.657        0.119      347.059       25.753      866.316
07/30/2014  09:11:00        3.334       36.654       59.945       47.330       43.144       24.888     2240.114     1861.365      619.398        0.483        0.236       36.806       21.429        0.339      347.083       25.796      866.315
07/30/2014  09:12:00       -5.032       13.210       41.169       28.669       39.721       26.569      821.888     1577.759      705.918        0.250        0.155       14.136       22.389        2.508      347.335       26.230      866.306
07/30/2014  09:13:00       60.641       43.375       51.315       65.854       51.893       41.406     4336.770     2692.925     1714.424        0.847        0.437       74.557       43.483        0.340      347.222       26.036      866.313
07/30/2014  09:14:00       84.612       77.006       49.728       47.825       29.080       37.776     2287.196      845.626     1427.054        1.006        0.228      114.408       16.527        0.021      346.874       25.436      866.299
07/30/2014  09:15:00       80.282       66.390       38.151       44.688       29.953       32.264     1997.007      897.202     1040.998        0.812        0.197      104.177       24.982        0.058      346.762       25.242      866.299
07/30/2014  09:16:00       59.057       12.142        7.469       31.991       23.771       24.157     1023.418      565.061      583.577        0.293        0.109       60.292       19.083        0.100      346.675       25.093      866.299
07/30/2014  09:17:00       82.557       61.216       41.741       82.739       43.074       46.309     6845.778     1855.377     2144.548        1.157        0.542      102.776       48.232        0.220      346.950       25.567      866.284
07/30/2014  09:18:00       92.302       58.275        4.122       35.675       29.590       33.630     1272.731      875.558     1130.994        0.761        0.164      109.159       17.665        0.026      346.678       25.099      866.280
07/30/2014  09:19:00       27.405       32.661       24.506       39.910       34.529       26.362     1592.803     1192.250      694.931        0.295        0.174       42.635       23.865        0.313      347.252       26.086      866.267
07/30/2014  09:20:00       57.030      -42.676       12.919       61.659       58.229       45.076     3801.808     3390.577     2031.808        0.723        0.461       71.230       44.866        0.397      347.336       26.233      866.266
07/30/2014  09:21:00       30.225       36.249       85.822       43.013       46.275       27.410     1850.155     2141.398      751.333        0.717        0.237       47.197       23.612        0.250      347.423       26.383      866.255
07/30/2014  09:22:00       13.433       -0.323       45.736       29.487       48.882       46.133      869.507     2389.462     2128.227        0.383        0.269       13.437       40.654        9.154      347.318       26.199      866.253
07/30/2014  09:23:00        8.642       59.509       88.314       32.089       43.603       23.644     1029.683     1901.189      559.056        0.745        0.174       60.133       22.907        0.145      347.319       26.203      866.238
07/30/2014  09:24:00       21.623      -21.342       21.843       27.824       51.343       40.758      774.157     2636.097     1661.215        0.323        0.254       30.382       38.620        1.616      346.996       25.646      866.233
07/30/2014  09:25:00      -22.399      -17.510       -0.251       18.228       13.163       16.111      332.267      173.253      259.567        0.079        0.038       28.431        6.637        0.054      346.712       25.157      866.219
07/30/2014  09:26:00      -43.725      -18.738       -9.569       13.258       22.536       10.646      175.766      507.875      113.341        0.158        0.040       47.571        7.755        0.027      346.664       25.074      866.210
07/30/2014  09:27:00      -13.371       -8.551       20.153       19.682       30.682       20.880      387.377      941.395      435.958        0.121        0.088       15.872        8.593        0.293      347.554       26.609      866.207
07/30/2014  09:28:00       -0.995        8.882       28.118       15.114       14.594       11.039      228.425      212.995      121.853        0.072        0.028        8.938        7.654        0.733      348.196       27.717      866.197
07/30/2014  09:29:00       38.323       50.913       20.301       34.805       24.033       29.820     1211.397      577.571      889.228        0.358        0.134       63.725       22.199        0.121      347.408       26.355      866.193
07/30/2014  09:30:00        0.448      -14.970       21.083       19.975       41.133       27.614      398.981     1691.948      762.549        0.176        0.143       14.977       12.215        0.665      347.762       26.966      866.181
07/30/2014  09:31:00       37.102       75.613       58.980       69.621       47.333       41.630     4847.021     2240.370     1733.026        0.969        0.441       84.225       20.981        0.062      347.406       26.352      866.175
07/30/2014  09:32:00       63.816       63.109       45.741       49.252       32.785       36.375     2425.773     1074.829     1323.138        0.748        0.241       89.751       26.883        0.090      347.233       26.053      866.179
07/30/2014  09:33:00       60.897       57.628       65.193       56.732       33.440       27.676     3218.576     1118.216      765.951        0.819        0.255       83.842       15.511        0.034      347.222       26.034      866.173
07/30/2014  09:34:00      113.077       64.408       20.170       30.699       23.000       29.099      942.414      529.002      846.731        0.983        0.116      130.134       15.701        0.015      346.814       25.333      866.178
07/30/2014  09:35:00       98.489       48.580        7.987       51.240       42.306       25.166     2625.571     1789.833      633.313        0.859        0.252      109.819       18.740        0.029      347.101       25.829      866.164
07/30/2014  09:36:00       21.598       23.611       37.043       38.908       43.110       33.668     1513.808     1858.431     1133.549        0.345        0.225       31.999       22.113        0.478      347.628       26.736      866.168
07/30/2014  09:37:00       18.247      -45.289        8.309       32.607       36.373       22.223     1063.218     1323.000      493.850        0.267        0.144       48.827       15.210        0.097      347.436       26.404      866.154
07/30/2014  09:38:00      -20.967        5.911       19.985       20.723       23.399       21.820      429.449      547.500      476.133        0.116        0.073       21.785       15.501        0.506      348.043       27.451      866.164
07/30/2014  09:39:00      -10.574       50.714       21.360       19.445       44.508       28.403      378.106     1980.996      806.749        0.315        0.158       51.805       28.649        0.306      348.164       27.660      866.154
07/30/2014  09:40:00        3.207       -2.318       29.412       39.791       35.450       30.707     1583.357     1256.682      942.915        0.233        0.189        3.957       27.296       47.587      348.007       27.389      866.159
07/30/2014  09:41:00        5.382       40.994       64.948       27.764       38.743       26.529      770.821     1501.002      703.811        0.445        0.149       41.346       19.082        0.213      348.275       27.853      866.151
07/30/2014  09:42:00       -0.950       10.039       29.881       26.891       45.132       23.470      723.123     2036.898      550.846        0.215        0.166       10.084       13.407        1.768      348.333       27.953      866.157
07/30/2014  09:43:00       11.634       -3.906       43.147       41.322       47.211       27.098     1707.532     2228.891      734.296        0.334        0.234       12.272       25.939        4.467      348.399       28.068      866.155
07/30/2014  09:44:00       16.357      -39.168       34.221       28.992       54.340       35.222      840.515     2952.878     1240.605        0.400        0.252       42.446       33.369        0.618      347.540       26.582      866.157
07/30/2014  09:45:00       20.790       -3.051       13.888       37.896       30.080       29.832     1436.104      904.785      889.976        0.193        0.162       21.012       30.538        2.112      347.734       26.918      866.151
07/30/2014  09:46:00       80.494       41.935       39.895       50.884       33.829       31.308     2589.140     1144.383      980.218        0.727        0.236       90.762       29.524        0.106      347.464       26.452      866.148
07/30/2014  09:47:00       98.008       44.966       11.777       66.867       45.677       37.621     4471.132     2086.430     1415.343        0.987        0.399      107.831       35.578        0.109      347.661       26.791      866.142
07/30/2014  09:48:00       55.998       39.837       21.691       48.075       34.797       32.094     2311.232     1210.821     1030.002        0.487        0.228       68.722       13.434        0.038      348.049       27.460      866.150
07/30/2014  09:49:00       15.701       31.548       37.881       25.599       31.303       26.684      655.312      979.884      712.041        0.251        0.117       35.239       13.863        0.155      348.354       27.990      866.136
07/30/2014  09:50:00       52.495       57.137       32.249       44.720       36.342       28.490     1999.893     1320.724      811.667        0.560        0.207       77.591       22.451        0.084      347.794       27.022      866.139
07/30/2014  09:51:00        6.957       42.315        8.321       32.422       34.911       27.133     1051.176     1218.807      736.186        0.246        0.150       42.883       20.354        0.225      348.111       27.570      866.132
07/30/2014  09:52:00       65.881       38.126       12.122       46.775       33.219       36.237     2187.903     1103.476     1313.109        0.527        0.230       76.117       33.159        0.190      347.843       27.108      866.134
07/30/2014  09:53:00       47.201       46.599        1.312       51.432       42.344       33.006     2645.295     1793.045     1089.380        0.496        0.276       66.328       28.256        0.181      347.812       27.054      866.132
07/30/2014  09:54:00       25.219       31.671       12.121       46.957       45.440       36.519     2204.957     2064.764     1333.652        0.369        0.280       40.485       30.949        0.584      348.304       27.903      866.134
07/30/2014  09:55:00       89.932       58.146       22.861       41.929       42.268       36.568     1758.039     1786.551     1337.214        0.844        0.244      107.092       17.497        0.027      347.753       26.950      866.131
07/30/2014  09:56:00        6.930       30.838       20.996       31.502       46.488       30.271      992.400     2161.156      916.341        0.275        0.203       31.607       21.468        0.461      348.307       27.909      866.133
07/30/2014  09:57:00        9.278       56.319       22.804       30.336       35.901       31.826      920.298     1288.896     1012.891        0.350        0.161       57.078       22.327        0.153      347.982       27.346      866.140
07/30/2014  09:58:00       54.500       53.626       14.509       29.372       22.584       36.063      862.739      510.028     1300.570        0.436        0.134       76.459       14.037        0.034      347.452       26.431      866.147
07/30/2014  09:59:00       42.655       39.058       30.572       41.246       25.832       20.993     1701.257      667.299      440.712        0.354        0.140       57.835       13.705        0.056      347.782       27.002      866.144
07/30/2014  10:00:00       70.202       52.392       54.994       53.842       52.460       40.678     2898.989     2752.062     1654.737        0.900        0.365       87.597       33.170        0.143      347.752       26.950      866.149
07/30/2014  10:01:00       79.085       24.285        8.546       28.722       33.029       30.448      824.952     1090.899      927.054        0.488        0.142       82.729        9.682        0.014      347.396       26.334      866.152
07/30/2014  10:02:00       79.767       45.920       10.865       71.492       37.249       37.432     5111.083     1387.504     1401.183        0.824        0.395       92.040       13.968        0.023      347.510       26.532      866.150
07/30/2014  10:03:00       84.448       71.989       -6.095       60.548       33.203       36.344     3666.063     1102.434     1320.863        0.922        0.304      110.968       32.542        0.086      347.573       26.641      866.140
07/30/2014  10:04:00       64.514       60.161       16.613       35.122       35.658       31.578     1233.575     1271.487      997.143        0.578        0.175       88.212       23.268        0.070      347.849       27.118      866.141
07/30/2014  10:05:00       74.254       71.379       36.255       59.810       37.329       53.320     3577.293     1393.473     2843.021        0.987        0.391      102.999       32.664        0.101      348.011       27.395      866.137
07/30/2014  10:06:00      102.646       94.358       66.502       78.465       60.461       52.565     6156.686     3655.551     2763.129        1.822        0.629      139.426       37.740        0.073      347.872       27.156      866.140
07/30/2014  10:07:00       56.533       18.634       62.167       45.581       76.744       40.524     2077.587     5889.660     1642.158        0.851        0.480       59.525       44.584        0.561      347.817       27.061      866.137
07/30/2014  10:08:00       68.582       81.748       52.292       53.186       38.430       45.120     2828.708     1476.888     2035.786        1.023        0.317      106.707       29.712        0.078      347.824       27.073      866.134
07/30/2014  10:09:00       67.766       76.859       58.121       40.005       42.529       38.233     1600.385     1808.748     1461.778        0.937        0.244      102.467       28.372        0.077      347.710       26.877      866.126
07/30/2014  10:10:00       34.860      -44.502       18.055       28.267       23.285       31.476      799.045      542.193      990.765        0.293        0.117       56.530       19.698        0.121      347.748       26.942      866.122
07/30/2014  10:11:00       37.468       20.068       60.154       46.801       56.248       38.626     2190.343     3163.871     1491.935        0.613        0.342       42.504       44.177        1.080      348.194       27.714      866.110
07/30/2014  10:12:00       13.848       -1.008       35.921       51.095       56.534       41.865     2610.750     3196.082     1752.688        0.452        0.378       13.885       39.414        8.058      348.038       27.443      866.107
07/30/2014  10:13:00      -33.366      -44.065        6.694       25.945       28.147       22.958      673.142      792.229      527.086        0.255        0.100       55.273       19.294        0.122      347.923       27.246      866.095
07/30/2014  10:14:00      -40.317       29.917       -1.536       27.173       30.937       25.693      738.366      957.120      660.156        0.244        0.118       50.205       16.524        0.108      347.797       27.027      866.089
07/30/2014  10:15:00      -22.198       21.539       25.281       19.440       19.073       30.650      377.931      363.775      939.396        0.164        0.084       30.930       12.618        0.166      348.679       28.553      866.080
07/30/2014  10:16:00      -51.683       29.856        9.851       25.150       17.163       18.960      632.547      294.557      359.498        0.247        0.064       59.686       16.172        0.073      347.915       27.231      866.083
07/30/2014  10:17:00       45.320       17.718       15.119       43.389       32.844       24.670     1882.616     1078.740      608.586        0.308        0.178       48.660       10.319        0.045      348.545       28.320      866.070
07/30/2014  10:18:00       24.127        5.736       28.140       31.257       47.373       25.911      977.003     2244.216      671.356        0.265        0.195       24.800       25.062        1.021      348.337       27.959      866.071
07/30/2014  10:19:00       14.966       50.344       59.892       35.971       27.203       28.316     1293.886      740.013      801.812        0.459        0.142       52.521       21.524        0.168      348.444       28.145      866.060
07/30/2014  10:20:00       19.010       32.367       43.012       43.208       31.510       38.887     1866.916      992.900     1512.234        0.381        0.219       37.537       29.706        0.626      348.333       27.952      866.064
07/30/2014  10:21:00       11.159       24.487       35.618       25.209       28.106       23.402      635.502      789.956      547.645        0.198        0.099       26.910       18.955        0.496      348.638       28.480      866.061
07/30/2014  10:22:00        5.027        5.435       15.798       24.167       26.268       24.725      584.045      689.990      611.340        0.109        0.094        7.404        9.091        1.508      348.789       28.742      866.064
07/30/2014  10:23:00       15.870        0.411        9.390       41.504       57.983       32.386     1722.551     3362.008     1048.854        0.324        0.307       15.875       20.169        1.614      348.539       28.310      866.051
07/30/2014  10:24:00       88.444       70.684       36.707       56.722       52.389       49.720     3217.377     2744.652     2472.113        1.130        0.422      113.219       27.816        0.060      348.417       28.097      866.055
07/30/2014  10:25:00       22.135       23.794       49.710       37.980       50.190       33.335     1442.460     2518.990     1111.215        0.430        0.254       32.498       18.294        0.317      348.813       28.783      866.044
07/30/2014  10:26:00       19.631       40.414       17.871       44.935       40.751       36.205     2019.157     1660.656     1310.830        0.366        0.250       44.930       29.283        0.425      348.814       28.786      866.048
07/30/2014  10:27:00       41.437       40.508       13.608       34.841       38.010       30.163     1213.865     1444.771      909.817        0.356        0.178       57.948       28.223        0.237      348.886       28.910      866.032
07/30/2014  10:28:00       49.213       50.276       31.390       38.691       41.493       33.170     1496.990     1721.670     1100.254        0.513        0.216       70.353       24.038        0.117      348.460       28.172      866.025
07/30/2014  10:29:00       46.251       25.685       14.853       43.990       21.275       21.702     1935.080      452.637      470.960        0.294        0.143       52.905       21.450        0.164      348.434       28.127      866.009
07/30/2014  10:30:00      -22.668       66.286        9.425       25.661       43.668       26.690      658.487     1906.893      712.359        0.414        0.164       70.055       21.033        0.090      348.564       28.353      866.001
07/30/2014  10:31:00        4.240       25.828       17.017       30.606       39.988       31.769      936.753     1599.021     1009.238        0.226        0.177       26.174       27.949        1.140      349.066       29.221      865.993
07/30/2014  10:32:00      130.977       77.414       35.795       72.782       64.309       47.475     5297.147     4135.621     2253.893        1.806        0.584      152.144       35.632        0.055      348.627       28.459      865.977
07/30/2014  10:33:00       89.632       60.273       24.814       72.073       62.162       48.465     5194.472     3864.064     2348.828        1.184        0.570      108.012       23.735        0.048      348.542       28.315      865.979
07/30/2014  10:34:00       66.842       31.988       22.963       44.131       50.846       32.970     1947.577     2585.330     1086.995        0.582        0.281       74.102       21.683        0.086      348.750       28.674      865.981
07/30/2014  10:35:00       38.033      -19.611       31.971       65.565       60.130       40.554     4298.814     3615.608     1644.630        0.620        0.478       42.791       25.303        0.350      348.625       28.459      865.997
07/30/2014  10:36:00       31.595       18.277       47.329       41.003       38.920       35.602     1681.254     1514.779     1267.536        0.402        0.223       36.501       29.338        0.646      348.778       28.722      865.999
07/30/2014  10:37:00       40.105       54.475       71.057       44.019       49.760       39.302     1937.648     2476.054     1544.679        0.779        0.298       67.646       35.648        0.278      348.455       28.163      866.005
07/30/2014  10:38:00       84.675      114.684       94.619       81.271       53.786       46.840     6604.959     2892.884     2193.980        2.048        0.585      142.556       42.871        0.090      348.183       27.691      866.003
07/30/2014  10:39:00       82.323       82.494       80.302       71.195       55.923       46.566     5068.680     3127.357     2168.431        1.520        0.518      116.544       32.660        0.079      348.174       27.677      866.011
07/30/2014  10:40:00      109.399       84.514        1.008       58.856       44.599       41.039     3464.057     1989.070     1684.180        1.312        0.357      138.241       26.050        0.036      348.054       27.469      866.010
07/30/2014  10:41:00      -12.617      118.791       -3.242       32.290       53.359       29.643     1042.636     2847.140      878.726        0.952        0.238      119.459       27.810        0.054      348.386       28.045      865.997
07/30/2014  10:42:00       -8.734       37.770       14.600       33.279       46.864       35.237     1107.489     2196.242     1241.636        0.313        0.227       38.767       33.721        0.757      349.007       29.119      865.991
07/30/2014  10:43:00      -10.361       30.659        8.143       27.818       45.905       23.843      773.843     2107.278      568.474        0.228        0.172       32.362       18.300        0.320      348.677       28.547      865.991
07/30/2014  10:44:00      -47.062       14.727        4.164       20.291       22.849       19.871      411.709      522.065      394.840        0.189        0.066       49.312       15.904        0.104      348.501       28.243      865.983
07/30/2014  10:45:00       -9.260       17.043       11.423       32.709       19.966       21.441     1069.867      398.627      459.734        0.122        0.096       19.397       13.490        0.484      348.954       29.028      865.972
07/30/2014  10:46:00       50.017       39.700       17.479       46.836       32.234       36.526     2193.623     1039.036     1334.151        0.447        0.228       63.858       21.304        0.111      349.027       29.154      865.968
07/30/2014  10:47:00      109.971       71.032       55.611       65.460       64.384       44.963     4284.957     4145.238     2021.654        1.534        0.523      130.917       26.558        0.041      349.041       29.178      865.956
07/30/2014  10:48:00      134.994       93.654       33.617       58.331       35.683       43.840     3402.552     1273.309     1921.938        1.736        0.330      164.300       31.367        0.036      348.749       28.671      865.948
07/30/2014  10:49:00      123.912       84.206       11.848       64.718       43.198       41.504     4188.360     1866.101     1722.579        1.518        0.389      149.816       24.301        0.026      348.553       28.332      865.936
07/30/2014  10:50:00       45.692       31.762        8.214       63.575       46.283       37.509     4041.748     2142.079     1406.922        0.538        0.380       55.647       24.310        0.191      348.791       28.745      865.925
07/30/2014  10:51:00       -9.834       38.801       -5.760       22.612       50.366       21.985      511.305     2536.723      483.339        0.258        0.177       40.027       28.114        0.493      348.739       28.656      865.912
07/30/2014  10:52:00      -12.110      -10.383       19.423       26.372       34.160       28.960      695.487     1166.881      838.710        0.167        0.135       15.952       12.526        0.617      349.144       29.356      865.890
07/30/2014  10:53:00       57.883       36.728       10.277       35.363       78.539       38.795     1250.571     6168.309     1505.084        0.686        0.446       68.552       19.295        0.079      348.825       28.805      865.886
07/30/2014  10:54:00       76.458       51.755        2.403       47.663       64.264       40.760     2271.742     4129.829     1661.399        0.829        0.403       92.328       16.120        0.030      348.664       28.526      865.872
07/30/2014  10:55:00      -20.242      -26.887       -4.636       28.708       37.111       25.827      824.135     1377.202      667.009        0.201        0.143       33.655       23.864        0.503      348.730       28.640      865.857
07/30/2014  10:56:00       12.971       -0.833       -1.967       30.342       39.575       31.034      920.667     1566.185      963.128        0.181        0.172       12.998       22.977        3.125      349.122       29.319      865.836
07/30/2014  10:57:00      -13.900       -1.044       20.891       35.749       34.795       25.803     1277.986     1210.695      665.774        0.189        0.158       13.939       27.488        3.889      349.310       29.645      865.837
07/30/2014  10:58:00      -36.904      -19.902        2.898       29.372       25.588       21.140      862.733      654.734      446.889        0.186        0.098       41.928       14.355        0.117      348.959       29.036      865.817
07/30/2014  10:59:00      -42.267      -18.873       -9.091       24.380       14.154       14.336      594.402      200.330      205.508        0.161        0.050       46.289       11.283        0.059      348.741       28.659      865.809
07/30/2014  11:00:00      -31.642       -9.610       15.460       20.861       22.485       19.184      435.190      505.553      368.041        0.132        0.065       33.069       18.543        0.314      349.265       29.568      865.791
07/30/2014  11:01:00      -19.778       11.806       32.735       33.204       27.611       22.075     1102.534      762.356      487.312        0.198        0.118       23.034       13.567        0.347      349.657       30.248      865.780
07/30/2014  11:02:00       15.869      -55.365        1.408       61.885       44.274       29.231     3829.784     1960.211      854.427        0.498        0.332       57.594       12.579        0.048      349.097       29.276      865.775
07/30/2014  11:03:00       16.656      -25.809       20.617       22.045       24.176       23.536      485.985      584.475      553.931        0.150        0.081       30.717       14.333        0.218      349.782       30.464      865.763
07/30/2014  11:04:00      -69.797      -17.094        4.018       44.280       46.699       37.554     1960.695     2180.767     1410.328        0.536        0.278       71.860       23.860        0.110      349.187       29.430      865.755
07/30/2014  11:05:00       29.474        5.673       11.459       64.617       56.140       47.885     4175.374     3151.726     2292.966        0.532        0.481       30.015       25.741        0.736      349.507       29.986      865.760
07/30/2014  11:06:00       55.692        4.642       48.309       56.466       81.691       51.922     3188.420     6673.462     2695.940        0.900        0.628       55.886       44.562        0.636      349.300       29.627      865.739
07/30/2014  11:07:00       84.271       39.982       54.504      101.089       78.675       62.075    10219.083     6189.793     3853.353        1.596        1.013       93.275       51.517        0.305      349.288       29.605      865.729
07/30/2014  11:08:00      148.507     -148.705      -10.413       92.138      117.949       62.299     8489.336    13911.997     3881.196        3.527        1.314      210.160       75.492        0.129      349.123       29.319      865.723
07/30/2014  11:09:00       82.160     -196.822      -11.565       61.294       41.628       37.236     3757.004     1732.860     1386.537        2.625        0.344      213.282       27.117        0.016      348.659       28.514      865.750
07/30/2014  11:10:00       29.665      -35.977       59.950       52.652      137.474       82.164     2772.264    18899.145     6750.990        1.709        1.421       46.630      102.531        4.835      349.039       29.174      865.746
07/30/2014  11:11:00       54.955       58.998       69.185       60.251       50.017       38.065     3630.188     2501.662     1448.958        0.943        0.379       80.628       32.571        0.163      349.152       29.371      865.765
07/30/2014  11:12:00       54.975      -52.197       23.814       60.194       73.984       52.694     3623.352     5473.672     2776.658        0.909        0.594       75.808       44.819        0.350      349.439       29.867      865.767
07/30/2014  11:13:00       45.783     -125.684      -15.373       72.760       94.290       58.735     5293.986     8890.642     3449.827        1.788        0.882      133.763       51.941        0.151      349.200       29.451      865.772
07/30/2014  11:14:00       67.610     -115.033      -13.863       49.348       66.601       54.665     2435.208     4435.671     2988.212        1.393        0.493      133.430       46.117        0.119      349.107       29.291      865.774
07/30/2014  11:15:00      -21.349      -88.332        0.668       57.387       77.334       37.055     3293.310     5980.594     1373.068        0.945        0.532       90.875       42.559        0.219      349.217       29.485      865.786
07/30/2014  11:16:00       15.339       32.644       72.419       54.560       57.656       50.984     2976.782     3324.166     2599.367        0.772        0.445       36.068       46.323        1.649      349.752       30.411      865.780
07/30/2014  11:17:00       59.431       22.919       41.151       61.179       85.924       58.471     3742.906     7382.877     3418.839        1.014        0.727       63.697       54.979        0.745      349.256       29.550      865.786
07/30/2014  11:18:00       27.733      -26.737       27.030       55.506       49.767       46.836     3080.921     2476.758     2193.636        0.498        0.388       38.523       36.361        0.891      349.561       30.080      865.770
07/30/2014  11:19:00       36.107      -30.291        5.511       24.610       32.095       37.920      605.666     1030.099     1437.942        0.266        0.154       47.130       32.972        0.489      349.009       29.124      865.748
07/30/2014  11:20:00       18.939       -4.488       -2.821       49.593       26.343       30.069     2459.451      693.952      904.146        0.222        0.203       19.463       19.191        0.972      349.136       29.344      865.727
07/30/2014  11:21:00       16.075       70.378       81.526       31.656       45.026       23.625     1002.109     2027.344      558.140        0.772        0.179       72.191       17.717        0.060      349.516       30.002      865.723
07/30/2014  11:22:00       33.597      -15.505       42.804       64.175       84.937       46.376     4118.431     7214.319     2150.777        0.834        0.674       37.002       41.330        1.248      349.466       29.916      865.708
07/30/2014  11:23:00       94.622      105.190       91.910       86.752       58.486       69.078     7525.937     3420.628     4771.765        2.209        0.786      141.486       47.171        0.111      349.538       30.039      865.698
07/30/2014  11:24:00      127.911      104.550       61.463      135.398       79.410       60.050    18332.639     6305.972     3605.994        2.965        1.412      165.203       35.866        0.047      349.429       29.850      865.691
07/30/2014  11:25:00      240.498      158.368       88.235      122.687       91.402       67.601    15052.126     8354.383     4569.848        5.934        1.399      287.958       56.431        0.038      349.248       29.533      865.657
07/30/2014  11:26:00      126.008       69.386       95.290      104.785      102.899       64.616    10979.841    10588.292     4175.263        2.775        1.287      143.848       64.503        0.201      349.552       30.061      865.672
07/30/2014  11:27:00       60.044      -23.078       35.825       68.997       83.698       58.050     4760.544     7005.412     3369.840        1.028        0.757       64.327       56.998        0.785      349.698       30.317      865.679
07/30/2014  11:28:00       75.336      -66.928       13.101       36.206       57.089       38.445     1310.852     3259.203     1478.047        0.819        0.302      100.771       28.297        0.079      349.347       29.709      865.671
07/30/2014  11:29:00       46.655       20.586       74.064       51.739       80.947       56.861     2676.951     6552.399     3233.210        1.027        0.623       50.995       63.515        1.551      349.486       29.948      865.660
07/30/2014  11:30:00       51.575      -32.544       44.201       69.693       98.680       46.347     4857.079     9737.776     2148.006        1.120        0.837       60.985       61.779        1.026      349.490       29.957      865.639
07/30/2014  11:31:00       68.488     -136.116        3.575       73.734       87.685       53.638     5436.771     7688.585     2876.997        1.961        0.800      152.375       43.242        0.081      349.459       29.902      865.621
07/30/2014  11:32:00      120.345      111.215       70.094       83.225       64.432       71.077     6926.390     4151.501     5051.925        2.394        0.806      163.864       55.809        0.116      349.357       29.724      865.625
07/30/2014  11:33:00       97.390      129.300      112.105       88.431       66.101       62.321     7820.061     4369.320     3883.948        2.742        0.804      161.874       56.359        0.121      349.379       29.762      865.620
07/30/2014  11:34:00       73.398       23.405       21.718       83.214       84.034       51.247     6924.619     7061.789     2626.219        1.151        0.831       77.039       30.698        0.159      349.383       29.770      865.598
07/30/2014  11:35:00       39.591       83.697       83.837       60.060       60.759       45.061     3607.202     3691.669     2030.475        1.246        0.466       92.589       27.070        0.085      349.930       30.719      865.595
07/30/2014  11:36:00       31.447       58.316       65.853       50.276       40.656       47.863     2527.673     1652.945     2290.880        0.760        0.324       66.254       31.587        0.227      349.450       29.887      865.602
07/30/2014  11:37:00       75.223       75.083       31.815       47.622       34.228       33.816     2267.891     1171.546     1143.520        0.844        0.229      106.282       22.720        0.046      349.300       29.626      865.596
07/30/2014  11:38:00       32.810       54.813       15.076       63.332       38.123       31.845     4010.966     1453.385     1014.081        0.539        0.324       63.883        7.107        0.012      349.544       30.051      865.579
07/30/2014  11:39:00        9.271       32.467        6.398       28.534       35.467       26.045      814.171     1257.934      678.324        0.197        0.138       33.765       23.203        0.472      349.740       30.391      865.570
07/30/2014  11:40:00       59.287       78.021       71.812       85.052       54.502       40.505     7233.847     2970.474     1640.662        1.330        0.592       97.991       19.244        0.039      349.821       30.531      865.556
07/30/2014  11:41:00       92.374       78.733        1.022       69.479       35.286       36.661     4827.384     1245.131     1344.021        1.107        0.371      121.375       11.503        0.009      349.179       29.415      865.546
07/30/2014  11:42:00       12.287       51.133        2.580       24.750       52.496       33.420      612.575     2755.882     1116.919        0.363        0.224       52.588       36.170        0.473      349.701       30.323      865.525
07/30/2014  11:43:00       46.573       32.317       17.372       37.448       30.696       26.457     1402.387      942.226      699.961        0.328        0.152       56.687       19.322        0.116      349.998       30.839      865.517
07/30/2014  11:44:00       76.441       56.150        7.739       59.688       60.929       41.924     3562.689     3712.360     1757.660        0.904        0.452       94.847       30.710        0.105      349.853       30.587      865.500
07/30/2014  11:45:00       17.419      -59.640       38.746       42.032       72.706       44.221     1766.685     5286.143     1955.454        0.718        0.450       62.132       37.668        0.368      349.760       30.426      865.481
07/30/2014  11:46:00       68.413       32.895       26.190       57.566       66.012       32.090     3313.835     4357.642     1029.759        0.757        0.435       75.910       31.728        0.175      349.541       30.044      865.481
07/30/2014  11:47:00        5.747      135.713      -17.979       37.711       70.367       28.765     1422.143     4951.535      827.417        1.299        0.360      135.835       34.765        0.066      349.401       29.801      865.500
07/30/2014  11:48:00      -34.304      115.240        5.778       92.773       80.100       56.035     8606.739     6415.979     3139.896        1.632        0.908      120.237       52.016        0.187      349.581       30.115      865.479
07/30/2014  11:49:00       36.645       40.002       14.429       67.404       92.516       44.448     4543.267     8559.130     1975.595        0.911        0.754       54.250       41.639        0.589      349.675       30.277      865.465
07/30/2014  11:50:00      154.501       84.779       35.937       81.334       58.040       52.906     6615.278     3368.644     2799.000        2.256        0.639      176.232       46.987        0.071      349.504       29.980      865.463
07/30/2014  11:51:00      117.610       69.466       36.474       71.211       54.758       46.450     5071.046     2998.476     2157.635        1.511        0.511      136.593       30.728        0.051      349.552       30.063      865.468
07/30/2014  11:52:00       14.652       24.348        1.815       35.454       41.170       32.902     1256.981     1694.985     1082.519        0.242        0.202       28.417       22.232        0.612      349.653       30.239      865.457
07/30/2014  11:53:00       12.202      -43.770       35.070       31.048       90.492       35.236      963.984     8188.729     1241.596        0.684        0.520       45.439       38.911        0.733      349.806       30.506      865.454
07/30/2014  11:54:00       26.640       -0.212       39.147       49.272       44.120       36.351     2427.770     1946.554     1321.416        0.397        0.285       26.641       28.848        1.173      349.569       30.094      865.456
07/30/2014  11:55:00       35.320        5.930       37.223       40.344       74.788       45.089     1627.616     5593.212     2033.005        0.596        0.463       35.815       49.401        1.903      349.429       29.851      865.458
07/30/2014  11:56:00       22.878      -10.327       25.881       30.804       40.190       29.701      948.911     1615.270      882.176        0.237        0.172       25.100       22.947        0.836      349.319       29.659      865.458
07/30/2014  11:57:00       12.061       18.504       27.890       27.108       19.989       23.450      734.827      399.550      549.900        0.147        0.084       22.088       17.113        0.600      349.355       29.724      865.455
07/30/2014  11:58:00        2.808        1.865       21.856       13.730        8.533       10.276      188.500       72.806      105.606        0.043        0.018        3.371        7.315        4.708      349.503       29.979      865.448
07/30/2014  11:59:00        4.860       -3.765        5.321       17.666       12.463       16.092      312.077      155.318      258.956        0.040        0.036        6.148        9.587        2.432      349.281       29.594      865.445
07/30/2014  12:00:00       11.137        9.312        5.071       13.956       10.167       13.907      194.769      103.367      193.417        0.036        0.025       14.517        7.289        0.252      349.326       29.671      865.444
07/30/2014  12:01:00       30.869       19.148       -4.973       29.470       22.076       20.321      868.509      487.333      412.957        0.156        0.088       36.326        9.187        0.064      348.965       29.045      865.450
07/30/2014  12:02:00      109.488       55.648       18.226       58.054       41.733       33.799     3370.301     1741.656     1142.381        1.083        0.313      122.819       13.945        0.013      349.010       29.124      865.441
07/30/2014  12:03:00      107.808       41.900        3.272       63.451       50.604       34.223     4025.984     2560.780     1171.239        1.057        0.388      115.664       22.797        0.039      349.230       29.505      865.427
07/30/2014  12:04:00       71.575       44.994       27.565       58.559       38.689       35.414     3429.155     1496.821     1254.150        0.704        0.309       84.542       26.601        0.099      349.371       29.750      865.418
07/30/2014  12:05:00      130.170      104.274       70.699      102.058       60.642       52.931    10415.797     3677.456     2801.697        2.485        0.845      166.785       60.991        0.134      349.237       29.515      865.406
07/30/2014  12:06:00       76.498       78.716       60.529       68.348       47.554       35.181     4671.499     2261.370     1237.681        1.194        0.409      109.764       23.088        0.044      349.355       29.722      865.405
07/30/2014  12:07:00      110.133       95.942       21.171       46.343       38.132       36.079     2147.702     1454.082     1301.692        1.334        0.245      146.062       28.426        0.038      349.265       29.565      865.410
07/30/2014  12:08:00      122.385       69.554       27.240       59.501       64.860       42.892     3540.313     4206.828     1839.752        1.507        0.479      140.769       29.830        0.045      349.344       29.702      865.418
07/30/2014  12:09:00       65.447       43.683       20.518       35.824       40.362       33.810     1283.385     1629.085     1143.120        0.533        0.203       78.686       21.000        0.071      349.339       29.693      865.422
07/30/2014  12:10:00       27.585       -2.802       18.817       26.303       22.872       11.275      691.855      523.116      127.123        0.123        0.067       27.727        8.641        0.097      349.371       29.750      865.416
07/30/2014  12:11:00       72.519       43.237       17.814       61.453       33.755       31.198     3776.419     1139.428      973.331        0.667        0.294       84.430       18.555        0.048      349.280       29.592      865.412
07/30/2014  12:12:00      100.419       62.491        8.428       54.508       41.979       36.251     2971.078     1762.276     1314.158        1.005        0.302      118.275       34.295        0.084      349.301       29.629      865.419
07/30/2014  12:13:00       92.018       66.453       18.015       53.428       34.822       26.721     2854.564     1212.544      713.995        0.899        0.239      113.505       20.595        0.033      349.324       29.668      865.406
07/30/2014  12:14:00       81.738       47.290       14.288       41.886       29.438       23.716     1754.420      866.601      562.446        0.615        0.159       94.432       13.721        0.021      349.299       29.625      865.400
07/30/2014  12:15:00       40.455       30.867       15.244       46.596       28.237       27.024     2171.192      797.302      730.284        0.326        0.185       50.886       20.884        0.168      349.468       29.919      865.395
07/30/2014  12:16:00       52.982       47.355       15.069       52.208       33.773       23.905     2725.700     1140.605      571.449        0.486        0.222       71.061       12.674        0.032      349.433       29.858      865.375
07/30/2014  12:17:00       47.868       46.203       10.829       41.813       38.741       30.770     1748.298     1500.862      946.789        0.437        0.210       66.529       24.556        0.136      349.349       29.711      865.359
07/30/2014  12:18:00       -2.463       99.491       -6.485       25.681       36.514       22.361      659.518     1333.290      499.994        0.622        0.125       99.521       20.927        0.044      349.250       29.538      865.349
07/30/2014  12:19:00      -46.612       53.082       -6.159       28.784       28.583       18.158      828.530      817.009      329.698        0.350        0.099       70.643       15.661        0.049      349.171       29.403      865.328
07/30/2014  12:20:00      -69.717       20.645       -6.939       17.759       26.894       13.067      315.381      723.298      170.755        0.327        0.060       72.709        7.388        0.010      349.082       29.248      865.313
07/30/2014  12:21:00      -49.354       34.071       -5.006       25.165       31.170       21.106      633.255      971.597      445.479        0.284        0.103       59.972       11.526        0.037      349.228       29.501      865.292
07/30/2014  12:22:00      -52.741      -30.602       -4.937       31.188       32.682       19.244      972.694     1068.122      370.346        0.308        0.121       60.976        8.996        0.022      349.174       29.409      865.270
07/30/2014  12:23:00      -60.547      -50.277        1.989       32.388       19.915       14.271     1048.991      396.598      203.653        0.392        0.082       78.700        9.576        0.015      349.188       29.431      865.267
07/30/2014  12:24:00      -42.997       -5.749       -1.880       33.301       22.281       12.492     1108.973      496.444      156.049        0.182        0.088       43.379       14.005        0.104      349.220       29.489      865.251
07/30/2014  12:25:00      -66.277        9.648        1.262       15.214       18.355        8.938      231.471      336.914       79.884        0.257        0.032       66.975        4.325        0.004      349.173       29.404      865.241
07/30/2014  12:26:00      -68.715        4.488      -12.297       43.602       15.137       19.803     1901.174      229.125      392.142        0.371        0.126       68.861       23.537        0.117      349.302       29.631      865.240
07/30/2014  12:27:00       -3.228       17.857       13.850       12.563       16.761       15.158      157.831      280.916      229.750        0.059        0.033       18.147        9.233        0.259      349.730       30.373      865.223
07/30/2014  12:28:00       -3.139       12.351       28.038       14.347       17.561       12.042      205.833      308.379      145.017        0.080        0.033       12.744        8.041        0.398      349.739       30.387      865.221
07/30/2014  12:29:00       10.548        8.235       28.056       26.254       18.333       13.926      689.259      336.116      193.928        0.109        0.061       13.382       13.218        0.976      349.487       29.950      865.225
07/30/2014  12:30:00        9.792       10.373       26.787       13.410       11.393        8.637      179.834      129.793       74.600        0.065        0.019       14.265        4.470        0.098      349.596       30.140      865.212
07/30/2014  12:31:00        2.541        6.765       13.130       17.526       19.531       17.153      307.174      381.457      294.220        0.060        0.049        7.227       16.707        5.344      349.635       30.208      865.210
07/30/2014  12:32:00       22.666       10.333       12.552       17.006       13.767       14.558      289.202      189.537      211.939        0.073        0.035       24.910       10.971        0.194      349.534       30.033      865.210
07/30/2014  12:33:00       13.816       17.373       14.968       33.260       16.324       25.699     1106.234      266.478      660.442        0.137        0.102       22.197       18.397        0.687      349.546       30.054      865.197
07/30/2014  12:34:00       32.269       16.742       15.256       47.551       25.873       21.848     2261.104      669.395      477.345        0.248        0.170       36.353       17.055        0.220      349.543       30.048      865.178
07/30/2014  12:35:00       -7.663      -19.506        3.609       24.416       34.803       25.615      596.144     1211.278      656.122        0.146        0.123       20.958       22.281        1.130      349.268       29.571      865.177
07/30/2014  12:36:00       25.775       -2.839       16.438       27.634       17.494       18.745      763.622      306.037      351.379        0.118        0.071       25.931       14.060        0.294      349.430       29.852      865.172
07/30/2014  12:37:00        1.149       20.228       26.388       13.118       18.054       16.046      172.074      325.956      257.476        0.093        0.038       20.261        7.576        0.140      349.237       29.519      865.159
07/30/2014  12:38:00        3.698        0.873       -2.733       17.264       12.681       17.132      298.063      160.812      293.520        0.039        0.038        3.800        3.634        0.915      349.403       29.805      865.145
07/30/2014  12:39:00       -7.059        4.961       21.401       23.034       14.360       14.527      530.543      206.211      211.026        0.074        0.047        8.628       10.682        1.533      349.552       30.064      865.141
07/30/2014  12:40:00       -5.636        5.224       16.614       15.594       11.366       12.047      243.185      129.194      145.133        0.043        0.026        7.684       10.884        2.006      349.585       30.120      865.131
07/30/2014  12:41:00       -9.278       -1.556       16.173       17.403       12.140       12.482      302.878      147.373      155.810        0.048        0.030        9.407       11.715        1.551      349.694       30.312      865.112
07/30/2014  12:42:00        2.990       14.757       35.399       19.862       16.620       10.821      394.481      276.220      117.096        0.113        0.039       15.057        9.681        0.413      349.512       29.994      865.091
07/30/2014  12:43:00       27.097        0.549        6.457       16.375       15.437       15.738      268.125      238.310      247.675        0.077        0.038       27.103        6.247        0.053      348.928       28.983      865.062
07/30/2014  12:44:00       21.142        5.378       10.831       23.255       13.214       13.060      540.799      174.606      170.555        0.074        0.044       21.815        9.205        0.178      349.272       29.577      865.038
07/30/2014  12:45:00       20.090        7.961       16.329       17.339       14.327       15.363      300.628      205.268      236.036        0.074        0.037       21.610       10.181        0.222      349.193       29.441      865.014
07/30/2014  12:46:00       20.919        2.770       17.875       22.295       22.536       17.356      497.077      507.876      301.223        0.104        0.065       21.101       12.095        0.329      349.144       29.356      864.989
07/30/2014  12:47:00      -15.010       -9.155       10.109       22.489       23.163       18.902      505.773      536.547      357.267        0.091        0.070       17.582        8.150        0.215      349.172       29.404      864.966
07/30/2014  12:48:00        7.612       52.631       71.087       34.470       32.721       24.233     1188.148     1070.672      587.228        0.536        0.142       53.179        5.160        0.009      349.376       29.759      864.947
07/30/2014  12:49:00       74.394       75.316       35.402       56.260       40.496       45.637     3165.151     1639.958     2082.717        0.967        0.344      105.862       31.395        0.088      349.320       29.661      864.937
07/30/2014  12:50:00       32.289       32.025       13.055       42.028       30.625       28.016     1766.345      937.873      784.918        0.286        0.174       45.477       20.528        0.204      349.472       29.925      864.923
07/30/2014  12:51:00       69.132       43.355       16.672       52.640       45.916       26.454     2770.995     2108.278      699.802        0.626        0.279       81.602       21.140        0.067      349.481       29.942      864.911
07/30/2014  12:52:00       37.019       64.231        1.462       47.362       30.493       32.042     2243.152      929.824     1026.664        0.485        0.210       74.135       23.372        0.099      349.461       29.906      864.915
07/30/2014  12:53:00        6.404       33.309        4.231       22.846       40.096       17.051      521.943     1607.712      290.748        0.179        0.121       33.920       10.001        0.087      349.650       30.234      864.917
07/30/2014  12:54:00       32.301      116.391      -11.185       23.789       33.004       24.677      565.911     1089.237      608.935        0.849        0.113      120.790       23.089        0.037      349.442       29.874      864.905
07/30/2014  12:55:00       24.263       43.785        4.119       30.529       39.032       26.998      932.006     1523.499      728.872        0.285        0.159       50.058       21.971        0.193      349.576       30.104      864.893
07/30/2014  12:56:00       61.187       45.832        5.697       63.748       37.602       29.339     4063.779     1413.945      860.783        0.611        0.317       76.449       19.121        0.063      349.552       30.064      864.890
07/30/2014  12:57:00       26.781       82.896       -2.013       35.715       32.046       26.914     1275.579     1026.915      724.352        0.531        0.151       87.114       18.987        0.048      349.536       30.037      864.874
07/30/2014  12:58:00       16.423       92.772       -0.086       36.264       44.648       29.453     1315.084     1993.419      867.463        0.653        0.209       94.214       24.756        0.069      349.564       30.084      864.866
07/30/2014  12:59:00       17.405       18.655       14.969       36.766       38.601       30.912     1351.759     1490.037      955.563        0.234        0.190       25.513       20.813        0.665      349.674       30.276      864.853
07/30/2014  13:00:00       15.996       -9.044        6.265       23.722       37.896       15.867      562.746     1436.097      251.762        0.131        0.113       18.376       11.153        0.368      349.458       29.901      864.838
07/30/2014  13:01:00       -2.044       10.206       15.591        7.960       11.747       13.148       63.363      137.995      172.862        0.036        0.019       10.408        5.160        0.246      350.025       30.885      864.827
07/30/2014  13:02:00        6.340       15.457       20.147       16.256       15.014       11.242      264.248      225.407      126.390        0.065        0.031       16.707        6.310        0.143      349.918       30.699      864.829
07/30/2014  13:03:00      -17.799       15.944       19.032       17.649       12.622       15.762      311.476      159.315      248.441        0.083        0.036       23.896        9.478        0.157      349.972       30.792      864.814
07/30/2014  13:04:00      -27.449       28.642       15.080       19.709       20.114       17.610      388.456      404.589      310.108        0.145        0.055       39.672       12.967        0.107      349.869       30.615      864.802
07/30/2014  13:05:00      -30.661       26.157        8.320       20.002       22.118       19.066      400.073      489.228      363.503        0.147        0.063       40.302       11.235        0.078      349.930       30.720      864.788
07/30/2014  13:06:00      -31.549       62.632        8.806       33.626       34.466       19.077     1130.737     1187.912      363.917        0.384        0.134       70.129       14.426        0.042      349.771       30.445      864.774
07/30/2014  13:07:00      -88.682        7.436       -0.873       43.051       40.793       27.479     1853.381     1664.047      755.071        0.610        0.214       88.993       27.314        0.094      349.663       30.255      864.764
07/30/2014  13:08:00      -24.462       54.886      -14.310       30.698       53.312       10.450      942.378     2842.211      109.202        0.385        0.195       60.090        8.416        0.020      349.663       30.255      864.754
07/30/2014  13:09:00      -16.805       47.659       19.487       37.134       47.370       32.643     1378.970     2243.961     1065.583        0.381        0.234       50.535       21.178        0.176      349.939       30.734      864.748
07/30/2014  13:10:00      -55.904       -3.366       -5.288       54.629       39.185       33.700     2984.345     1535.430     1135.673        0.441        0.283       56.005       28.941        0.267      349.798       30.489      864.740
07/30/2014  13:11:00      -67.561       25.586      -13.914       35.800       42.520       25.060     1281.616     1807.972      628.028        0.456        0.186       72.244       21.519        0.089      349.593       30.135      864.738
07/30/2014  13:12:00      -72.582        4.540        0.923       50.652       32.327       23.417     2565.658     1045.024      548.351        0.472        0.208       72.724       27.737        0.145      349.742       30.394      864.746
07/30/2014  13:13:00       -5.554       22.913       14.022       13.403       34.889       21.332      179.643     1217.245      455.054        0.130        0.093       23.576       20.431        0.751      350.086       30.991      864.743
07/30/2014  13:14:00       -9.432      -33.954       -7.057       17.178       26.379       20.891      295.075      695.877      436.441        0.136        0.071       35.240       13.616        0.149      349.749       30.405      864.727
07/30/2014  13:15:00      -38.594      -24.837        7.504       42.649       28.020       23.923     1818.970      785.101      572.301        0.267        0.159       45.895       26.650        0.337      349.936       30.730      864.711
07/30/2014  13:16:00      -32.450      -25.976       16.008       48.632       41.965       28.909     2365.051     1761.090      835.739        0.347        0.248       41.567       23.638        0.323      349.810       30.511      864.693
07/30/2014  13:17:00      -45.453      -52.106       13.026       45.390       32.560       23.545     2060.275     1060.138      554.372        0.431        0.184       69.145       20.482        0.088      349.614       30.173      864.685
07/30/2014  13:18:00      -83.333      -79.749        6.896       50.213       39.287       30.721     2521.318     1543.435      943.794        0.918        0.250      115.344       25.176        0.048      349.647       30.228      864.677
07/30/2014  13:19:00     -139.566        7.030       -0.896       64.334       51.061       33.459     4138.877     2607.221     1119.537        1.370        0.393      139.743       35.497        0.065      349.617       30.176      864.662
07/30/2014  13:20:00     -157.872      -27.918       -4.767       90.272       50.749       28.472     8149.118     2575.436      810.629        1.863        0.577      160.321       35.814        0.050      349.593       30.132      864.659
07/30/2014  13:21:00     -194.167      -38.467      -22.214       49.973       36.078       23.562     2497.277     1301.624      555.171        2.201        0.218      197.941       20.156        0.010      349.510       29.989      864.669
07/30/2014  13:22:00     -169.804      -70.660       -3.718       61.757       49.533       29.977     3813.934     2453.549      898.613        2.050        0.358      183.919       30.092        0.027      349.597       30.141      864.667
07/30/2014  13:23:00     -109.681      -50.107       -6.894       77.806       61.819       31.667     6053.742     3821.577     1002.814        1.273        0.544      120.585       36.502        0.092      349.617       30.176      864.672
07/30/2014  13:24:00     -103.018      -44.361        4.886       36.276       47.999       26.148     1315.919     2303.863      683.737        0.845        0.215      112.164       19.544        0.030      349.642       30.221      864.688
07/30/2014  13:25:00     -114.720      -48.697       -1.636       29.456       27.622       16.319      867.647      762.977      266.305        0.872        0.095      124.628        7.837        0.004      349.654       30.240      864.690
07/30/2014  13:26:00     -109.476      -87.506      -10.519       42.320       43.449       18.138     1791.018     1887.775      329.002        1.188        0.200      140.151       16.539        0.014      349.613       30.169      864.688
07/30/2014  13:27:00     -110.530      -65.366        4.689       67.181       45.046       28.119     4513.269     2029.156      790.705        1.192        0.367      128.412       25.433        0.039      349.730       30.370      864.676
07/30/2014  13:28:00     -131.894      -63.373        7.674       92.632       53.844       41.242     8580.627     2899.147     1700.872        1.732        0.659      146.329       48.576        0.110      349.816       30.520      864.667
07/30/2014  13:29:00     -141.413     -120.324      -10.517       32.886       39.761       28.080     1081.469     1580.912      788.467        1.902        0.173      185.676       20.060        0.012      349.550       30.058      864.672
07/30/2014  13:30:00     -110.621      -76.748       10.030       62.121       39.752       38.196     3859.069     1580.259     1458.956        1.256        0.345      134.637       38.876        0.083      349.638       30.212      864.670
07/30/2014  13:31:00      -53.129      -11.085        6.182       28.904       50.072       21.241      835.456     2507.230      451.163        0.339        0.190       54.273       20.874        0.148      349.569       30.092      864.668
07/30/2014  13:32:00      -28.578      -84.102        6.458       26.811       31.963       21.128      718.846     1021.636      446.400        0.506        0.109       88.825       15.262        0.030      349.550       30.062      864.664
07/30/2014  13:33:00      -90.472      -52.210        3.889       59.507       38.200       22.267     3541.097     1459.244      495.804        0.821        0.275      104.456       17.771        0.029      349.648       30.231      864.676
07/30/2014  13:34:00      -83.351     -104.992        1.882       58.841       33.827       28.249     3462.262     1144.271      797.994        1.169        0.270      134.055       24.320        0.033      349.595       30.138      864.702
07/30/2014  13:35:00      -74.595     -165.623       -0.321       62.570       87.401       38.566     3914.964     7639.017     1487.364        2.302        0.652      181.646       37.400        0.042      349.552       30.060      864.720
07/30/2014  13:36:00     -138.916      -96.945       21.287      156.599       87.370       38.983    24523.147     7633.585     1519.638        3.141        1.684      169.399       43.373        0.066      349.721       30.355      864.733
07/30/2014  13:37:00      -54.140      -38.329       35.251       65.247       52.128       43.517     4257.113     2717.305     1893.701        0.725        0.443       66.334       36.735        0.307      349.799       30.491      864.737
07/30/2014  13:38:00      -86.704      -87.017        7.547       57.134       61.974       33.686     3264.330     3840.722     1134.720        1.169        0.412      122.840       30.943        0.063      349.705       30.328      864.746
07/30/2014  13:39:00     -126.652     -113.342        1.713      100.126       71.431       41.328    10025.149     5102.418     1707.971        2.286        0.842      169.962       45.815        0.073      349.689       30.300      864.757
07/30/2014  13:40:00      -51.263      -86.440        8.958       98.832       61.941       40.153     9767.725     3836.706     1612.225        1.270        0.761      100.498       42.872        0.182      349.752       30.409      864.768
07/30/2014  13:41:00      -35.616     -150.554        4.610       42.003       88.793       35.702     1764.276     7884.231     1274.660        1.744        0.546      154.709       25.099        0.026      349.716       30.346      864.793
07/30/2014  13:42:00      -69.619      -62.835       -0.727       44.381       37.456       23.486     1969.667     1402.934      551.580        0.636        0.196       93.782       16.277        0.030      349.677       30.281      864.791
07/30/2014  13:43:00      -82.504      -57.080        4.487       74.941       51.744       34.400     5616.207     2677.437     1183.386        0.978        0.474      100.325       37.419        0.139      349.829       30.544      864.796
07/30/2014  13:44:00     -134.012      -90.757       -5.585       99.467       60.931       32.937     9893.768     3712.584     1084.873        2.046        0.735      161.852       37.135        0.053      349.739       30.385      864.800
07/30/2014  13:45:00     -153.572       15.189       -9.062       60.965       41.592       30.315     3716.682     1729.895      918.977        1.513        0.318      154.321       30.506        0.039      349.646       30.226      864.798
07/30/2014  13:46:00      -67.169      -47.821        0.362       38.537       27.547       16.824     1485.085      758.833      283.054        0.466        0.126       82.453       16.543        0.040      349.730       30.373      864.806
07/30/2014  13:47:00      -61.840      -46.752       -3.878       43.457       25.757       21.420     1888.470      663.416      458.823        0.452        0.151       77.524       23.694        0.093      349.700       30.321      864.812
07/30/2014  13:48:00     -116.859      -57.222       -1.954       50.802       45.451       30.765     2580.880     2065.784      946.499        1.126        0.280      130.117       24.681        0.036      349.658       30.248      864.816
07/30/2014  13:49:00     -110.517      -44.386        0.011       43.392       39.840       21.071     1882.833     1587.229      443.998        0.905        0.196      119.097       16.600        0.019      349.687       30.298      864.825
07/30/2014  13:50:00     -118.436     -109.816        0.192       70.652       66.157       36.400     4991.774     4376.778     1324.941        1.839        0.535      161.513       38.447        0.057      349.737       30.382      864.834
07/30/2014  13:51:00     -164.694      -92.146        2.437       89.538       61.686       41.157     8016.975     3805.165     1693.894        2.457        0.676      188.719       48.174        0.065      349.646       30.225      864.834
07/30/2014  13:52:00     -140.071     -118.916        2.956       91.597       66.360       39.333     8389.939     4403.675     1547.105        2.405        0.717      183.742       42.852        0.054      349.689       30.300      864.839
07/30/2014  13:53:00     -150.103     -144.701        4.428       85.322       64.537       47.493     7279.900     4165.062     2255.598        2.859        0.685      208.492       44.715        0.046      349.651       30.232      864.856
07/30/2014  13:54:00     -167.818     -101.595       -5.932       49.117       53.381       28.349     2412.443     2849.511      803.665        2.229        0.303      196.175       26.856        0.019      349.650       30.233      864.865
07/30/2014  13:55:00     -166.989     -111.770       11.963       95.400       80.145       49.185     9101.202     6423.239     2419.129        2.923        0.897      200.943       44.764        0.050      349.755       30.413      864.870
07/30/2014  13:56:00     -149.992      -46.687        2.631      120.856       64.237       46.474    14606.058     4126.454     2159.875        2.278        1.045      157.090       51.819        0.109      349.728       30.367      864.887
07/30/2014  13:57:00     -120.492     -253.491        0.611       86.854      104.729       42.191     7543.579    10968.065     1780.046        4.953        1.015      280.671       24.323        0.008      349.775       30.447      864.911
07/30/2014  13:58:00     -371.587     -183.779       -8.435      166.150      157.813       82.581    27605.922    24904.949     6819.632       11.561        2.967      414.550       88.657        0.046      349.704       30.323      864.932
07/30/2014  13:59:00     -506.706     -174.000        3.246      256.041      218.858      115.281    65557.075    47898.922    13289.699       20.687        6.337      535.748      129.419        0.058      349.174       29.405      864.909
07/30/2014  14:00:00     -472.017     -224.329      -26.313      250.635      216.109      114.598    62817.938    46702.966    13132.648       19.821        6.133      522.612      140.067        0.072      349.015       29.131      864.921
07/30/2014  14:01:00     -457.057     -292.448      -16.659      211.387      184.297       86.205    44684.635    33965.234     7431.331       19.038        4.304      542.612       95.502        0.031      348.971       29.054      864.907
07/30/2014  14:02:00     -424.343     -242.697      -21.628      232.478      206.491      117.989    54046.176    42638.459    13921.384       17.500        5.530      488.844      139.338        0.081      349.070       29.223      864.873
07/30/2014  14:03:00     -378.263     -279.753       -2.354      199.942      172.614       84.921    39976.910    29795.563     7211.629       14.915        3.849      470.472       94.726        0.041      349.067       29.220      864.903
07/30/2014  14:04:00     -405.863     -286.769       -4.381      213.611      157.098       83.441    45629.498    24679.673     6962.416       16.211        3.864      496.952       97.557        0.039      349.140       29.346      864.912
07/30/2014  14:05:00     -358.443     -227.900        0.290      204.328      138.013       89.500    41750.087    19047.674     8010.215       12.460        3.440      424.758       95.716        0.051      349.163       29.385      864.959
07/30/2014  14:06:00     -314.549     -142.924      -14.798      138.188       93.855       54.336    19095.868     8808.810     2952.369        7.522        1.543      345.498       43.769        0.016      349.132       29.332      864.998
07/30/2014  14:07:00     -306.621     -135.519      -17.760      140.304      105.166       57.347    19685.336    11059.840     3288.703        7.336        1.702      335.234       65.357        0.038      349.082       29.244      865.016
07/30/2014  14:08:00     -190.815     -153.743       -1.992      115.495       79.063       60.162    13339.042     6250.936     3619.485        4.163        1.160      245.046       61.845        0.064      349.125       29.321      865.041
07/30/2014  14:09:00     -285.247     -228.301      -14.249      152.011      193.611       72.571    23107.258    37485.156     5266.548        9.976        3.293      365.359       66.052        0.033      348.922       28.968      865.049
07/30/2014  14:10:00     -254.452     -178.476        8.954      150.726      128.977       74.054    22718.377    16634.991     5483.982        7.075        2.242      310.804       70.193        0.051      348.879       28.893      865.037
07/30/2014  14:11:00     -198.315     -236.530       23.455      173.647      156.874       72.084    30153.253    24609.378     5196.070        7.788        2.998      308.667       60.044        0.038      348.876       28.888      865.038
07/30/2014  14:12:00     -281.335     -238.248       -6.218      143.928      128.585       80.732    20715.201    16533.985     6517.717        8.985        2.188      368.661       77.402        0.044      348.836       28.818      865.036
07/30/2014  14:13:00     -196.830     -166.374        1.608      140.985      106.265       68.396    19876.694    11292.356     4678.017        5.113        1.792      257.725       71.713        0.077      348.759       28.686      865.046
07/30/2014  14:14:00      -96.443     -159.453        8.100      131.364      132.096       63.633    17256.409    17449.330     4049.125        3.677        1.938      186.351       57.513        0.095      348.713       28.609      865.078
07/30/2014  14:15:00     -150.587     -252.630        9.119      215.443      154.627       79.027    46415.497    23909.535     6245.244        8.156        3.829      294.106       73.893        0.063      348.569       28.358      865.119
07/30/2014  14:16:00     -221.579     -346.061      -39.419      226.986      157.412       92.935    51522.797    24778.456     8636.844       12.766        4.247      410.921       67.363        0.027      348.508       28.250      865.125
07/30/2014  14:17:00     -135.147     -264.801       18.588      127.891      197.267       80.657    16356.140    38914.077     6505.555        7.524        3.089      297.295       79.029        0.071      348.512       28.259      865.180
07/30/2014  14:18:00     -194.307     -308.764        4.500      142.297      157.103       81.131    20248.367    24681.359     6582.259        9.230        2.576      364.815       96.058        0.069      348.486       28.213      865.199
07/30/2014  14:19:00      -68.370     -201.328       15.424      111.998      143.540       68.041    12543.548    20603.670     4629.532        4.160        1.889      212.620       57.521        0.073      348.467       28.181      865.204
07/30/2014  14:20:00     -149.491     -180.406       -0.353      142.307      137.320       81.917    20251.160    18856.836     6710.332        5.035        2.291      234.294       73.777        0.099      348.487       28.216      865.206
07/30/2014  14:21:00      -95.617     -331.636      -17.938      149.735      180.320       74.491    22420.497    32515.305     5548.943        8.995        3.024      345.145       56.126        0.026      348.411       28.083      865.214
07/30/2014  14:22:00     -159.752     -368.408      -29.368      176.099      164.999       94.897    31010.796    27224.817     9005.356       11.466        3.362      401.553       71.389        0.032      348.366       28.006      865.232
07/30/2014  14:23:00     -115.254     -300.256       -0.930      176.786      123.176       86.330    31253.386    15172.206     7452.788        7.865        2.694      321.617       49.272        0.023      348.366       28.004      865.255
07/30/2014  14:24:00     -222.438     -240.712      -19.542      192.163      162.132       75.121    36926.734    26286.707     5643.115        8.832        3.443      327.751       88.435        0.073      348.432       28.122      865.240
07/30/2014  14:25:00     -113.127     -241.720        3.013      183.986      143.637       97.965    33850.906    20631.508     9597.166        6.764        3.204      266.883       84.296        0.100      348.509       28.252      865.261
07/30/2014  14:26:00      -97.278     -315.423      -18.865      152.469      153.623       80.968    23246.692    23600.176     6555.889        8.135        2.670      330.083       77.095        0.055      348.488       28.217      865.287
07/30/2014  14:27:00     -119.927     -298.840       -6.683      203.521      176.344       83.366    41420.976    31097.295     6949.855        9.158        3.973      322.006       63.715        0.039      348.456       28.163      865.290
07/30/2014  14:28:00      -59.254     -236.049        4.780      158.332      143.900       83.517    25069.041    20707.205     6975.067        5.599        2.638      243.372       67.494        0.077      348.522       28.276      865.294
07/30/2014  14:29:00     -145.985     -139.013      -10.857      103.879       95.331       61.365    10790.774     9088.056     3765.635        3.219        1.182      201.584       54.693        0.074      348.592       28.397      865.304
07/30/2014  14:30:00     -165.073     -217.345        6.024      141.050      134.296       82.138    19895.170    18035.296     6746.731        5.959        2.234      272.924       81.850        0.090      348.670       28.531      865.326
07/30/2014  14:31:00     -133.767     -242.362       -4.623      154.730      175.561       62.033    23941.362    30821.528     3848.106        6.762        2.931      276.826       53.053        0.037      348.657       28.508      865.339
07/30/2014  14:32:00      -73.094     -237.963      -21.588      107.423       93.517       58.120    11539.774     8745.503     3377.911        4.304        1.183      248.936       56.327        0.051      348.730       28.636      865.357
07/30/2014  14:33:00      -30.179     -168.521       -2.274       85.595      131.593       76.585     7326.448    17316.766     5865.285        2.991        1.525      171.201       47.104        0.076      348.801       28.760      865.350
07/30/2014  14:34:00      -78.177     -214.936      -29.884      128.496       74.208       63.520    16511.155     5506.875     4034.842        3.962        1.303      228.712       37.016        0.026      348.761       28.690      865.352
07/30/2014  14:35:00      -78.098     -217.840       -7.270       89.894      145.058       66.051     8080.892    21041.698     4362.727        4.354        1.674      231.416       32.493        0.020      348.724       28.626      865.379
07/30/2014  14:36:00      -91.744     -146.475       19.680      149.109      117.992       70.486    22233.386    13922.076     4968.252        3.568        2.056      172.835       50.942        0.087      348.835       28.818      865.391
07/30/2014  14:37:00     -183.493     -213.984      -10.883      123.045      135.361       57.712    15140.039    18322.613     3330.667        5.818        1.840      281.885       43.022        0.023      348.824       28.798      865.440
07/30/2014  14:38:00      -10.848     -260.162       -4.927      102.214      167.536       65.971    10447.628    28068.352     4352.132        5.534        2.143      260.388       59.977        0.053      348.799       28.755      865.448
07/30/2014  14:39:00      -28.799     -258.168       -1.416      149.763      105.880       69.928    22429.053    11210.635     4889.992        5.300        1.926      259.769       31.701        0.015      348.800       28.757      865.454
07/30/2014  14:40:00     -129.495     -305.068      -17.902      158.725      133.348       83.398    25193.482    17781.642     6955.290        8.003        2.497      331.414       38.186        0.013      348.794       28.745      865.489
07/30/2014  14:41:00     -252.997     -251.402        7.405      166.622      138.887       74.422    27763.018    19289.672     5538.707        8.992        2.630      356.666       74.091        0.043      348.825       28.799      865.545
07/30/2014  14:42:00     -213.556     -172.971       15.703      182.210      121.230       67.058    33200.325    14696.638     4496.760        6.407        2.620      274.818       76.351        0.077      348.851       28.846      865.565
07/30/2014  14:43:00      -96.987     -107.013        3.183       93.657       76.114       49.746     8771.544     5793.408     2474.670        1.895        0.852      144.424       35.542        0.061      348.903       28.937      865.577
07/30/2014  14:44:00      -92.304     -189.020        1.388      115.158      130.541       57.736    13261.283    17040.858     3333.494        3.894        1.682      210.353       68.459        0.106      348.821       28.796      865.607
07/30/2014  14:45:00     -169.925     -250.079      -23.790      106.523      115.950       60.778    11347.185    13444.490     3693.929        6.023        1.424      302.347       59.577        0.039      348.765       28.697      865.621
07/30/2014  14:46:00     -149.424     -295.134       -4.341       99.301      102.088       53.516     9860.625    10421.927     2864.014        6.629        1.157      330.804       50.045        0.023      348.658       28.511      865.639
07/30/2014  14:47:00      -42.791      -95.036       18.165      118.254       78.579       54.263    13983.964     6174.686     2944.487        1.714        1.155      104.225       28.564        0.075      348.772       28.713      865.631
07/30/2014  14:48:00      -16.083      -49.879        7.163       51.251       69.635       38.659     2626.642     4849.009     1494.501        0.588        0.449       52.408       38.299        0.534      348.766       28.701      865.597
07/30/2014  14:49:00      -24.057     -159.610        2.557      113.920      119.772       54.823    12977.762    14345.432     3005.526        2.819        1.516      161.413       44.635        0.076      348.702       28.591      865.594
07/30/2014  14:50:00     -260.429     -221.657      -10.306      150.270      126.002       65.284    22581.185    15876.621     4262.006        7.988        2.136      341.987       65.944        0.037      348.803       28.762      865.604
07/30/2014  14:51:00     -173.035     -116.527        9.867      125.425      124.287       59.418    15731.395    15447.247     3530.534        3.916        1.735      208.613       48.052        0.053      348.798       28.753      865.624
07/30/2014  14:52:00     -220.451     -153.120       11.092      143.947      112.424       65.649    20720.745    12639.147     4309.837        5.491        1.883      268.410       61.243        0.052      348.773       28.711      865.614
07/30/2014  14:53:00     -242.247     -157.998        1.821      118.346       92.220       67.499    14005.672     8504.473     4556.075        5.535        1.353      289.218       74.515        0.066      348.792       28.743      865.628
07/30/2014  14:54:00     -160.306      -79.592       -3.352       77.648       66.279       31.386     6029.204     4392.962      985.088        2.172        0.570      178.977       25.378        0.020      348.853       28.850      865.637
07/30/2014  14:55:00     -138.413      -49.267        5.160       79.286       61.732       43.446     6286.264     3810.820     1887.596        1.680        0.599      146.920       35.210        0.057      348.958       29.032      865.645
07/30/2014  14:56:00     -122.208      -50.115        5.227       65.235       52.716       35.423     4255.629     2778.941     1254.801        1.288        0.414      132.085       31.121        0.056      348.910       28.951      865.652
07/30/2014  14:57:00      -70.446        9.198       -7.298       47.377       38.989       25.813     2244.614     1520.169      666.298        0.476        0.222       71.044       16.732        0.055      348.933       28.993      865.656
07/30/2014  14:58:00     -103.063        8.489       -1.404       69.260       36.785       19.663     4796.912     1353.104      386.619        0.862        0.327      103.412       26.476        0.066      348.893       28.920      865.645
07/30/2014  14:59:00     -163.681      -54.017       -4.613       52.492       48.432       39.009     2755.371     2345.682     1521.687        1.818        0.331      172.364       32.281        0.035      348.883       28.902      865.651
07/30/2014  15:00:00      -83.501      -16.491        9.853       63.296       65.780       33.822     4006.431     4327.034     1143.927        0.841        0.474       85.114       32.781        0.148      348.934       28.991      865.640
07/30/2014  15:01:00     -158.399      -60.875       -6.388       53.700       48.206       23.185     2883.696     2323.865      537.524        1.729        0.287      169.694       12.630        0.006      348.886       28.907      865.644
07/30/2014  15:02:00     -119.710      -28.763       -2.114       84.674       66.562       39.029     7169.761     4430.501     1523.278        1.414        0.656      123.117       40.355        0.107      348.958       29.034      865.640
07/30/2014  15:03:00     -216.031      -94.711        4.399      151.614      102.706       61.097    22986.921    10548.464     3732.839        4.646        1.863      235.880       79.916        0.115      348.992       29.091      865.628
07/30/2014  15:04:00     -323.449      -60.067      -17.618       95.828      109.023       50.978     9182.961    11885.936     2598.801        6.610        1.183      328.979       46.461        0.020      348.925       28.975      865.634
07/30/2014  15:05:00     -166.872      -48.404        7.523      135.942       96.657       57.138    18480.287     9342.524     3264.714        3.066        1.554      173.750       58.268        0.112      348.979       29.068      865.636
07/30/2014  15:06:00     -288.237      -90.877       -1.658      157.402       92.680       65.210    24775.485     8589.539     4252.398        6.447        1.881      302.224       74.858        0.061      348.918       28.961      865.648
07/30/2014  15:07:00     -365.880      -58.985      -11.203      126.082      100.343       51.203    15896.728    10068.757     2621.733        8.302        1.429      370.604       57.778        0.024      348.873       28.884      865.656
07/30/2014  15:08:00     -242.237       -2.974       -1.537       98.447       99.639       56.070     9691.823     9927.849     3143.841        4.072        1.138      242.255       49.471        0.042      348.942       29.003      865.664
07/30/2014  15:09:00     -241.942      -51.006      -14.481       73.078      107.740       51.384     5340.359    11607.995     2640.358        4.046        0.979      247.260       33.093        0.018      348.939       28.998      865.657
07/30/2014  15:10:00     -234.474     -130.053        3.695      109.317       75.101       52.409    11950.130     5640.216     2746.682        4.612        1.017      268.127       60.253        0.050      348.970       29.052      865.671
07/30/2014  15:11:00     -305.324      -86.346      -13.860      114.895       79.157       51.136    13200.961     6265.868     2614.862        6.147        1.104      317.298       54.367        0.029      348.953       29.024      865.696
07/30/2014  15:12:00     -318.831      -53.590      -20.516       87.453      102.562       54.248     7648.102    10519.046     2942.876        6.302        1.056      323.304       52.261        0.026      348.969       29.052      865.731
07/30/2014  15:13:00     -323.305      -52.668      -18.796      104.105      111.132       55.147    10837.804    12350.309     3041.232        6.694        1.311      327.567       48.012        0.021      348.972       29.056      865.779
07/30/2014  15:14:00     -304.465      -10.814      -20.308      141.260      133.417       67.701    19954.273    17800.039     4583.488        6.777        2.117      304.657       67.429        0.049      348.984       29.077      865.781
07/30/2014  15:15:00     -340.373      -75.423      -14.005      178.164      188.993       84.954    31742.554    35718.259     7217.220        9.819        3.734      348.630       92.769        0.071      348.953       29.022      865.786
07/30/2014  15:16:00     -171.923      258.525      -34.795      126.235      135.916       84.508    15935.220    18473.029     7141.564        6.957        2.077      310.472       90.581        0.085      348.957       29.029      865.831
07/30/2014  15:17:00     -137.019      288.428      -38.391       90.784      118.893       63.241     8241.732    14135.560     3999.407        6.490        1.319      319.320       58.282        0.033      348.964       29.041      865.859
07/30/2014  15:18:00      -98.674      190.725       -8.190      124.978      129.294       85.993    15619.379    16716.812     7394.796        4.295        1.987      214.738       64.000        0.089      348.932       28.987      865.846
07/30/2014  15:19:00     -300.062      324.500      -58.868      186.805      173.895       91.748    34896.174    30239.325     8417.649       13.616        3.678      441.971       82.282        0.035      348.790       28.739      865.889
07/30/2014  15:20:00     -261.720      519.359      -57.598      157.217      221.277      104.692    24717.291    48963.375    10960.488       21.308        4.232      581.577      103.720        0.032      348.681       28.551      865.918
07/30/2014  15:21:00     -384.764      381.931      -77.751      136.735      214.878       94.761    18696.535    46172.582     8979.637       18.689        3.692      542.139       86.253        0.025      348.661       28.518      865.950
07/30/2014  15:22:00     -291.033      344.368      -50.272      127.645      189.074       91.981    16293.180    35749.162     8460.447       13.315        3.025      450.876       83.542        0.034      348.572       28.362      865.998
07/30/2014  15:23:00     -312.959      320.410      -44.904      143.712      178.295       91.280    20653.166    31789.118     8331.967       13.169        3.039      447.890       81.423        0.033      348.552       28.326      866.010
07/30/2014  15:24:00     -193.975      279.026      -39.876      150.880      148.672       75.171    22764.905    22103.323     5650.633        8.379        2.526      339.827       77.523        0.052      348.572       28.362      866.062
07/30/2014  15:25:00     -228.350      269.934      -49.329      145.811      134.771       73.778    21260.734    18163.251     5443.224        8.615        2.243      353.565       93.337        0.070      348.532       28.290      866.089
07/30/2014  15:26:00     -264.754      298.719      -38.957      184.026      179.182       91.580    33865.691    32106.100     8386.883       11.759        3.718      399.159      105.102        0.069      348.496       28.231      866.110
07/30/2014  15:27:00     -179.782      377.083      -38.471      125.941      161.108       86.049    15861.185    25955.841     7404.425       11.260        2.461      417.748       89.345        0.046      348.479       28.203      866.131
07/30/2014  15:28:00     -129.577      205.337      -19.189       92.009      111.414       68.736     8465.719    12413.136     4724.649        4.246        1.280      242.803       65.115        0.072      348.470       28.187      866.162
07/30/2014  15:29:00     -236.980      281.862      -48.237      137.812      136.649       59.603    18992.158    18672.823     3552.515        8.957        2.061      368.247       49.517        0.018      348.479       28.202      866.205
07/30/2014  15:30:00     -162.769      161.130      -29.570       78.693       96.490       55.035     6192.575     9310.236     3028.837        3.593        0.927      229.034       40.410        0.031      348.503       28.243      866.219
07/30/2014  15:31:00     -346.671      102.360      -43.160      168.887      159.006       88.318    28522.751    25282.850     7800.126        9.705        3.080      361.467       87.010        0.058      348.534       28.295      866.257
07/30/2014  15:32:00     -216.595      137.832      -19.244      140.291      114.318       81.985    19681.598    13068.539     6721.499        5.287        1.974      256.731       71.655        0.078      348.514       28.262      866.283
07/30/2014  15:33:00     -231.926       73.011      -15.538      154.322      111.453       90.001    23815.128    12421.754     8100.181        5.184        2.217      243.147       87.309        0.129      348.528       28.286      866.337
07/30/2014  15:34:00     -183.549       99.485      -28.797      155.842       78.765       63.019    24286.622     6203.990     3971.358        3.943        1.723      208.776       64.671        0.096      348.501       28.241      866.379
07/30/2014  15:35:00     -178.955      -13.554      -20.160       99.647       95.340       52.438     9929.478     9089.729     2749.769        2.719        1.088      179.468       42.831        0.057      348.482       28.207      866.427
07/30/2014  15:36:00     -205.745       78.844      -37.329      111.308      148.525       73.556    12389.420    22059.799     5410.543        4.489        1.993      220.335       80.492        0.133      348.475       28.197      866.460
07/30/2014  15:37:00     -181.200        2.318      -28.579      129.537      105.186       59.999    16779.744    11064.158     3599.871        3.254        1.572      181.215       78.158        0.186      348.425       28.111      866.493
07/30/2014  15:38:00     -243.956       79.525      -28.950      142.510      170.338       62.410    20309.008    29014.995     3895.069        5.994        2.661      256.591       69.020        0.072      348.424       28.107      866.492
07/30/2014  15:39:00     -184.845      204.081      -37.984      121.703      107.069       64.353    14811.658    11463.798     4141.258        5.383        1.521      275.348       87.049        0.100      348.425       28.108      866.553
07/30/2014  15:40:00      -39.737      254.663      -25.748       74.336      100.731       42.979     5525.802    10146.669     1847.189        4.230        0.876      257.745       46.676        0.033      348.447       28.146      866.603
07/30/2014  15:41:00        9.357      158.330       -3.583       51.536       84.642       46.267     2655.951     7164.287     2140.641        1.856        0.598      158.606       39.553        0.062      348.524       28.281      866.632
07/30/2014  15:42:00       39.330      259.012      -10.687       95.850      135.515       81.382     9187.129    18364.299     6623.048        5.145        1.709      261.981       83.923        0.103      348.550       28.325      866.673
07/30/2014  15:43:00      139.332      168.039       19.537      122.295      182.272      100.487    14956.039    33223.254    10097.654        5.314        2.914      218.289      106.912        0.240      348.414       28.089      866.695
07/30/2014  15:44:00      240.761      294.341       15.767      195.679      189.899      117.722    38290.352    36061.674    13858.506       11.651        4.411      380.266       97.554        0.066      347.977       27.333      866.665
07/30/2014  15:45:00      235.412      329.885       26.519      273.697      166.176      115.740    74909.822    27614.495    13395.863       14.041        5.796      405.269      101.335        0.063      347.834       27.086      866.665
07/30/2014  15:46:00      309.489      260.443       15.232      243.326      166.327      117.819    59207.595    27664.623    13881.304       13.228        5.038      404.492       85.389        0.045      347.721       26.891      866.674
07/30/2014  15:47:00      516.443      333.629      104.330      225.513      155.210      129.200    50856.284    24090.271    16692.572       24.025        4.582      614.835       64.563        0.011      347.646       26.763      866.666
07/30/2014  15:48:00      331.312      232.679       33.210      195.379      149.337      107.305    38172.857    22301.602    11514.272       11.849        3.599      404.854       58.549        0.021      347.663       26.793      866.720
07/30/2014  15:49:00      330.004      258.346       12.080      182.410      131.018       93.588    33273.262    17165.737     8758.635       11.748        2.960      419.101       54.600        0.017      347.578       26.645      866.784
07/30/2014  15:50:00      334.989      183.271       45.721      176.680      117.386      100.350    31215.789    13779.590    10070.023       10.147        2.753      381.845       43.717        0.013      347.510       26.527      866.810
07/30/2014  15:51:00      314.008      266.434       13.705      194.874      131.246      102.979    37975.740    17225.463    10604.684       11.778        3.290      411.811       84.067        0.042      347.475       26.466      866.829
07/30/2014  15:52:00      165.494      245.505       -9.035      157.740      148.577       97.746    24881.925    22075.026     9554.217        7.212        2.826      296.076       90.201        0.093      347.458       26.438      866.862
07/30/2014  15:53:00      248.186      204.248        8.563      110.468      116.136       93.936    12203.070    13487.620     8823.963        6.894        1.726      321.424       69.919        0.047      347.439       26.405      866.870
07/30/2014  15:54:00      177.744      163.865        7.361      128.886      124.099       74.164    16611.679    15400.498     5500.338        4.800        1.876      241.753       62.164        0.066      347.452       26.427      866.883
07/30/2014  15:55:00      124.026      154.548       -3.602      105.530       83.000       44.956    11136.667     6888.923     2021.032        2.966        1.002      198.160       29.974        0.023      347.455       26.433      866.905
07/30/2014  15:56:00      119.948      179.932       12.795      121.260      109.389       93.034    14704.008    11965.998     8655.254        4.112        1.766      216.247       75.475        0.122      347.450       26.425      866.909
07/30/2014  15:57:00      242.037      192.185       24.655      144.656      104.229       81.825    20925.498    10863.638     6695.304        6.730        1.924      309.058       60.569        0.038      347.436       26.399      866.891
07/30/2014  15:58:00      100.653      157.889       -5.404       94.578      101.669       58.403     8945.044    10336.664     3410.861        2.889        1.135      187.244       58.463        0.097      347.455       26.434      866.903
07/30/2014  15:59:00      101.761      161.559       12.046      105.994      120.594       63.879    11234.690    14543.019     4080.569        3.322        1.493      190.937       64.200        0.113      347.450       26.426      866.930
07/30/2014  16:00:00      109.882      258.623      -12.847       96.014      163.218      103.794     9218.638    26639.968    10773.144        6.287        2.332      280.998      104.212        0.138      347.442       26.409      866.934
07/30/2014  16:01:00      186.471      237.224       13.381      160.475      128.949      105.589    25752.373    16627.847    11148.974        7.237        2.676      301.739       87.371        0.084      347.429       26.388      866.951
07/30/2014  16:02:00      159.010      165.306       -2.603      112.815       66.243       56.262    12727.239     4388.110     3165.436        3.644        1.014      229.369       43.834        0.037      347.450       26.423      866.961
07/30/2014  16:03:00      262.682      224.006       13.048      149.561       94.303       73.854    22368.463     8893.116     5454.451        7.803        1.836      345.225       54.634        0.025      347.436       26.399      866.974
07/30/2014  16:04:00      115.148      128.145        9.461       93.479       69.678       52.459     8738.260     4855.000     2751.953        2.305        0.817      172.280       44.092        0.066      347.461       26.444      866.964
07/30/2014  16:05:00      199.246      120.926       26.520      119.245       74.308       69.463    14219.380     5521.711     4825.065        3.979        1.228      233.071       39.572        0.029      347.473       26.465      866.973
07/30/2014  16:06:00      117.346      119.309        9.152       84.032       63.126       59.274     7061.392     3984.923     3513.450        2.132        0.728      167.347       37.322        0.050      347.499       26.509      866.980
07/30/2014  16:07:00      105.687       91.908       18.828       65.795       63.897       57.509     4329.023     4082.809     3307.285        1.584        0.586      140.060       41.016        0.086      347.526       26.557      866.968
07/30/2014  16:08:00      208.531      137.557       36.476      111.367       75.300       63.651    12402.633     5670.059     4051.430        4.293        1.106      249.814       35.504        0.020      347.546       26.590      866.939
07/30/2014  16:09:00      201.475      168.144       16.634      147.357      110.837       92.161    21714.141    12284.763     8493.650        5.581        2.125      262.421       58.589        0.050      347.554       26.604      866.906
07/30/2014  16:10:00      128.902      159.519        2.501      110.666      108.602       78.819    12246.913    11794.380     6212.480        3.615        1.513      205.090       66.836        0.106      347.558       26.612      866.918
07/30/2014  16:11:00      155.277      155.061       13.833      114.118       79.880       77.139    13023.023     6380.739     5950.401        3.685        1.268      219.443       50.237        0.052      347.534       26.571      866.918
07/30/2014  16:12:00      128.204      160.580       -1.158      118.857      107.201       66.294    14127.025    11492.109     4394.939        3.611        1.501      205.480       58.189        0.080      347.574       26.639      866.907
07/30/2014  16:13:00      103.668      220.378      -14.506       93.501      161.616       62.622     8742.408    26119.695     3921.471        4.915        1.939      243.544       69.007        0.080      347.596       26.677      866.916
07/30/2014  16:14:00      231.582      160.921       32.657      114.720       89.963       68.142    13160.677     8093.429     4643.281        5.324        1.295      282.003       48.502        0.030      347.602       26.688      866.863
07/30/2014  16:15:00      182.479      153.802       18.853      121.762       88.076       64.756    14826.085     7757.348     4193.380        4.204        1.339      238.649       42.040        0.031      347.561       26.617      866.867
07/30/2014  16:16:00       55.897      165.989       -5.585       77.853      119.112       71.906     6061.096    14187.746     5170.522        2.806        1.271      175.148       70.058        0.160      347.611       26.704      866.904
07/30/2014  16:17:00       80.585      175.040        7.648      113.816       95.761       70.493    12953.973     9170.103     4969.303        3.214        1.355      192.699       64.607        0.112      347.641       26.754      866.902
07/30/2014  16:18:00       94.893      177.369        0.321      110.134       99.922       83.473    12129.526     9984.312     6967.806        3.477        1.454      201.158       64.544        0.103      347.662       26.792      866.900
07/30/2014  16:19:00      144.462      148.153       13.471      101.943       80.980       70.355    10392.304     6557.771     4949.795        3.245        1.095      206.927       43.621        0.044      347.652       26.774      866.883
07/30/2014  16:20:00      107.717      139.032       -7.662       75.594       91.861       57.291     5714.471     8438.506     3282.251        2.421        0.872      175.877       49.061        0.078      347.661       26.790      866.866
07/30/2014  16:21:00       22.608      102.770       -5.700       45.922       58.038       31.832     2108.802     3368.365     1013.287        0.880        0.325      105.227       28.598        0.074      347.721       26.894      866.856
07/30/2014  16:22:00       61.189      200.561      -24.431       81.291       91.331       57.840     6608.153     8341.379     3345.516        3.143        0.915      209.687       55.415        0.070      347.680       26.823      866.849
07/30/2014  16:23:00      -39.146      162.143      -20.339       53.639       56.517       34.193     2877.191     3194.191     1169.139        1.774        0.362      166.802       27.440        0.027      347.723       26.897      866.839
07/30/2014  16:24:00      -24.632      209.633      -19.250       49.243       75.136       45.202     2424.902     5645.381     2043.216        2.752        0.506      211.075       38.517        0.033      347.788       27.007      866.838
07/30/2014  16:25:00      -39.813      178.547      -25.576       61.188       92.735       33.158     3743.917     8599.838     1099.471        2.378        0.672      182.931       35.413        0.037      347.779       26.990      866.844
07/30/2014  16:26:00      -54.736      118.522      -17.609       46.553       49.124       24.990     2167.217     2413.165      624.516        1.128        0.260      130.551       23.891        0.033      347.815       27.057      866.847
07/30/2014  16:27:00      -95.789      123.545      -18.051       61.536       69.168       34.293     3786.688     4784.161     1175.991        1.725        0.487      156.329       26.597        0.029      347.870       27.150      866.846
07/30/2014  16:28:00     -143.073      128.693      -16.497       94.963       86.143       49.561     9018.059     7420.655     2456.308        2.810        0.945      192.436       52.503        0.074      347.921       27.238      866.837
07/30/2014  16:29:00     -182.357      217.817      -39.332      125.735      113.894       64.380    15809.179    12971.801     4144.834        5.758        1.646      284.074       81.344        0.082      347.902       27.204      866.833
07/30/2014  16:30:00     -141.118      195.494      -20.118       66.351      129.589       53.358     4402.391    16793.215     2847.078        4.128        1.202      241.106       45.543        0.036      347.903       27.205      866.831
07/30/2014  16:31:00      -98.026       -2.575       -0.693      110.874       80.821       53.503    12292.959     6532.049     2862.536        1.565        1.084       98.060       50.815        0.269      347.951       27.290      866.826
07/30/2014  16:32:00     -133.445      -38.664      -19.850      127.843       95.118       44.219    16343.885     9047.377     1955.348        2.352        1.367      138.933       29.410        0.045      347.856       27.126      866.815
07/30/2014  16:33:00     -280.210      -32.703      -29.238      110.039      106.716       54.028    12108.625    11388.284     2919.046        5.342        1.321      282.111       51.170        0.033      347.689       26.835      866.818
07/30/2014  16:34:00     -192.067      -41.416        4.188      127.519       92.913       52.802    16261.220     8632.824     2788.019        3.315        1.384      196.481       50.046        0.065      347.691       26.842      866.803
07/30/2014  16:35:00     -158.842        3.329       -2.541      128.206       99.099       60.222    16436.859     9820.684     3626.662        2.756        1.494      158.877       59.406        0.140      347.722       26.896      866.801
07/30/2014  16:36:00     -239.643       53.766      -39.997       85.989       70.413       47.144     7394.063     4957.988     2222.553        3.824        0.729      245.600       29.081        0.014      347.603       26.690      866.800
07/30/2014  16:37:00     -147.432        1.281      -19.252       63.888       91.740       49.042     4081.613     8416.167     2405.074        1.850        0.745      147.438       36.138        0.060      347.638       26.750      866.781
07/30/2014  16:38:00     -180.261        5.576      -23.500       82.354       62.857       42.093     6782.192     3950.947     1771.824        2.279        0.625      180.347       36.341        0.041      347.638       26.749      866.779
07/30/2014  16:39:00     -162.712      -18.503      -17.598       71.962       62.315       41.463     5178.465     3883.183     1719.185        1.895        0.539      163.761       29.662        0.033      347.622       26.723      866.768
07/30/2014  16:40:00     -198.914       84.124      -42.313       77.110      118.936       50.927     5945.997    14145.783     2593.582        3.556        1.134      215.971       34.552        0.026      347.591       26.668      866.774
07/30/2014  16:41:00     -179.449      -21.854      -23.891       67.813       52.678       36.062     4598.606     2774.933     1300.467        2.096        0.434      180.775       28.454        0.025      347.600       26.687      866.770
07/30/2014  16:42:00     -135.603        6.772       -8.075       90.845       76.738       49.047     8252.847     5888.663     2405.604        1.752        0.827      135.772       34.300        0.064      347.589       26.667      866.772
07/30/2014  16:43:00     -172.361       17.156       -4.434       96.069       72.987       39.831     9229.177     5327.166     1586.532        2.308        0.807      173.213       31.821        0.034      347.566       26.626      866.760
07/30/2014  16:44:00     -209.803       42.053      -21.738       93.926       84.864       45.044     8822.184     7201.947     2028.985        3.215        0.903      213.976       33.986        0.025      347.508       26.525      866.738
07/30/2014  16:45:00      -85.100       32.563       -6.967       73.700       78.360       51.104     5431.718     6140.237     2611.662        1.126        0.709       91.118       35.266        0.150      347.547       26.595      866.721
07/30/2014  16:46:00     -237.884      102.630      -30.364      105.189       76.095       51.797    11064.626     5790.398     2682.922        4.379        0.977      259.078       45.232        0.030      347.520       26.546      866.717
07/30/2014  16:47:00     -106.491       -3.912        1.956      111.775       75.895       52.258    12493.552     5760.028     2730.920        1.617        1.049      106.563       43.259        0.165      347.591       26.670      866.695
07/30/2014  16:48:00     -137.203       13.570      -13.375       73.238       58.436       36.041     5363.824     3414.744     1298.936        1.463        0.504      137.873       26.930        0.038      347.568       26.630      866.687
07/30/2014  16:49:00     -224.576       22.131      -26.148      124.327       95.787       56.641    15457.181     9175.185     3208.232        3.972        1.392      225.663       65.797        0.085      347.567       26.626      866.674
07/30/2014  16:50:00     -153.339       54.801      -32.680      134.837       96.936       53.676    18180.967     9396.530     2881.076        2.902        1.523      162.838       46.509        0.082      347.553       26.604      866.664
07/30/2014  16:51:00      -85.054       53.256      -12.762       41.251       72.187       26.978     1701.606     5210.930      727.789        0.894        0.382      100.351       18.549        0.034      347.581       26.653      866.649
07/30/2014  16:52:00      -49.539       65.300        2.580       43.086       41.024       24.363     1856.391     1682.997      593.542        0.543        0.207       81.964       20.426        0.062      347.627       26.734      866.629
07/30/2014  16:53:00      -14.454       22.629       20.262       40.405       68.591       22.261     1632.597     4704.703      495.555        0.398        0.342       26.851       22.969        0.732      347.719       26.894      866.624
07/30/2014  16:54:00     -104.837       44.078        0.750       70.485       63.941       47.566     4968.114     4088.448     2262.521        1.212        0.566      113.726       48.457        0.182      347.661       26.790      866.621
07/30/2014  16:55:00      -55.650      -36.779       -4.224       56.336       47.689       23.177     3173.797     2274.212      537.172        0.523        0.299       66.705       28.933        0.188      347.675       26.815      866.615
07/30/2014  16:56:00      -69.162        9.727       -0.478       54.730       43.335       25.037     2995.414     1877.943      626.848        0.519        0.275       69.843       25.428        0.133      347.719       26.891      866.610
07/30/2014  16:57:00     -164.461       40.362      -27.188       63.260       59.799       46.174     4001.802     3575.921     2132.006        1.956        0.485      169.342       34.735        0.042      347.630       26.737      866.608
07/30/2014  16:58:00     -162.380      139.479      -31.248       64.502       71.017       46.183     4160.481     5043.355     2132.870        2.907        0.567      214.060       36.333        0.029      347.637       26.747      866.603
07/30/2014  16:59:00     -103.976      -26.924        9.336       69.659       54.842       31.581     4852.372     3007.687      997.347        1.024        0.443      107.405       31.517        0.086      347.704       26.867      866.592
07/30/2014  17:00:00     -221.346      -39.058      -17.981       86.846       80.847       43.316     7542.163     6536.283     1876.249        3.340        0.798      224.766       44.088        0.038      347.612       26.705      866.585
07/30/2014  17:01:00     -220.035      -76.221      -14.796       85.931       62.518       35.619     7384.143     3908.508     1268.743        3.350        0.628      232.862       26.371        0.013      347.592       26.670      866.571
07/30/2014  17:02:00     -158.049      -32.870       -5.051       66.607       53.621       34.861     4436.450     2875.229     1215.261        1.730        0.426      161.430       36.350        0.051      347.622       26.725      866.564
07/30/2014  17:03:00     -206.297      -24.470       -8.036       83.473       65.203       41.949     6967.677     4251.428     1759.708        2.810        0.649      207.743       42.145        0.041      347.626       26.729      866.556
07/30/2014  17:04:00     -241.037      -60.242       -8.505      143.489       92.778       58.781    20589.199     8607.710     3455.263        4.722        1.633      248.452       62.975        0.064      347.628       26.733      866.549
07/30/2014  17:05:00     -295.245     -137.560      -10.534      128.075      149.220       61.168    16403.133    22266.510     3741.472        7.430        2.121      325.718       65.955        0.041      347.499       26.508      866.552
07/30/2014  17:06:00     -252.809     -187.680       -4.495      170.478      131.851       75.935    29062.778    17384.602     5766.102        7.567        2.611      314.859       85.493        0.074      347.330       26.218      866.528
07/30/2014  17:07:00     -256.967     -157.075       -9.707      140.519      124.977       75.142    19745.598    15619.167     5646.395        6.590        2.051      301.172       65.132        0.047      347.228       26.041      866.513
07/30/2014  17:08:00     -248.514      -60.396        5.249      147.517       71.384       58.751    21761.393     5095.611     3451.703        4.787        1.515      255.747       66.924        0.068      347.291       26.150      866.512
07/30/2014  17:09:00     -245.514      -75.969       -2.084      184.288      118.217       76.982    33961.991    13975.174     5926.184        5.995        2.693      256.999       95.324        0.138      347.204       26.001      866.506
07/30/2014  17:10:00     -273.130     -176.814      -13.843      105.457      114.175       55.118    11121.150    13035.995     3037.952        6.662        1.360      325.366       55.460        0.029      347.159       25.923      866.484
07/30/2014  17:11:00      -94.351      -53.595        2.221      128.153      118.162       69.989    16423.193    13962.333     4898.491        2.352        1.764      108.510       79.892        0.542      347.222       26.034      866.485
07/30/2014  17:12:00      -41.996      -19.801       36.130      167.424      133.248       63.481    28030.720    17755.085     4029.837        2.663        2.491       46.430       77.408        2.780      347.193       25.984      866.466
07/30/2014  17:13:00     -212.388      -96.106        5.995      134.411      122.965       67.396    18066.411    15120.446     4542.218        4.605        1.886      233.120       74.680        0.103      347.091       25.805      866.453
07/30/2014  17:14:00     -305.352      -40.211      -18.083      130.638      129.736       63.060    17066.167    16831.530     3976.535        6.652        1.894      307.989       66.244        0.046      347.029       25.699      866.482
07/30/2014  17:15:00     -382.072      -41.058      -17.979      149.009      114.379       62.519    22203.706    13082.515     3908.648        9.358        1.960      384.271       68.027        0.031      346.923       25.515      866.482
07/30/2014  17:16:00     -348.962      -94.047      -14.278      141.657      116.126       64.497    20066.778    13485.338     4159.895        8.426        1.886      361.413       61.391        0.029      346.894       25.466      866.457
07/30/2014  17:17:00     -257.681      -61.825      -14.322      102.169      103.762       61.792    10438.580    10766.453     3818.205        4.772        1.251      264.994       52.884        0.040      346.930       25.527      866.446
07/30/2014  17:18:00     -331.322      -31.560      -13.474      176.884      127.361       85.825    31287.955    16220.876     7365.918        8.290        2.744      332.821       96.798        0.085      346.898       25.473      866.415
07/30/2014  17:19:00     -330.465      -74.415       -7.446      217.460      130.142       77.345    47288.969    16936.920     5982.278        9.249        3.510      338.740       94.263        0.077      346.862       25.411      866.392
07/30/2014  17:20:00     -621.009      -63.629      -25.529      237.000      157.786       89.098    56169.197    24896.382     7938.488       23.966        4.450      624.260      109.992        0.031      346.789       25.285      866.361
07/30/2014  17:21:00     -551.276      -82.919      -24.359      218.785      158.020       81.267    47866.729    24970.330     6604.405       19.539        3.972      557.477      109.346        0.038      346.813       25.328      866.342
07/30/2014  17:22:00     -439.697      -49.661      -28.781      170.437      163.654       81.350    29048.818    26782.708     6617.822       12.953        3.122      442.493       89.318        0.041      346.805       25.314      866.343
07/30/2014  17:23:00     -308.829     -121.134       -2.424      161.778      120.041       68.423    26172.266    14409.776     4681.697        7.765        2.263      331.736       78.728        0.056      346.831       25.357      866.339
07/30/2014  17:24:00     -312.680       -2.489      -16.502      169.345      157.266       71.828    28677.819    24732.728     5159.216        7.830        2.928      312.690       83.347        0.071      346.818       25.337      866.310
07/30/2014  17:25:00     -438.573      -69.818      -35.006      153.337      138.849       70.439    23512.248    19279.093     4961.687       12.309        2.388      444.096       80.134        0.033      346.802       25.308      866.300
07/30/2014  17:26:00     -415.765     -108.544      -10.505      150.835      144.633       71.219    22751.215    20918.682     5072.216       11.674        2.437      429.701       76.067        0.031      346.785       25.277      866.284
07/30/2014  17:27:00     -333.777     -101.155      -27.376      145.819      128.043       72.085    21263.201    16394.990     5196.283        8.261        2.143      348.769       58.432        0.028      346.812       25.326      866.281
07/30/2014  17:28:00     -402.122      -43.095      -14.426      144.751      132.801       64.100    20952.852    17636.027     4108.750       10.322        2.135      404.425       66.249        0.027      346.811       25.323      866.289
07/30/2014  17:29:00     -233.074      -31.740        4.517      140.203       90.239       61.887    19656.952     8143.121     3829.972        4.348        1.582      235.225       66.848        0.081      346.859       25.407      866.277
07/30/2014  17:30:00     -352.438      -58.153      -17.873      108.223       88.491       58.148    11712.320     7830.578     3381.154        7.541        1.146      357.203       58.284        0.027      346.829       25.355      866.275
07/30/2014  17:31:00     -171.003      -51.520        4.861      121.073      103.850       58.860    14658.647    10784.827     3464.475        3.041        1.445      178.596       68.836        0.149      346.879       25.442      866.266
07/30/2014  17:32:00     -109.960      -83.151       13.938       91.458       91.217       53.471     8364.483     8320.479     2859.195        1.937        0.977      137.860       47.338        0.118      346.907       25.491      866.271
07/30/2014  17:33:00     -138.639      -73.282        3.230      101.844       93.339       49.460    10372.302     8712.174     2446.280        2.306        1.077      156.815       54.723        0.122      346.926       25.522      866.264
07/30/2014  17:34:00      -97.017      -53.592       17.567      129.457      101.383       66.014    16759.115    10278.546     4357.786        2.199        1.570      110.835       69.201        0.390      346.945       25.555      866.260
07/30/2014  17:35:00     -150.149      -46.721       -0.268      104.443       94.311       51.037    10908.404     8894.586     2604.757        2.356        1.120      157.250       55.699        0.125      346.988       25.630      866.267
07/30/2014  17:36:00     -175.917     -113.794       -9.560       90.734       81.360       42.246     8232.684     6619.369     1784.729        3.031        0.832      209.513       44.255        0.045      346.978       25.612      866.267
07/30/2014  17:37:00     -196.738      -55.940       -2.634       77.667       70.123       45.563     6032.197     4917.208     2075.981        2.743        0.651      204.536       45.384        0.049      346.982       25.619      866.256
07/30/2014  17:38:00     -132.591      -67.112        7.849      106.391       76.899       45.316    11319.014     5913.510     2053.558        2.071        0.964      148.608       45.879        0.095      346.997       25.647      866.257
07/30/2014  17:39:00     -232.177      -46.358      -11.734       99.284      102.273       49.623     9857.354    10459.727     2462.438        3.948        1.139      236.760       48.216        0.041      346.954       25.569      866.266
07/30/2014  17:40:00     -289.296      -41.508      -25.173       74.955       72.597       47.028     5618.274     5270.365     2211.600        4.957        0.655      292.258       41.066        0.020      346.923       25.514      866.255
07/30/2014  17:41:00     -229.594     -105.140      -12.619       88.315       88.814       49.472     7799.503     7887.928     2447.486        4.103        0.907      252.523       41.606        0.027      346.944       25.551      866.255
07/30/2014  17:42:00     -195.646        7.278       -1.973      101.303       88.570       49.694    10262.395     7844.601     2469.501        2.945        1.029      195.781       53.609        0.075      346.948       25.559      866.239
07/30/2014  17:43:00     -249.443      -46.498      -11.896      111.453       77.077       50.597    12421.868     5940.813     2560.083        4.272        1.046      253.740       53.404        0.044      346.931       25.531      866.227
07/30/2014  17:44:00     -247.757      -86.239      -19.269      126.333       63.925       46.255    15959.988     4086.384     2139.534        4.568        1.109      262.337       52.483        0.040      346.930       25.530      866.223
07/30/2014  17:45:00     -236.360       -8.887      -16.080      103.385       81.524       40.680    10688.361     6646.125     1654.827        3.759        0.949      236.527       41.970        0.031      346.940       25.546      866.212
07/30/2014  17:46:00     -147.374      -21.019       -1.198       85.732       73.763       40.395     7350.011     5440.944     1631.753        1.829        0.721      148.865       43.477        0.085      347.004       25.657      866.203
07/30/2014  17:47:00     -118.511      -63.875       14.567      105.551       86.393       51.669    11141.033     7463.711     2669.707        1.980        1.064      134.628       48.973        0.132      347.030       25.702      866.193
07/30/2014  17:48:00     -123.234     -102.081        5.196       92.924       86.984       43.581     8634.947     7566.290     1899.279        2.186        0.905      160.023       46.021        0.083      347.051       25.740      866.182
07/30/2014  17:49:00     -178.423     -115.706       -6.957       75.052       80.897       42.139     5632.844     6544.261     1775.697        2.961        0.698      212.656       30.678        0.021      346.999       25.648      866.168
07/30/2014  17:50:00     -179.190        0.599        0.919      122.839       68.159       45.764    15089.522     4645.677     2094.332        2.697        1.091      179.191       45.402        0.064      347.027       25.698      866.150
07/30/2014  17:51:00     -104.650      -76.222      -14.696      102.160       80.466       41.240    10436.694     6474.747     1700.760        1.779        0.931      129.466       46.913        0.131      347.063       25.760      866.123
07/30/2014  17:52:00     -144.139      -22.243       -2.518      105.063       73.168       39.777    11038.194     5353.591     1582.186        1.962        0.899      145.845       53.539        0.135      347.041       25.720      866.092
07/30/2014  17:53:00     -204.817       37.554      -14.847       68.235       47.177       32.236     4656.064     2225.637     1039.178        2.575        0.396      208.231       28.727        0.019      346.955       25.571      866.061
07/30/2014  17:54:00     -112.958      -40.277       12.615       68.331       55.407       33.577     4669.084     3069.976     1127.429        1.170        0.443      119.924       26.422        0.049      347.008       25.667      866.013
07/30/2014  17:55:00      -47.702      -38.369        1.591       40.756       41.982       19.184     1661.022     1762.513      368.010        0.377        0.190       61.218       17.228        0.079      346.988       25.632      865.948
07/30/2014  17:56:00      -45.351      -13.994        8.829       36.996       25.661       18.081     1368.741      658.491      326.906        0.234        0.118       47.461       15.454        0.106      346.999       25.652      865.882
07/30/2014  17:57:00      -22.736      -42.333       -7.830       27.475       26.061       17.837      754.861      679.150      318.175        0.206        0.088       48.053       21.142        0.194      346.934       25.541      865.813
07/30/2014  17:58:00      -16.026       -3.472       38.252       36.134       34.303       17.939     1305.689     1176.730      321.823        0.227        0.140       16.398       12.159        0.550      347.104       25.833      865.751
07/30/2014  17:59:00       -4.515       19.424       24.141       10.923       15.696       13.369      119.314      246.374      178.737        0.076        0.027       19.942        6.615        0.110      347.111       25.844      865.699
07/30/2014  18:00:00      -54.491       19.076       -8.682       33.243       25.545       14.031     1105.115      652.545      196.873        0.268        0.098       57.734       11.528        0.040      347.025       25.694      865.670
07/30/2014  18:01:00     -146.442       11.815       -5.595       72.526       27.391       19.184     5260.042      750.269      368.033        1.400        0.319      146.918       26.166        0.032      346.950       25.565      865.669
07/30/2014  18:02:00     -240.665      -86.046      -29.246       85.141       74.899       42.516     7248.972     5609.862     1807.644        4.042        0.733      255.585       43.621        0.029      347.003       25.654      865.683
07/30/2014  18:03:00     -258.046      -18.141      -16.558       92.963       82.547       45.130     8642.095     6814.088     2036.720        4.234        0.875      258.683       45.687        0.031      346.957       25.575      865.670
07/30/2014  18:04:00     -213.691      -27.630       -2.661       93.917       58.819       39.823     8820.406     3459.657     1585.854        3.015        0.693      215.470       42.176        0.038      346.933       25.533      865.646
07/30/2014  18:05:00     -172.950      -70.193       -4.470       88.421       55.809       35.821     7818.341     3114.639     1283.134        2.353        0.611      186.651       31.645        0.029      346.999       25.649      865.644
07/30/2014  18:06:00     -171.287      -57.591        6.199       74.683       51.006       33.319     5577.567     2601.595     1110.177        2.099        0.464      180.710       30.630        0.029      347.040       25.720      865.650
07/30/2014  18:07:00     -159.453      -21.140        1.618       79.676       78.811       44.707     6348.328     6211.100     1998.699        2.021        0.728      160.848       37.784        0.055      347.084       25.794      865.646
07/30/2014  18:08:00     -234.476       11.120       -8.161      104.338       75.978       43.377    10886.416     5772.709     1881.543        3.685        0.927      234.740       48.706        0.043      347.084       25.792      865.638
07/30/2014  18:09:00     -120.306      -19.554        6.483       66.381       57.903       35.681     4406.435     3352.767     1273.101        1.196        0.452      121.885       32.445        0.071      347.101       25.825      865.634
07/30/2014  18:10:00     -135.981      -60.455       -1.238       97.372       97.122       41.599     9481.226     9432.710     1730.500        2.139        1.032      148.815       45.225        0.092      347.083       25.794      865.642
07/30/2014  18:11:00     -191.545     -114.911       -8.896      100.357      128.092       48.751    10071.553    16407.678     2376.639        3.941        1.443      223.370       44.356        0.039      347.027       25.695      865.632
07/30/2014  18:12:00     -184.087     -171.922       -6.616      139.511      120.391       58.338    19463.414    14493.933     3403.352        5.042        1.868      251.883       77.133        0.094      347.016       25.679      865.593
07/30/2014  18:13:00     -179.040      -63.796        2.567      105.460       93.039       50.874    11121.752     8656.216     2588.119        2.924        1.118      190.066       51.881        0.075      347.043       25.724      865.575
07/30/2014  18:14:00     -147.970      -18.701        5.244       90.154       77.792       48.778     8127.799     6051.611     2379.331        1.941        0.828      149.148       51.329        0.118      347.024       25.692      865.552
07/30/2014  18:15:00     -198.492     -107.078       -6.537      104.281       82.515       49.620    10874.459     6808.751     2462.172        3.552        1.007      225.532       47.509        0.044      347.048       25.732      865.515
07/30/2014  18:16:00     -201.633      -94.430       -0.716      122.023       92.520       60.733    14889.730     8559.943     3688.528        3.835        1.357      222.650       66.013        0.088      347.085       25.794      865.489
07/30/2014  18:17:00     -189.631      -26.529      -16.826      115.033       67.997       45.318    13232.543     4623.540     2053.757        2.842        0.995      191.478       52.811        0.076      347.126       25.868      865.467
07/30/2014  18:18:00     -196.538      -27.797       -2.151       79.747       62.018       37.877     6359.609     3846.264     1434.686        2.552        0.582      198.493       34.924        0.031      347.121       25.858      865.445
07/30/2014  18:19:00     -201.808      -13.733      -20.320      105.183       59.216       43.067    11063.411     3506.592     1854.743        2.887        0.821      202.274       55.073        0.074      347.160       25.923      865.440
07/30/2014  18:20:00     -141.247      -56.898       -6.907       48.132       58.653       32.033     2316.661     3440.156     1026.131        1.501        0.339      152.276       28.046        0.034      347.166       25.939      865.435
07/30/2014  18:21:00     -188.965      -75.908      -11.216      100.749       62.562       40.050    10150.362     3914.017     1603.995        2.863        0.783      203.641       48.403        0.056      347.216       26.023      865.429
07/30/2014  18:22:00     -100.302      -38.094        4.596       66.908       65.977       37.338     4476.656     4352.979     1394.160        1.088        0.511      107.292       36.677        0.117      347.253       26.088      865.430
07/30/2014  18:23:00     -160.848      -20.087      -12.911       46.839       53.574       26.160     2193.863     2870.200      684.364        1.609        0.287      162.097       23.079        0.020      347.250       26.083      865.437
07/30/2014  18:24:00     -190.385       41.767      -10.984       49.698       53.584       26.583     2469.905     2871.207      706.631        2.208        0.302      194.913       22.014        0.013      347.239       26.062      865.440
07/30/2014  18:25:00     -175.596       17.066      -19.075       70.698       43.196       27.450     4998.170     1865.932      753.490        1.955        0.381      176.423       27.226        0.024      347.242       26.066      865.445
07/30/2014  18:26:00     -157.660      -35.397      -11.934       47.847       32.400       21.162     2289.292     1049.781      447.836        1.502        0.189      161.585       25.268        0.024      347.260       26.100      865.457
07/30/2014  18:27:00      -97.126      -34.003        1.138       45.870       43.659       29.344     2104.092     1906.140      861.059        0.773        0.244      102.906       30.620        0.089      347.262       26.104      865.467
07/30/2014  18:28:00      -95.688      -16.975       -1.733       54.981       48.665       24.536     3022.904     2368.266      602.011        0.772        0.300       97.182       16.967        0.030      347.249       26.082      865.476
07/30/2014  18:29:00     -108.972      -24.069      -13.911       44.647       44.071       28.179     1993.347     1942.233      794.083        0.869        0.236      111.599       20.791        0.035      347.219       26.028      865.483
07/30/2014  18:30:00     -121.126      -44.087       -8.584       81.491       48.401       29.446     6640.743     2342.620      867.071        1.327        0.493      128.900       33.505        0.068      347.231       26.049      865.500
07/30/2014  18:31:00     -136.566      -54.030      -16.089       38.198       33.322       25.741     1459.086     1110.387      662.579        1.253        0.162      146.865       15.964        0.012      347.242       26.072      865.523
07/30/2014  18:32:00      -91.789      -30.161       -7.524       64.951       48.357       31.082     4218.626     2338.353      966.064        0.846        0.376       96.618       19.806        0.042      347.247       26.080      865.539
07/30/2014  18:33:00     -197.770      -29.767      -17.849       75.944       63.947       35.457     5767.455     4089.185     1257.183        2.571        0.556      199.998       28.202        0.020      347.269       26.112      865.562
07/30/2014  18:34:00      -62.783       19.842        3.134       63.512       50.660       51.157     4033.713     2566.463     2617.054        0.678        0.461       65.844       41.925        0.405      347.318       26.198      865.580
07/30/2014  18:35:00      -44.735       65.119       -4.791       44.634       63.682       26.559     1992.176     4055.446      705.372        0.651        0.338       79.005       20.077        0.065      347.333       26.225      865.604
07/30/2014  18:36:00      -95.676       17.570      -11.278       47.750       63.172       44.716     2280.050     3990.668     1999.533        0.893        0.414       97.275       27.450        0.080      347.369       26.289      865.602
07/30/2014  18:37:00     -113.998       30.143      -22.607       59.562       65.097       32.504     3547.674     4237.625     1056.507        1.163        0.442      117.916       32.220        0.075      347.481       26.481      865.609
07/30/2014  18:38:00     -145.380      139.294      -37.656       63.786       65.271       33.567     4068.668     4260.368     1126.748        2.570        0.473      201.341       44.655        0.049      347.601       26.687      865.615
07/30/2014  18:39:00      -51.531      130.878      -17.364       37.852       54.242       31.794     1432.790     2942.144     1010.831        1.273        0.269      140.657       34.394        0.060      347.566       26.627      865.615
07/30/2014  18:40:00      -31.205       56.164        5.403       51.190       44.394       28.884     2620.399     1970.831      834.298        0.479        0.271       64.251       29.835        0.216      347.596       26.680      865.625
07/30/2014  18:41:00      -19.605       37.217       11.900       64.163       35.215       32.291     4116.941     1240.106     1042.717        0.415        0.320       42.064       32.904        0.612      347.576       26.644      865.638
07/30/2014  18:42:00      -32.404       19.137       -4.032       36.189       52.693       25.346     1309.666     2776.593      642.439        0.308        0.236       37.633       16.547        0.193      347.575       26.647      865.647
07/30/2014  18:43:00     -101.223       79.261      -22.021       60.375       80.386       38.473     3645.133     6461.906     1480.149        1.430        0.579      128.563       42.629        0.110      347.560       26.614      865.641
07/30/2014  18:44:00     -107.875      136.469      -18.511       62.607       73.708       47.986     3919.636     5432.893     2302.673        2.113        0.583      173.956       41.854        0.058      347.562       26.618      865.638
07/30/2014  18:45:00      -17.832      135.819      -10.296      134.117       54.619       52.708    17987.261     2983.266     2778.171        2.130        1.187      136.984       61.581        0.202      347.543       26.586      865.643
07/30/2014  18:46:00     -109.079      138.066      -18.469       72.525       80.124       36.722     5259.895     6419.905     1348.525        2.216        0.651      175.956       39.067        0.049      347.567       26.627      865.663
07/30/2014  18:47:00      -79.941       83.969       -8.342       50.126       49.296       26.255     2512.647     2430.129      689.312        0.957        0.282      115.937       19.770        0.029      347.548       26.598      865.662
07/30/2014  18:48:00      -83.386      114.300      -13.386       67.345       74.445       36.782     4535.334     5542.024     1352.929        1.581        0.572      141.484       43.055        0.093      347.557       26.607      865.670
07/30/2014  18:49:00     -125.330      204.498      -36.147       57.029       60.059       37.575     3252.270     3607.133     1411.870        3.355        0.414      239.848       26.024        0.012      347.560       26.613      865.669
07/30/2014  18:50:00      -53.409      219.799      -27.886       48.069       66.616       36.752     2310.669     4437.752     1350.695        3.002        0.405      226.195       11.751        0.003      347.538       26.576      865.665
07/30/2014  18:51:00      -71.774      236.882      -25.233       62.059       77.673       41.534     3851.377     6033.169     1725.046        3.675        0.580      247.517       39.516        0.025      347.549       26.595      865.671
07/30/2014  18:52:00      -45.356      125.319       -4.903       49.180       54.167       39.491     2418.629     2934.046     1559.570        1.235        0.346      133.274       29.586        0.049      347.569       26.634      865.664
07/30/2014  18:53:00     -137.533      197.760      -32.874       90.787       96.315       51.205     8242.295     9276.525     2621.966        3.962        1.007      240.883       43.154        0.032      347.551       26.598      865.664
07/30/2014  18:54:00     -258.213      319.942      -64.471      116.661      137.784       68.744    13609.695    18984.507     4725.757       10.525        1.866      411.141       64.145        0.024      347.489       26.492      865.667
07/30/2014  18:55:00     -163.926      234.946      -46.510       95.560       98.278       52.918     9131.774     9658.649     2800.321        5.291        1.080      286.481       63.120        0.049      347.509       26.526      865.666
07/30/2014  18:56:00     -114.010      295.471      -33.675       87.570      112.375       53.404     7668.425    12628.147     2851.963        6.229        1.157      316.704       50.105        0.025      347.510       26.527      865.655
07/30/2014  18:57:00      -77.293      123.583      -11.339       68.961       92.709       41.632     4755.630     8594.950     1733.264        1.823        0.754      145.764       23.225        0.025      347.517       26.542      865.637
07/30/2014  18:58:00     -103.879      168.127      -18.976       80.490       95.562       44.459     6478.641     9132.083     1976.601        2.850        0.879      197.630       50.693        0.066      347.525       26.555      865.626
07/30/2014  18:59:00     -109.264      123.870      -12.152       71.595       68.148       44.871     5125.895     4644.105     2013.436        1.960        0.589      165.173       40.293        0.060      347.544       26.587      865.602
07/30/2014  19:00:00     -136.264      120.724      -14.155       80.072       83.836       45.194     6411.493     7028.394     2042.530        2.441        0.774      182.050       28.642        0.025      347.558       26.611      865.587
07/30/2014  19:01:00     -162.206      314.624      -37.617      101.093      104.996       65.823    10219.782    11024.118     4332.723        7.614        1.279      353.976       54.704        0.024      347.516       26.537      865.569
07/30/2014  19:02:00     -167.941      252.387      -46.809      107.413       92.615       62.565    11537.626     8577.477     3914.324        5.906        1.201      303.156       57.158        0.036      347.532       26.567      865.546
07/30/2014  19:03:00     -189.515      277.986      -46.777      116.257      129.673       64.494    13515.584    16815.009     4159.428        7.493        1.725      336.440       71.511        0.045      347.526       26.555      865.534
07/30/2014  19:04:00     -239.735      314.837      -66.969      116.832      113.798       59.858    13649.723    12949.995     3583.035        9.563        1.509      395.721       63.403        0.026      347.539       26.578      865.526
07/30/2014  19:05:00     -198.347      211.706      -48.231       83.397       81.326       47.602     6955.092     6613.919     2265.907        5.116        0.792      290.105       45.343        0.024      347.560       26.614      865.536
07/30/2014  19:06:00     -137.683      108.720      -14.950       86.299       72.256       46.308     7447.465     5220.942     2144.406        2.290        0.741      175.433       44.238        0.064      347.551       26.601      865.527
07/30/2014  19:07:00      -66.990       32.977        8.781       82.574       63.118       44.271     6818.504     3983.872     1959.950        0.920        0.638       74.667       47.717        0.408      347.605       26.694      865.516
07/30/2014  19:08:00      -84.271       60.063      -13.998       85.173      119.460       55.576     7254.444    14270.615     3088.703        1.775        1.231      103.485       55.593        0.289      347.607       26.700      865.507
07/30/2014  19:09:00     -162.893       -5.819      -15.684       83.102       76.346       44.183     6906.010     5828.726     1952.149        2.075        0.734      162.997       21.903        0.018      347.608       26.702      865.499
07/30/2014  19:10:00      -55.297        9.106       -0.868       63.369       48.462       27.167     4015.653     2348.579      738.023        0.512        0.355       56.042       36.990        0.436      347.679       26.821      865.502
07/30/2014  19:11:00     -119.348       77.870      -17.444       67.176       71.082       43.642     4512.619     5052.672     1904.606        1.604        0.573      142.505       33.474        0.055      347.669       26.805      865.504
07/30/2014  19:12:00     -190.489      108.669      -29.085      109.462       73.392       48.820    11981.948     5386.440     2383.369        3.434        0.988      219.306       51.755        0.056      347.674       26.812      865.506
07/30/2014  19:13:00      -84.294       40.645        5.971       76.923       83.819       49.644     5917.134     7025.565     2464.506        1.210        0.770       93.582       41.798        0.199      347.674       26.814      865.505
07/30/2014  19:14:00     -161.593      107.253      -25.915       94.386      121.293       59.035     8908.761    14712.005     3485.176        3.269        1.355      193.947       52.746        0.074      347.648       26.767      865.507
07/30/2014  19:15:00     -193.604      112.452      -33.526       75.859       77.132       44.831     5754.633     5949.359     2009.814        3.248        0.686      223.893       32.922        0.022      347.585       26.656      865.495
07/30/2014  19:16:00     -266.712       95.756      -46.377      135.210       74.147       48.060    18281.671     5497.711     2309.797        5.427        1.304      283.380       52.724        0.035      347.606       26.691      865.488
07/30/2014  19:17:00     -131.779       59.923      -16.380      107.522       89.943       50.367    11560.984     8089.742     2536.845        2.170        1.109      144.764       42.292        0.085      347.623       26.723      865.493
07/30/2014  19:18:00     -237.788      105.442      -39.340      135.587      127.957       46.783    18383.792    16372.978     2188.617        5.307        1.847      260.117       45.337        0.030      347.646       26.762      865.488
07/30/2014  19:19:00     -141.231       46.239       -7.423      121.007      125.249       76.983    14642.700    15687.303     5926.375        2.919        1.813      148.608       72.119        0.236      347.627       26.731      865.508
07/30/2014  19:20:00      -76.287       22.819       24.573      124.612       87.163       53.324    15528.160     7597.362     2843.452        1.645        1.298       79.626       53.488        0.451      347.639       26.754      865.531
07/30/2014  19:21:00     -231.974      124.696      -53.032       87.861      104.577       49.322     7719.512    10936.339     2432.649        4.663        1.054      263.365       41.458        0.025      347.615       26.709      865.543
07/30/2014  19:22:00     -159.130       59.421       -6.655       85.245      103.422       55.056     7266.678    10696.070     3031.174        2.494        1.050      169.862       41.244        0.059      347.659       26.784      865.550
07/30/2014  19:23:00     -169.263       36.184      -10.611       78.116      153.096       51.560     6102.160    23438.255     2658.443        3.113        1.610      173.088       48.149        0.077      347.657       26.781      865.565
07/30/2014  19:24:00     -137.851      -40.081       -3.285       78.611       52.658       37.868     6179.717     2772.876     1434.021        1.550        0.519      143.560       33.841        0.056      347.633       26.743      865.577
07/30/2014  19:25:00     -157.015      -54.467      -10.658      102.400       61.442       48.207    10485.773     3775.065     2323.893        2.216        0.829      166.193       45.791        0.076      347.625       26.728      865.585
07/30/2014  19:26:00     -202.781     -111.668      -10.455      103.485       73.168       46.283    10709.166     5353.486     2142.157        3.595        0.910      231.495       47.768        0.043      347.595       26.676      865.596
07/30/2014  19:27:00     -226.039     -160.232      -10.459       80.519       76.818       47.676     6483.279     5900.996     2272.992        4.576        0.733      277.071       43.171        0.024      347.609       26.701      865.622
07/30/2014  19:28:00     -220.568     -119.158        0.034       90.254       70.274       46.654     8145.710     4938.470     2176.573        3.905        0.763      250.697       33.740        0.018      347.600       26.684      865.645
07/30/2014  19:29:00     -174.044     -117.425       10.097      103.720       80.356       48.037    10757.771     6457.048     2307.558        3.185        0.976      209.952       50.280        0.057      347.573       26.640      865.674
07/30/2014  19:30:00     -189.942     -136.974       -4.086       70.485       72.298       44.300     4968.120     5226.944     1962.494        3.350        0.608      234.179       36.769        0.025      347.529       26.560      865.683
07/30/2014  19:31:00     -219.531      -84.250       10.397      129.742       96.766       55.800    16832.983     9363.588     3113.689        4.235        1.466      235.143       56.433        0.058      347.459       26.439      865.694
07/30/2014  19:32:00     -165.214     -117.749        4.327      106.113       70.569       54.612    11260.016     4979.976     2982.490        3.020        0.961      202.881       57.603        0.081      347.417       26.367      865.697
07/30/2014  19:33:00     -231.770     -123.967       -1.778       85.787       67.319       44.307     7359.349     4531.791     1963.077        4.147        0.693      262.840       43.370        0.027      347.384       26.308      865.695
07/30/2014  19:34:00     -144.532      -60.686       16.503      120.358       69.388       40.589    14485.997     4814.702     1647.447        2.289        1.047      156.755       55.197        0.124      347.368       26.284      865.689
07/30/2014  19:35:00     -141.981      -72.016        1.724       75.344       60.287       43.809     5676.735     3634.464     1919.232        1.829        0.562      159.201       35.460        0.050      347.360       26.272      865.686
07/30/2014  19:36:00     -128.846     -103.630       -4.856       85.089       66.001       32.066     7240.173     4356.156     1028.214        1.999        0.631      165.349       27.979        0.029      347.343       26.244      865.686
07/30/2014  19:37:00      -59.607      -53.365        6.691       54.529       51.402       31.740     2973.448     2642.211     1007.417        0.653        0.331       80.005       32.992        0.170      347.356       26.268      865.676
07/30/2014  19:38:00      -60.849      -52.397        6.043       57.906       58.363       32.434     3353.108     3406.246     1051.940        0.715        0.391       80.300       26.816        0.112      347.340       26.238      865.668
07/30/2014  19:39:00     -182.814       -0.498      -10.721       78.391       56.461       35.824     6145.106     3187.863     1283.327        2.207        0.531      182.815       31.765        0.030      347.293       26.155      865.670
07/30/2014  19:40:00      -66.965      -26.126       12.042       66.838       62.991       28.400     4467.316     3967.819      806.571        0.728        0.462       71.881       28.636        0.159      347.314       26.192      865.672
07/30/2014  19:41:00     -229.089      -63.899       -8.990       74.237       68.065       47.001     5511.083     4632.834     2209.096        3.450        0.618      237.834       43.320        0.033      347.265       26.104      865.656
07/30/2014  19:42:00     -226.032      -43.915      -16.910       92.357       66.186       41.332     8529.833     4380.524     1708.357        3.396        0.731      230.258       41.643        0.033      347.264       26.100      865.668
07/30/2014  19:43:00     -122.046      -32.577      -11.489       69.828       44.270       33.053     4875.997     1959.811     1092.524        1.201        0.396      126.319       32.218        0.065      347.262       26.103      865.675
07/30/2014  19:44:00     -111.405       -3.630        0.578       80.463       59.416       36.510     6474.235     3530.238     1332.985        1.188        0.567      111.464       35.766        0.103      347.235       26.055      865.666
07/30/2014  19:45:00     -158.451       -4.608      -11.482       55.901       46.971       27.931     3124.874     2206.271      780.127        1.568        0.306      158.518       28.185        0.032      347.196       25.988      865.656
07/30/2014  19:46:00      -86.365       -0.325      -13.092       42.819       54.086       29.634     1833.505     2925.313      878.168        0.663        0.282       86.365       23.693        0.075      347.210       26.013      865.649
07/30/2014  19:47:00      -75.270       12.226       -8.500       29.255       41.422       26.392      855.857     1715.815      696.520        0.458        0.163       76.257       24.604        0.104      347.220       26.029      865.634
07/30/2014  19:48:00     -117.624      -18.451      -16.635       48.526       69.127       28.270     2354.804     4778.479      799.213        1.119        0.397      119.062       29.252        0.060      347.197       25.991      865.617
07/30/2014  19:49:00     -166.062      -46.721      -10.384       46.500       52.029       29.053     2162.262     2707.049      844.066        1.779        0.286      172.509       11.892        0.005      347.164       25.936      865.613
07/30/2014  19:50:00     -258.142      -71.144      -19.477       69.399       49.180       36.260     4816.230     2418.642     1314.793        4.031        0.427      267.766       37.460        0.020      347.124       25.860      865.590
07/30/2014  19:51:00     -223.989      -90.899      -19.547       71.594       56.077       40.159     5125.767     3144.601     1612.727        3.435        0.494      241.731       26.392        0.012      347.104       25.828      865.572
07/30/2014  19:52:00     -227.788      -86.117        1.720       75.610       58.302       37.003     5716.875     3399.086     1369.199        3.489        0.524      243.524       37.385        0.024      347.103       25.826      865.558
07/30/2014  19:53:00     -215.442      -16.476        0.232       69.195       66.495       43.550     4787.992     4421.580     1896.573        2.889        0.555      216.071       41.610        0.037      347.077       25.781      865.553
07/30/2014  19:54:00     -170.892      -41.270       -3.806       70.749       53.281       28.365     5005.455     2838.841      804.588        1.978        0.432      175.804       28.449        0.026      347.062       25.757      865.540
07/30/2014  19:55:00     -168.587      -64.333      -14.887       63.832       64.558       32.249     4074.511     4167.706     1039.983        2.103        0.464      180.445       33.753        0.035      347.079       25.786      865.521
07/30/2014  19:56:00     -190.048      -68.006       -3.085       81.521       81.872       32.190     6645.686     6703.089     1036.169        2.757        0.719      201.849       34.477        0.029      347.150       25.909      865.514
07/30/2014  19:57:00     -116.335      -58.733       -3.452       51.862       57.401       26.938     2689.672     3294.864      725.647        1.185        0.336      130.321       19.507        0.022      347.191       25.982      865.514
07/30/2014  19:58:00     -116.016      -20.255        4.476       71.655       48.460       31.841     5134.495     2348.352     1013.821        1.119        0.425      117.770       37.636        0.102      347.167       25.940      865.510
07/30/2014  19:59:00     -198.370       -1.875      -23.794       72.446       33.582       28.051     5248.447     1127.744      786.865        2.354        0.358      198.379       38.958        0.039      347.124       25.864      865.517
07/30/2014  20:00:00     -176.168      -27.730      -10.685       49.728       47.841       27.791     2472.914     2288.769      772.360        1.873        0.277      178.337       27.763        0.024      347.186       25.972      865.521
07/30/2014  20:01:00     -152.023      -98.287        0.833       66.169       51.290       28.744     4378.392     2630.622      826.237        2.030        0.392      181.029       23.171        0.016      347.173       25.947      865.513
07/30/2014  20:02:00     -158.262      -94.955        0.945       76.431       62.443       39.745     5841.635     3899.114     1579.692        2.269        0.566      184.563       37.561        0.041      347.256       26.090      865.514
07/30/2014  20:03:00     -114.960       -8.053       -1.752       60.176       43.598       28.458     3621.149     1900.786      809.884        0.981        0.317      115.241       26.205        0.052      347.225       26.040      865.534
07/30/2014  20:04:00     -136.560       -7.958        1.425       45.582       43.729       24.556     2077.749     1912.214      603.001        1.165        0.230      136.791       24.609        0.032      347.185       25.970      865.543
07/30/2014  20:05:00     -103.899      -35.530        3.878       52.640       46.305       21.861     2770.940     2144.159      477.920        0.873        0.270      109.806       19.836        0.033      347.190       25.977      865.540
07/30/2014  20:06:00     -182.162      -11.629      -13.666       50.694       48.982       26.068     2569.846     2399.231      679.533        1.958        0.282      182.533       17.920        0.010      347.213       26.017      865.549
07/30/2014  20:07:00     -183.610       22.030      -10.411       31.445       23.510       17.504      988.776      552.729      306.395        1.808        0.092      184.927       13.660        0.005      347.206       26.005      865.566
07/30/2014  20:08:00     -101.982      -26.976       -8.274       38.579       20.710       16.721     1488.347      428.899      279.605        0.670        0.110      105.489       19.649        0.035      347.180       25.960      865.570
07/30/2014  20:09:00     -111.442      -11.064      -10.423       45.607       28.308       19.931     2080.019      801.315      397.256        0.796        0.164      111.989       20.936        0.035      347.168       25.942      865.584
07/30/2014  20:10:00     -143.626       19.486      -16.287       22.258       23.840       17.336      495.416      568.351      300.553        1.132        0.068      144.942       12.530        0.007      347.201       25.997      865.594
07/30/2014  20:11:00     -116.804       12.860      -17.301       45.064       23.872       17.168     2030.743      569.853      294.751        0.850        0.145      117.510       17.738        0.023      347.156       25.921      865.615
07/30/2014  20:12:00     -143.414      -69.928       -9.857       54.518       54.935       24.042     2972.221     3017.827      578.016        1.606        0.328      159.554       24.423        0.023      347.236       26.057      865.618
07/30/2014  20:13:00     -131.579      -28.836        7.264       51.751       45.556       30.336     2678.171     2075.337      920.270        1.193        0.284      134.702       30.306        0.051      347.510       26.532      865.596
07/30/2014  20:14:00      -93.411       22.107       -5.551       61.587       55.042       27.800     3792.998     3029.600      772.850        0.842        0.380       95.991       29.430        0.094      347.423       26.381      865.620
07/30/2014  20:15:00      -58.670      -13.935        5.314       42.987       41.460       19.195     1847.839     1718.941      368.458        0.380        0.197       60.302       21.146        0.123      347.256       26.093      865.637
07/30/2014  20:16:00      -41.338      -39.318        6.733       55.084       24.888       22.576     3034.295      619.395      509.682        0.373        0.208       57.051       30.876        0.293      347.275       26.127      865.626
07/30/2014  20:17:00      -85.599      -64.396       -2.266       79.603       34.427       21.385     6336.672     1185.236      457.320        0.973        0.399      107.117       24.493        0.052      347.390       26.322      865.612
07/30/2014  20:18:00     -140.967      -98.261       -1.827      101.678       69.752       41.907    10338.430     4865.364     1756.235        2.324        0.848      171.834       39.501        0.053      347.317       26.195      865.618
07/30/2014  20:19:00      -37.601      -32.680        3.801       30.067       28.141       21.116      904.036      791.940      445.906        0.232        0.107       49.818       19.946        0.160      347.306       26.180      865.628
07/30/2014  20:20:00      -78.082      -30.246       -1.537       60.442       22.223       24.827     3653.235      493.871      616.363        0.589        0.238       83.735       31.152        0.138      347.315       26.194      865.622
07/30/2014  20:21:00      -86.781      -33.781        4.316       81.000       71.675       42.215     6561.069     5137.335     1782.095        1.108        0.674       93.125       44.545        0.229      347.289       26.150      865.616
07/30/2014  20:22:00      -91.442      -66.289       -3.807       64.396       52.032       32.672     4146.832     2707.277     1067.436        1.034        0.396      112.942       29.874        0.070      347.249       26.081      865.643
07/30/2014  20:23:00     -147.555      -91.579        6.028       52.240       48.892       31.235     2729.069     2390.471      975.614        1.814        0.305      173.664       30.101        0.030      347.276       26.126      865.639
07/30/2014  20:24:00     -105.293      -48.348        0.394       84.560       46.471       28.229     7150.456     2159.579      796.889        1.176        0.505      115.863       23.626        0.042      347.249       26.080      865.640
07/30/2014  20:25:00      -95.634      -25.736       -9.118       65.151       43.556       28.884     4244.677     1897.142      834.309        0.843        0.349       99.036       26.466        0.071      347.271       26.118      865.634
07/30/2014  20:26:00     -106.416      -36.294       -2.362       38.913       50.151       24.257     1514.219     2515.163      588.424        0.863        0.231      112.435       16.062        0.020      347.286       26.145      865.647
07/30/2014  20:27:00     -125.592       20.490      -10.450       57.760       44.301       29.606     3336.169     1962.574      876.509        1.124        0.309      127.253       25.731        0.041      347.346       26.246      865.644
07/30/2014  20:28:00      -99.706      -27.684        7.003       68.541       86.213       35.713     4697.858     7432.600     1275.388        1.208        0.670      103.478       38.223        0.136      347.256       26.093      865.629
07/30/2014  20:29:00      -49.797       24.321        7.355       60.033       98.152       46.030     3604.013     9633.764     2118.720        0.924        0.768       55.419       52.330        0.892      347.326       26.215      865.627
07/30/2014  20:30:00     -178.294      -12.092      -18.870       84.241       71.512       39.288     7096.546     5114.008     1543.565        2.302        0.688      178.703       45.142        0.064      347.334       26.228      865.619
07/30/2014  20:31:00      -86.927      -41.314       -6.350       80.494       53.215       33.954     6479.341     2831.881     1152.873        0.988        0.523       96.245       43.702        0.206      347.320       26.204      865.606
07/30/2014  20:32:00      -58.753      -11.983       15.087       65.986       34.933       28.794     4354.154     1220.309      829.067        0.511        0.320       59.963       34.194        0.325      347.292       26.155      865.598
07/30/2014  20:33:00      -48.634      -52.558        3.293       96.074       47.281       34.555     9230.191     2235.528     1194.032        0.890        0.633       71.608       41.680        0.339      347.276       26.127      865.586
07/30/2014  20:34:00     -117.768      -44.056       -3.269       43.031       62.225       32.109     1851.643     3871.924     1030.986        1.129        0.338      125.739       29.917        0.057      347.249       26.081      865.584
07/30/2014  20:35:00      -32.512      -66.851       21.159       60.433       46.209       37.006     3652.125     2135.241     1369.427        0.656        0.358       74.337       34.990        0.222      347.237       26.060      865.568
07/30/2014  20:36:00        5.048     -112.363       -6.705       50.979       57.038       23.298     2598.809     3253.278      542.801        0.954        0.320      112.476       21.256        0.036      347.292       26.157      865.566
07/30/2014  20:37:00      -40.404      -84.814       24.639       67.222       51.852       42.444     4518.844     2688.647     1801.479        0.922        0.450       93.946       45.074        0.230      347.204       26.005      865.564
07/30/2014  20:38:00      -28.431     -184.442        1.320       50.284       52.175       29.853     2528.484     2722.255      891.220        2.048        0.307      186.620       26.346        0.020      347.145       25.899      865.581
07/30/2014  20:39:00      -37.355      -92.935        9.649       34.325       52.099       30.044     1178.179     2714.270      902.651        0.746        0.240      100.162       20.281        0.041      346.939       25.546      865.569
07/30/2014  20:40:00      -19.595        4.257        6.260       31.296       28.206       16.434      979.421      795.552      270.092        0.124        0.102       20.052       12.410        0.383      346.902       25.485      865.567
07/30/2014  20:41:00      -20.136      -11.527        5.696       23.160       27.009       15.651      536.400      729.488      244.953        0.104        0.076       23.202        8.733        0.142      346.867       25.424      865.581
07/30/2014  20:42:00       -8.906       36.154       30.251       15.965       24.572       18.351      254.879      603.789      336.765        0.175        0.060       37.235       10.094        0.073      346.762       25.243      865.595
07/30/2014  20:43:00       -9.678        8.961        9.482       44.952       24.414       28.643     2020.669      596.053      820.413        0.185        0.172       13.190       23.495        3.173      346.774       25.264      865.630
07/30/2014  20:44:00      -73.561      -71.614       -2.981       45.101       53.864       26.642     2034.095     2901.356      709.774        0.810        0.282      102.664       23.469        0.052      346.779       25.272      865.675
07/30/2014  20:45:00     -148.848     -114.212       -2.083       69.154       62.214       33.699     4782.262     3870.552     1135.652        2.249        0.489      187.617       32.396        0.030      346.807       25.316      865.691
07/30/2014  20:46:00      -46.734      -32.649        6.207       83.586       49.468       34.059     6986.594     2447.124     1160.031        0.694        0.530       57.008       24.728        0.188      346.744       25.213      865.695
07/30/2014  20:47:00     -102.439      -67.918        5.067       69.306       76.396       31.506     4803.313     5836.322      992.617        1.338        0.582      122.909       28.010        0.052      346.737       25.198      865.735
07/30/2014  20:48:00     -112.401     -192.064      -12.468       50.863       52.736       31.621     2587.023     2781.051      999.891        2.802        0.318      222.537       20.422        0.008      346.769       25.250      865.771
07/30/2014  20:49:00      -54.563      -87.841        9.312       52.699       44.151       28.264     2777.189     1949.322      798.875        0.815        0.276      103.408       25.331        0.060      346.731       25.189      865.796
07/30/2014  20:50:00      -23.992      -39.073        0.534       34.410       34.095       23.879     1184.046     1162.454      570.185        0.251        0.146       45.851       18.566        0.164      346.720       25.170      865.838
07/30/2014  20:51:00      -33.417      -62.031       -3.541       31.959       43.437       16.693     1021.374     1886.777      278.666        0.408        0.159       70.459       14.713        0.044      346.712       25.154      865.868
07/30/2014  20:52:00      -14.528     -141.484        0.241       24.885       31.621       18.860      619.240      999.888      355.717        1.110        0.099      142.228        8.306        0.003      346.697       25.131      865.886
07/30/2014  20:53:00      -64.959     -170.714        1.280       56.505       55.074       28.705     3192.821     3033.164      823.964        2.021        0.352      182.656       21.412        0.014      346.694       25.124      865.887
07/30/2014  20:54:00      -83.704     -177.844        1.415       56.269       75.265       30.364     3166.163     5664.823      921.968        2.419        0.488      196.557       31.184        0.025      346.698       25.129      865.906
07/30/2014  20:55:00      -76.068     -198.060        3.281       80.745       65.330       35.156     6519.808     4267.987     1235.910        2.852        0.601      212.166       40.841        0.037      346.706       25.141      865.919
07/30/2014  20:56:00      -69.721     -113.763       -2.494       57.561       55.195       36.570     3313.272     3046.450     1337.349        1.275        0.385      133.428       30.682        0.053      346.684       25.108      865.930
07/30/2014  20:57:00      -54.427     -133.701       -0.810       52.654      100.815       41.024     2772.439    10163.570     1682.951        1.773        0.731      144.355       49.512        0.118      346.684       25.107      865.949
07/30/2014  20:58:00      -72.796     -130.281        3.588       50.269       56.330       24.786     2526.994     3173.086      614.328        1.430        0.316      149.239       21.365        0.020      346.700       25.135      865.973
07/30/2014  20:59:00      -72.731     -104.272        2.230       39.333       53.034       31.583     1547.111     2812.561      997.489        1.076        0.268      127.132       30.013        0.056      346.673       25.089      865.979
07/30/2014  21:00:00      -82.079      -83.959        6.372       39.538       42.193       23.132     1563.238     1780.265      535.111        0.885        0.194      117.413       16.827        0.021      346.657       25.062      865.998
07/30/2014  21:01:00      -46.661      -80.679        1.336       38.170       38.486       17.374     1456.977     1481.179      301.851        0.596        0.162       93.201       17.057        0.033      346.642       25.034      866.018
07/30/2014  21:02:00      -76.328     -123.483        4.018       55.024       52.774       27.962     3027.641     2785.089      781.877        1.384        0.330      145.169       21.383        0.022      346.640       25.033      866.025
07/30/2014  21:03:00     -113.625     -159.791       -9.454       52.608       61.066       31.910     2767.587     3729.104     1018.264        2.302        0.376      196.071       27.776        0.020      346.717       25.163      866.026
07/30/2014  21:04:00     -104.084      -72.205        9.138       63.248       74.116       33.808     4000.364     5493.149     1143.008        1.338        0.532      126.677       37.030        0.085      346.668       25.082      866.049
07/30/2014  21:05:00     -125.309      -36.848        6.220       65.644       56.434       30.767     4309.161     3184.788      946.636        1.277        0.422      130.615       33.235        0.065      346.630       25.016      866.067
07/30/2014  21:06:00     -109.854      -71.494       -0.659       54.417       46.161       27.033     2961.220     2130.795      730.809        1.150        0.291      131.070       30.147        0.053      346.595       24.956      866.086
07/30/2014  21:07:00     -111.364      -68.227       -2.691       63.525       37.296       29.774     4035.414     1391.017      886.511        1.169        0.316      130.602       31.418        0.058      346.611       24.984      866.110
07/30/2014  21:08:00     -122.213      -73.583        1.756       55.737       38.960       23.916     3106.635     1517.902      571.991        1.277        0.260      142.655       21.211        0.022      346.615       24.990      866.122
07/30/2014  21:09:00     -113.527      -58.530        5.886       50.091       32.566       25.225     2509.111     1060.574      636.284        1.028        0.210      127.726       17.226        0.018      346.541       24.861      866.129
07/30/2014  21:10:00     -127.400     -119.950        5.385       74.005       66.417       45.577     5476.677     4411.231     2077.293        2.130        0.598      174.982       45.156        0.067      346.556       24.887      866.130
07/30/2014  21:11:00     -153.841     -143.108        5.936      102.574       70.529       58.095    10521.446     4974.392     3375.035        3.152        0.944      210.111       63.041        0.090      346.661       25.067      866.136
07/30/2014  21:12:00     -165.224     -151.002        4.957       84.895       52.762       39.614     7207.151     2783.786     1569.278        3.084        0.578      223.832       41.455        0.034      346.654       25.053      866.131
07/30/2014  21:13:00     -159.023     -130.284        0.651       89.243       82.174       49.791     7964.382     6752.535     2479.188        2.973        0.860      205.578       53.786        0.068      346.646       25.040      866.124
07/30/2014  21:14:00     -232.563     -166.955       -8.560       97.610       58.594       45.551     9527.697     3433.300     2074.911        4.853        0.752      286.286       35.334        0.015      346.780       25.270      866.142
07/30/2014  21:15:00     -126.346     -111.953        4.893       67.049       60.389       30.173     4495.588     3646.833      910.399        1.878        0.453      168.810       32.868        0.038      346.704       25.141      866.162
07/30/2014  21:16:00     -187.704     -148.115       -6.355       86.403       80.097       49.195     7465.539     6415.579     2420.168        3.675        0.815      239.105       44.014        0.034      346.612       24.981      866.159
07/30/2014  21:17:00     -247.092     -114.410       -8.480      102.218       93.739       48.267    10448.569     8787.034     2329.712        4.789        1.078      272.294       47.128        0.030      346.628       25.008      866.156
07/30/2014  21:18:00     -149.365      -66.238        3.844       91.059       61.016       34.404     8291.776     3722.971     1183.646        1.995        0.660      163.393       40.673        0.062      346.563       24.898      866.153
07/30/2014  21:19:00      -49.344      -73.180       11.897       39.083       49.419       28.205     1527.448     2442.280      795.495        0.635        0.238       88.262       25.101        0.081      346.547       24.875      866.142
07/30/2014  21:20:00      -70.775     -116.261       -5.179       47.103       52.476       25.256     2218.669     2753.679      637.844        1.208        0.281      136.109       20.856        0.023      346.574       24.920      866.141
07/30/2014  21:21:00     -111.227      -78.025        0.843       66.053       48.484       36.768     4363.037     2350.661     1351.901        1.326        0.403      135.865       34.772        0.066      346.505       24.801      866.156
07/30/2014  21:22:00     -132.940     -102.672       -3.846      101.976       67.523       35.224    10399.101     4559.359     1240.703        2.221        0.810      167.972       30.476        0.033      346.487       24.768      866.158
07/30/2014  21:23:00      -60.519      -56.638       11.926       83.610       52.039       31.851     6990.562     2708.042     1014.474        0.886        0.536       82.888       33.966        0.168      346.524       24.833      866.144
07/30/2014  21:24:00     -120.532      -82.076       -8.382       60.666       51.827       28.953     3680.418     2686.058      838.287        1.427        0.360      145.823       19.858        0.019      346.537       24.857      866.136
07/30/2014  21:25:00      -81.844      -87.729        2.382       44.653       46.798       26.341     1993.928     2190.030      693.839        0.964        0.244      119.978       24.403        0.041      346.551       24.880      866.143
07/30/2014  21:26:00      -49.953      -17.336        8.171       38.725       40.825       27.291     1499.602     1666.691      744.818        0.339        0.196       52.876       26.614        0.253      346.447       24.701      866.134
07/30/2014  21:27:00      -10.795        2.070        8.195       12.652       12.227       10.994      160.084      149.491      120.857        0.031        0.022       10.992       11.083        1.017      346.376       24.578      866.131
07/30/2014  21:28:00       -5.201       25.693       -0.316       23.208       20.799       13.847      538.593      432.589      191.727        0.092        0.058       26.214       14.516        0.307      346.290       24.432      866.123
07/30/2014  21:29:00       -1.466       17.470      -16.908       20.802       17.932       11.746      432.739      321.559      137.972        0.074        0.045       17.532        7.793        0.198      346.321       24.485      866.134
07/30/2014  21:30:00      -22.741       19.972       -1.528       21.011       15.721       11.739      441.444      247.139      137.811        0.087        0.041       30.266        9.472        0.098      346.369       24.566      866.136
07/30/2014  21:31:00      -90.380       28.509       -9.559       29.200       30.353       19.609      852.652      921.325      384.522        0.562        0.108       94.770       12.255        0.017      346.418       24.649      866.134
07/30/2014  21:32:00      -67.903       16.211       -7.054       16.899       13.970       13.768      285.589      195.151      189.563        0.280        0.034       69.812        7.256        0.011      346.455       24.714      866.128
07/30/2014  21:33:00      -30.435        2.879       -4.085       12.793        9.862       11.739      163.658       97.264      137.803        0.067        0.020       30.571        6.859        0.050      346.385       24.592      866.141
07/30/2014  21:34:00      -50.061       20.562       -3.156       15.691       16.477       14.772      246.194      271.490      218.224        0.184        0.037       54.119        7.703        0.020      346.316       24.476      866.154
07/30/2014  21:35:00      -33.498       12.464        7.384       30.445       16.922       13.118      926.911      286.342      172.074        0.136        0.069       35.742       14.314        0.160      346.244       24.352      866.158
07/30/2014  21:36:00      -22.445      -20.021        3.197       23.082       18.618       11.837      532.793      346.621      140.121        0.097        0.051       30.077       11.572        0.148      346.296       24.443      866.157
07/30/2014  21:37:00       -9.049       34.575       -3.977       14.914       20.487        7.812      222.418      419.705       61.030        0.100        0.035       35.740        8.696        0.059      346.306       24.461      866.160
07/30/2014  21:38:00      -12.335       20.244       -2.641       18.193       18.706       12.546      330.989      349.906      157.412        0.070        0.042       23.706       11.897        0.252      346.247       24.359      866.167
07/30/2014  21:39:00      -15.816       51.617        1.272       16.847       24.068       15.017      283.807      579.254      225.525        0.200        0.054       53.985       13.064        0.059      346.289       24.430      866.165
07/30/2014  21:40:00      -24.220       43.533       -1.928       20.036       13.531       11.654      401.437      183.098      135.811        0.160        0.036       49.817       10.462        0.044      346.209       24.291      866.161
07/30/2014  21:41:00      -29.684        0.367        2.028       26.493       25.817       12.818      701.885      666.526      164.292        0.121        0.077       29.686       13.703        0.213      346.189       24.258      866.172
07/30/2014  21:42:00      -28.516       11.149       -2.853       11.088       15.601        7.038      122.934      243.376       49.530        0.068        0.021       30.618        4.095        0.018      346.207       24.287      866.187
07/30/2014  21:43:00      -20.191       27.462       -8.347       11.164       13.469        7.305      124.630      181.417       53.369        0.080        0.018       34.086        4.508        0.017      346.195       24.270      866.193
07/30/2014  21:44:00        5.094       60.295      -10.704       13.452       12.632        5.884      180.953      159.570       34.616        0.208        0.019       60.510        4.434        0.005      346.232       24.331      866.200
07/30/2014  21:45:00       18.638       35.158       -3.578        8.602       15.756        9.635       73.990      248.255       92.838        0.101        0.021       39.793        8.058        0.041      346.139       24.171      866.198
07/30/2014  21:46:00       10.089       21.309       -5.834       12.260       13.558        7.455      150.317      183.807       55.576        0.049        0.019       23.576        8.024        0.116      346.135       24.163      866.194
07/30/2014  21:47:00       -6.091       22.647       -8.414       14.368       16.532        5.337      206.452      273.319       28.479        0.056        0.025       23.451        4.979        0.045      346.161       24.208      866.186
07/30/2014  21:48:00      -41.570       37.188       -7.611       21.293       18.422        8.170      453.396      339.360       66.746        0.201        0.043       55.776       12.057        0.047      346.217       24.305      866.174
07/30/2014  21:49:00      -55.309       32.006       -8.690        8.092       17.676        8.093       65.478      312.425       65.490        0.230        0.022       63.902        7.424        0.013      346.176       24.233      866.164
07/30/2014  21:50:00      -62.194       -3.208        0.104        8.829       12.404        8.032       77.943      153.862       64.517        0.209        0.015       62.277        6.031        0.009      346.170       24.224      866.159
07/30/2014  21:51:00      -65.241      -35.968       -4.028       21.277       16.574        7.677      452.715      274.698       58.931        0.318        0.039       74.499        5.937        0.006      346.155       24.199      866.150
07/30/2014  21:52:00      -37.571      -13.221        3.395       21.847       20.239       13.829      477.287      409.625      191.247        0.134        0.054       39.829       14.847        0.139      346.034       23.990      866.127
07/30/2014  21:53:00      -29.626      -34.720        1.950       31.827       18.932       14.878     1012.958      358.431      221.342        0.184        0.080       45.641       12.915        0.080      346.022       23.970      866.108
07/30/2014  21:54:00      -50.114      -33.342        2.366       29.700       29.595       22.828      882.078      875.888      521.107        0.295        0.114       60.192       18.768        0.097      346.057       24.031      866.086
07/30/2014  21:55:00      -17.353      -28.685       18.925       42.664       32.232       21.059     1820.213     1038.906      443.461        0.239        0.165       33.526       26.176        0.610      346.059       24.034      866.058
07/30/2014  21:56:00      -23.465      -20.366        9.836       36.647       28.089       20.029     1342.987      788.993      401.152        0.180        0.127       31.071       22.346        0.517      346.007       23.945      866.041
07/30/2014  21:57:00      -95.482      -78.246       -1.947       30.995       29.913       21.195      960.683      894.770      449.248        0.877        0.115      123.447       18.407        0.022      346.068       24.049      866.027
07/30/2014  21:58:00      -54.485      -48.523        0.264       47.659       31.346       26.603     2271.413      982.578      707.711        0.464        0.198       72.959       26.080        0.128      346.024       23.974      866.001
07/30/2014  21:59:00      -36.191      -34.617        7.405       49.763       37.692       26.760     2476.323     1420.703      716.109        0.359        0.231       50.081       29.622        0.350      345.987       23.909      865.983
07/30/2014  22:00:00      -66.716      -59.416        3.981       35.813       26.928       20.834     1282.596      725.143      434.055        0.522        0.122       89.338       21.053        0.056      345.982       23.902      865.965
07/30/2014  22:01:00      -38.327      -39.459        8.000       31.015       29.989       20.539      961.940      899.344      421.850        0.269        0.114       55.009       18.595        0.114      345.996       23.926      865.955
07/30/2014  22:02:00      -96.275      -53.653        1.469       25.079       31.217       18.878      628.981      974.485      356.362        0.705        0.098      110.216       16.839        0.023      346.045       24.011      865.954
07/30/2014  22:03:00      -75.361      -39.890        2.206       24.349       29.754       20.823      592.854      885.302      433.584        0.459        0.096       85.267       14.720        0.030      345.975       23.890      865.945
07/30/2014  22:04:00      -72.519      -25.826        5.202       39.749       28.354       17.615     1579.975      803.939      310.282        0.432        0.135       76.981       16.902        0.048      345.971       23.883      865.934
07/30/2014  22:05:00      -73.921      -35.563        3.301       51.757       29.731       21.591     2678.787      883.948      466.152        0.538        0.201       82.031       25.673        0.098      345.951       23.850      865.939
07/30/2014  22:06:00      -84.244      -42.458        5.395       69.314       30.229       25.552     4804.370      913.822      652.885        0.765        0.319       94.338       29.040        0.095      345.932       23.816      865.939
07/30/2014  22:07:00     -107.982      -57.840       -2.249       44.531       29.998       24.580     1982.990      899.897      604.179        0.925        0.174      122.497       24.344        0.039      345.948       23.844      865.929
07/30/2014  22:08:00     -119.599      -77.166       -1.718       38.168       26.557       18.618     1456.760      705.285      346.617        1.138        0.125      142.333       15.550        0.012      345.920       23.797      865.923
07/30/2014  22:09:00     -103.010      -59.730        1.890       34.690       22.184       15.835     1203.401      492.132      250.741        0.806        0.097      119.074       10.496        0.008      345.875       23.720      865.934
07/30/2014  22:10:00     -131.091      -26.957       -4.960       43.684       25.387       16.962     1908.294      644.514      287.693        1.039        0.142      133.834       16.235        0.015      345.819       23.622      865.944
07/30/2014  22:11:00     -103.995      -37.224        3.181       43.055       47.084       23.680     1853.749     2216.881      560.747        0.842        0.232      110.456       20.662        0.035      345.719       23.452      865.955
07/30/2014  22:12:00     -107.529      -65.131        0.845       38.698       41.033       21.407     1497.563     1683.685      458.241        0.972        0.182      125.716       17.530        0.019      345.666       23.358      865.966
07/30/2014  22:13:00      -56.278      -41.820        1.913       45.013       32.028       21.649     2026.181     1025.823      468.675        0.422        0.176       70.115       20.124        0.082      345.657       23.342      865.971
07/30/2014  22:14:00      -57.951      -47.513       10.613       67.389       43.637       31.719     4541.281     1904.204     1006.073        0.659        0.373       74.939       37.173        0.246      345.655       23.340      865.966
07/30/2014  22:15:00      -74.259      -75.056        9.440       50.156       45.695       31.949     2515.588     2088.001     1020.755        0.843        0.281      105.583       30.212        0.082      345.674       23.374      865.964
07/30/2014  22:16:00      -56.724      -60.785       10.879       46.102       39.423       28.194     2125.371     1554.187      794.901        0.575        0.224       83.141       28.748        0.120      345.680       23.385      865.949
07/30/2014  22:17:00     -107.375      -67.605        5.965       43.132       31.714       25.434     1860.327     1005.789      646.879        0.982        0.176      126.885       22.308        0.031      345.666       23.360      865.941
07/30/2014  22:18:00      -86.478      -69.561       -5.204       51.423       26.832       23.288     2644.277      719.941      542.340        0.812        0.195      110.983       23.650        0.045      345.713       23.442      865.941
07/30/2014  22:19:00      -14.096      -64.504        1.891       37.997       24.874       24.498     1443.800      618.729      600.169        0.351        0.133       66.026       20.247        0.094      345.726       23.465      865.945
07/30/2014  22:20:00      -32.048      -93.974        7.002       31.033       36.889       19.490      963.062     1360.767      379.853        0.630        0.135       99.288       15.116        0.023      345.783       23.559      865.938
07/30/2014  22:21:00       -3.736      -50.855       -7.434       39.482       32.642       19.576     1558.824     1065.493      383.235        0.283        0.150       50.993       12.687        0.062      345.787       23.566      865.939
07/30/2014  22:22:00      -20.251      -43.322       -4.855       33.419       31.233       18.206     1116.800      975.470      331.442        0.237        0.121       47.821       10.799        0.051      345.735       23.478      865.949
07/30/2014  22:23:00      -74.285      -46.989       -6.412       34.513       28.603       24.265     1191.147      818.114      588.794        0.518        0.130       87.899       12.131        0.019      345.680       23.381      865.954
07/30/2014  22:24:00      -55.986      -23.824       -0.387       39.934       19.393       15.598     1594.746      376.105      243.301        0.296        0.111       60.844       10.891        0.032      345.638       23.310      865.955
07/30/2014  22:25:00     -114.658      -82.809       -2.055       53.635       43.895       22.568     2876.675     1926.728      509.325        1.266        0.266      141.435       25.225        0.032      345.616       23.273      865.944
07/30/2014  22:26:00     -131.439      -77.371        0.376       83.099       40.242       33.419     6905.417     1619.430     1116.803        1.645        0.482      152.520       42.718        0.078      345.582       23.215      865.949
07/30/2014  22:27:00     -138.347     -123.509       -9.772       67.760       60.894       33.670     4591.414     3708.106     1133.700        2.196        0.472      185.457       27.931        0.023      345.633       23.300      865.938
07/30/2014  22:28:00      -83.012      -83.671       15.816       95.634       69.645       35.682     9145.842     4850.490     1273.225        1.470        0.763      117.864       43.604        0.137      345.645       23.322      865.918
07/30/2014  22:29:00     -197.653     -111.617       -0.669       66.349       53.529       39.895     4402.164     2865.307     1591.642        3.019        0.443      226.992       37.812        0.028      345.696       23.407      865.900
07/30/2014  22:30:00     -174.509     -115.283        2.217       69.801       64.185       34.494     4872.212     4119.757     1189.825        2.696        0.509      209.150       29.999        0.021      345.687       23.393      865.885
07/30/2014  22:31:00     -182.432      -98.009        4.734       89.537       67.031       45.114     8016.935     4493.166     2035.239        2.872        0.727      207.093       50.917        0.060      345.698       23.410      865.856
07/30/2014  22:32:00     -182.259     -113.904        6.542       63.001       68.545       40.590     3969.078     4698.443     1647.527        2.827        0.516      214.924       32.745        0.023      345.692       23.402      865.832
07/30/2014  22:33:00     -167.122      -96.246        1.844       69.510       38.544       39.552     4831.598     1485.660     1564.384        2.254        0.394      192.855       38.588        0.040      345.667       23.359      865.812
07/30/2014  22:34:00     -143.114     -110.192       -8.582       56.288       53.915       30.650     3168.337     2906.814      939.447        1.985        0.351      180.621       20.994        0.014      345.638       23.311      865.808
07/30/2014  22:35:00     -112.076     -158.431       -5.048       69.872       75.442       39.516     4882.034     5691.543     1561.550        2.491        0.607      194.065       37.125        0.037      345.603       23.248      865.803
07/30/2014  22:36:00     -100.998     -157.040       -5.798       72.491       73.255       40.606     5254.961     5366.239     1648.877        2.358        0.614      186.714       43.573        0.054      345.584       23.217      865.802
07/30/2014  22:37:00      -90.046     -120.846       10.658       82.756       62.029       38.281     6848.632     3847.643     1465.428        1.749        0.608      150.706       33.344        0.049      345.586       23.220      865.804
07/30/2014  22:38:00      -77.718     -100.913        4.851       85.256       68.284       37.472     7268.567     4662.677     1404.167        1.479        0.667      127.371       27.601        0.047      345.585       23.218      865.822
07/30/2014  22:39:00      -45.293     -149.495        6.437       74.829       70.577       50.516     5599.382     4981.140     2551.857        1.878        0.657      156.206       44.868        0.083      345.583       23.215      865.846
07/30/2014  22:40:00      -43.347     -132.921        3.536       57.776       53.909       35.633     3338.070     2906.179     1269.687        1.354        0.376      139.811       28.895        0.043      345.598       23.240      865.859
07/30/2014  22:41:00      -59.105     -134.249       11.442       55.108       56.099       37.788     3036.851     3147.126     1427.950        1.463        0.381      146.685       33.281        0.051      345.571       23.194      865.873
07/30/2014  22:42:00      -97.525     -178.519       -3.081       56.888       49.189       29.246     3236.241     2419.571      855.328        2.395        0.326      203.421       25.296        0.015      345.625       23.286      865.896
07/30/2014  22:43:00      -73.636     -133.789        4.143       49.641       56.090       28.535     2464.218     3146.044      814.233        1.488        0.321      152.714       20.047        0.017      345.591       23.228      865.912
07/30/2014  22:44:00      -39.435     -138.773      -10.279       27.893       50.295       27.843      778.036     2529.570      775.242        1.250        0.204      144.267       22.630        0.025      345.579       23.210      865.919
07/30/2014  22:45:00      -81.344     -115.580       -4.665       51.310       46.481       31.067     2632.674     2160.502      965.144        1.288        0.288      141.335       25.135        0.032      345.582       23.215      865.936
07/30/2014  22:46:00     -129.904     -105.763       -5.494       46.584       68.033       27.238     2170.098     4628.518      741.914        1.781        0.377      167.514       22.765        0.018      345.619       23.277      865.952
07/30/2014  22:47:00     -116.923      -75.923       -4.798       54.143       46.128       25.066     2931.434     2127.796      628.319        1.257        0.284      139.410       21.801        0.024      345.611       23.266      865.950
07/30/2014  22:48:00     -114.835      -59.425        3.247       79.851       49.653       28.662     6376.252     2465.400      821.537        1.319        0.483      129.300       27.781        0.046      345.587       23.222      865.936
07/30/2014  22:49:00     -124.462     -108.618        0.958       58.458       57.233       33.457     3417.285     3275.658     1119.386        1.755        0.391      165.193       31.756        0.037      345.570       23.194      865.942
07/30/2014  22:50:00     -112.970     -120.305       -9.454       49.596       54.932       35.225     2459.765     3017.473     1240.789        1.702        0.336      165.032       28.905        0.031      345.611       23.263      865.940
07/30/2014  22:51:00     -151.366     -133.273       -6.922       69.792       57.837       33.162     4870.910     3345.080     1099.749        2.502        0.466      201.676       29.058        0.021      345.578       23.204      865.929
07/30/2014  22:52:00     -143.129      -63.533       -1.435       56.564       45.021       32.377     3199.533     2026.893     1048.259        1.540        0.314      156.596       24.783        0.025      345.514       23.098      865.925
07/30/2014  22:53:00     -143.847      -96.837       -1.392       63.569       51.483       29.050     4041.021     2650.468      843.889        1.880        0.377      173.405       22.352        0.017      345.547       23.153      865.925
07/30/2014  22:54:00     -166.013      -82.311        1.497       57.357       67.663       32.965     3289.866     4578.316     1086.687        2.164        0.448      185.298       28.412        0.024      345.534       23.131      865.906
07/30/2014  22:55:00     -139.501      -93.047        2.095       56.081       53.190       32.065     3145.106     2829.149     1028.141        1.756        0.350      167.686       32.703        0.038      345.528       23.123      865.906
07/30/2014  22:56:00     -113.410     -102.424       -3.343       56.678       43.602       35.851     3212.412     1901.143     1285.304        1.488        0.320      152.816       36.310        0.056      345.528       23.121      865.915
07/30/2014  22:57:00      -90.798      -73.321       -2.276       58.239       43.164       32.470     3391.751     1863.155     1054.271        0.997        0.315      116.706       26.731        0.052      345.506       23.085      865.908
07/30/2014  22:58:00     -160.378      -97.389       -9.636       69.262       56.715       40.874     4797.189     3216.610     1670.723        2.249        0.484      187.632       34.631        0.034      345.465       23.012      865.910
07/30/2014  22:59:00     -111.622     -142.558      -11.057       64.103       61.202       30.743     4109.216     3745.728      945.132        2.085        0.440      181.059       27.114        0.022      345.442       22.973      865.914
07/30/2014  23:00:00      -76.008      -80.284        4.644       72.908       51.967       38.386     5315.573     2700.572     1473.493        1.087        0.474      110.557       36.555        0.109      345.384       22.876      865.931
07/30/2014  23:01:00      -73.462     -146.870        9.152       44.459       65.576       33.127     1976.572     4300.176     1097.372        1.721        0.369      164.218       30.298        0.034      345.355       22.823      865.936
07/30/2014  23:02:00      -62.624     -177.746        3.748       47.806       51.900       38.560     2285.409     2693.594     1486.860        2.100        0.323      188.455       29.226        0.024      345.350       22.816      865.952
07/30/2014  23:03:00      -60.856     -127.696       -9.000       55.819       67.707       32.223     3115.759     4584.295     1038.354        1.441        0.437      141.456       16.796        0.014      345.367       22.845      865.976
07/30/2014  23:04:00      -42.135     -144.765      -15.774       64.764       57.213       35.092     4194.421     3273.356     1231.427        1.584        0.435      150.772       24.588        0.027      345.410       22.920      866.005
07/30/2014  23:05:00       41.094     -112.985       -1.155       29.696       34.710       25.857      881.826     1204.795      668.564        0.860        0.138      120.226       15.042        0.016      345.401       22.903      866.010
07/30/2014  23:06:00      -17.555      -60.931        8.167       27.948       43.552       21.330      781.063     1896.752      454.970        0.361        0.157       63.409       13.264        0.044      345.372       22.857      866.022
07/30/2014  23:07:00       14.887      -70.060       -4.240       50.494       50.005       30.241     2549.662     2500.542      914.491        0.556        0.298       71.624       26.861        0.141      345.365       22.845      866.040
07/30/2014  23:08:00      -57.332      -70.467        1.478       61.351       42.321       33.131     3763.952     1791.088     1097.691        0.745        0.333       90.844       21.252        0.055      345.381       22.870      866.055
07/30/2014  23:09:00       -8.981       -5.441       16.014       19.237       16.012       21.602      370.070      256.368      466.628        0.073        0.055       10.501       15.150        2.081      345.318       22.764      866.064
07/30/2014  23:10:00      -58.670      -46.160        3.589       46.862       58.230       26.481     2196.094     3390.769      701.229        0.594        0.314       74.652       33.681        0.204      345.347       22.811      866.077
07/30/2014  23:11:00     -115.748      -38.361       -8.122       56.865       45.904       27.462     3233.655     2107.221      754.186        1.051        0.305      121.939       24.309        0.040      345.419       22.934      866.089
07/30/2014  23:12:00     -128.923     -136.296       -7.254       42.669       54.941       29.880     1820.672     3018.475      892.833        2.049        0.287      187.610       25.362        0.018      345.441       22.971      866.096
07/30/2014  23:13:00      -64.467      -34.759       -0.434       45.420       38.080       17.398     2062.931     1450.068      302.705        0.459        0.191       73.240       15.983        0.048      345.516       23.102      866.091
07/30/2014  23:14:00      -61.678      -33.212        5.570       38.651       28.652       18.864     1493.913      820.946      355.863        0.380        0.134       70.052       12.157        0.030      345.449       22.987      866.101
07/30/2014  23:15:00      -36.614      -97.091        3.784       27.610       29.948       17.096      762.320      896.857      292.257        0.637        0.098      103.765       15.167        0.021      345.615       23.270      866.115
07/30/2014  23:16:00      -25.415      -81.498       -3.307       34.728       37.099       18.613     1206.003     1376.310      346.457        0.511        0.146       85.369       15.072        0.031      345.507       23.085      866.120
07/30/2014  23:17:00      -17.128      -72.489        1.055       31.062       41.574       15.924      964.845     1728.438      253.558        0.425        0.147       74.485       14.065        0.036      345.542       23.147      866.119
07/30/2014  23:18:00     -109.791      -76.011       -0.323       72.051       36.437       23.223     5191.328     1327.635      539.299        1.244        0.353      133.535       32.271        0.058      345.453       22.993      866.118
07/30/2014  23:19:00     -144.920     -107.431       -5.654       49.143       35.679       27.462     2415.010     1273.026      754.169        1.851        0.222      180.397       29.170        0.026      345.379       22.865      866.115
07/30/2014  23:20:00     -116.195      -79.021       -5.193       41.923       26.639       23.346     1757.565      709.656      545.047        1.139        0.151      140.519       23.421        0.028      345.379       22.865      866.107
07/30/2014  23:21:00     -103.854      -61.481       -5.281       57.740       36.997       26.194     3333.916     1368.783      686.129        0.999        0.269      120.688       33.387        0.077      345.359       22.833      866.103
07/30/2014  23:22:00     -132.451      -40.527       -1.448       24.510       26.764       18.046      600.739      716.330      325.654        1.041        0.082      138.512       15.765        0.013      345.373       22.857      866.089
07/30/2014  23:23:00     -134.639      -19.588       -5.457       24.110       23.984       17.281      581.275      575.252      298.633        1.000        0.073      136.057       10.759        0.006      345.361       22.838      866.081
07/30/2014  23:24:00     -113.191      -32.436        3.308       38.915       27.723       20.088     1514.373      768.572      403.526        0.828        0.134      117.747       15.575        0.017      345.283       22.702      866.071
07/30/2014  23:25:00     -101.306      -52.803        6.142       51.767       32.382       20.483     2679.847     1048.572      419.569        0.862        0.207      114.241       24.353        0.045      345.343       22.805      866.065
07/30/2014  23:26:00     -107.044      -68.001       -2.839       47.981       36.279       22.686     2302.189     1316.176      514.649        1.011        0.207      126.817       22.009        0.030      345.274       22.686      866.061
07/30/2014  23:27:00     -130.815      -20.370        2.730       37.582       28.619       21.226     1412.398      819.065      450.540        1.011        0.134      132.391       17.557        0.018      345.206       22.569      866.053
07/30/2014  23:28:00     -135.210      -33.642       -1.059       48.984       35.329       22.174     2399.425     1248.155      491.702        1.178        0.207      139.332       25.324        0.033      345.106       22.402      866.050
07/30/2014  23:29:00     -136.420      -36.308       -0.707       38.728       39.822       23.575     1499.821     1585.806      555.795        1.178        0.182      141.169       21.231        0.023      345.082       22.359      866.036
07/30/2014  23:30:00     -102.222      -24.092        3.785       40.613       35.964       25.815     1649.401     1293.418      666.426        0.733        0.180      105.023       22.281        0.045      344.951       22.134      866.034
07/30/2014  23:31:00      -98.319      -40.475        6.147       53.539       32.351       22.334     2866.388     1046.606      498.810        0.788        0.221      106.324       19.683        0.034      344.921       22.085      866.035
07/30/2014  23:32:00      -97.521      -32.206        0.029       63.227       43.552       25.187     3997.701     1896.790      634.403        0.854        0.326      102.702       29.370        0.082      344.972       22.170      866.036
07/30/2014  23:33:00     -102.718      -37.684       -6.125       29.083       25.103       17.954      845.839      630.182      322.353        0.690        0.090      109.412       14.424        0.017      344.991       22.201      866.049
07/30/2014  23:34:00      -93.667      -51.058       -5.442       32.142       30.927       15.640     1033.111      956.473      244.619        0.682        0.112      106.679       15.903        0.022      345.009       22.234      866.056
07/30/2014  23:35:00     -109.136      -59.796       -8.442       23.442       21.640       14.866      549.520      468.311      221.002        0.840        0.062      124.443        9.312        0.006      344.947       22.129      866.051
07/30/2014  23:36:00      -92.009      -11.391       -9.770       31.098       28.929       13.568      967.070      836.892      184.081        0.534        0.099       92.712       13.666        0.022      344.911       22.064      866.034
07/30/2014  23:37:00      -94.822       40.618       -6.299       40.776       23.169       19.342     1662.708      536.807      374.106        0.663        0.129      103.155       11.046        0.011      344.700       21.704      866.034
07/30/2014  23:38:00      -45.973       26.221        0.497       48.831       39.222       21.013     2384.452     1538.355      441.527        0.358        0.218       52.925       24.175        0.209      344.643       21.607      866.047
07/30/2014  23:39:00       14.649       -7.920        9.979       24.438       24.241       17.032      597.210      587.648      290.085        0.093        0.074       16.653        9.813        0.347      344.634       21.591      866.048
07/30/2014  23:40:00       11.380      -11.488       -0.339       20.119       16.869       16.927      404.787      284.575      286.512        0.062        0.049       16.170        9.806        0.368      344.691       21.687      866.043
07/30/2014  23:41:00      -78.015      -53.743       -5.581       50.150       33.990       24.967     2515.015     1155.309      623.362        0.665        0.215       94.735       28.653        0.091      344.610       21.551      866.033
07/30/2014  23:42:00     -143.259      -23.579      -11.953       44.074       48.678       23.954     1942.545     2369.564      573.787        1.305        0.244      145.186       24.946        0.030      344.516       21.389      866.021
07/30/2014  23:43:00     -135.428      -24.875       -9.196       48.146       23.668       25.211     2317.997      560.151      635.591        1.128        0.176      137.694       26.430        0.037      344.561       21.465      866.012
07/30/2014  23:44:00     -122.749      -25.072       -7.612       32.525       40.616       22.011     1057.891     1649.650      484.489        0.947        0.160      125.284       20.565        0.027      344.487       21.339      866.025
07/30/2014  23:45:00     -125.553      -30.286      -15.911       29.113       27.152       16.920      847.539      737.207      286.274        0.940        0.094      129.154       13.625        0.011      344.466       21.305      866.033
07/30/2014  23:46:00      -90.925      -49.925       -1.484       28.750       23.307       18.783      826.584      543.195      352.806        0.624        0.086      103.730       14.133        0.019      344.536       21.424      866.035
07/30/2014  23:47:00      -85.007      -19.205        1.157       32.326       26.685       19.169     1044.976      712.115      367.448        0.486        0.106       87.149       18.948        0.047      344.637       21.596      866.035
07/30/2014  23:48:00     -100.125      -52.026       -2.577       28.097       37.311       19.731      789.418     1392.090      389.316        0.765        0.129      112.835       19.033        0.028      344.686       21.681      866.044
07/30/2014  23:49:00     -106.661      -32.718       -7.113       30.622       28.524       16.528      937.680      813.617      273.159        0.726        0.101      111.567       18.003        0.026      344.765       21.817      866.065
07/30/2014  23:50:00      -88.317      -15.262       -9.333       18.427       15.606        9.712      339.538      243.538       94.321        0.440        0.034       89.626        7.095        0.006      344.796       21.867      866.084
07/30/2014  23:51:00      -62.102      -29.219        0.822       30.934       22.130       14.384      956.916      489.749      206.890        0.318        0.083       68.632       13.356        0.038      344.767       21.820      866.088
07/30/2014  23:52:00      -81.814      -69.742       -9.603       18.980       21.564       14.040      360.255      465.010      197.116        0.634        0.051      107.505       10.833        0.010      344.784       21.849      866.091
07/30/2014  23:53:00      -61.524      -40.789       -2.994       20.969       12.635       13.377      439.679      159.648      178.948        0.312        0.039       73.817        9.853        0.018      344.738       21.768      866.089
07/30/2014  23:54:00      -37.332      -30.888        7.049       35.438       18.487       16.095     1255.841      341.754      259.035        0.213        0.093       48.453       17.788        0.135      344.709       21.719      866.096
07/30/2014  23:55:00      -25.125      -55.959        0.999       39.726       46.594       21.067     1578.184     2170.959      443.832        0.398        0.210       61.341       25.874        0.178      344.743       21.776      866.092
07/30/2014  23:56:00     -105.951      -90.513      -14.679       25.353       40.159       21.188      642.779     1612.720      448.946        1.117        0.135      139.349       13.185        0.009      344.767       21.820      866.086
07/30/2014  23:57:00      -97.219      -88.743        1.752       43.131       35.201       31.518     1860.289     1239.093      993.372        1.071        0.205      131.632       28.920        0.048      344.769       21.823      866.074
07/30/2014  23:58:00     -141.995      -79.253       -1.409       30.595       26.153       18.910      936.074      683.994      357.597        1.421        0.099      162.615       16.023        0.010      344.790       21.858      866.060
07/30/2014  23:59:00     -102.406      -25.294        1.535       46.993       30.890       21.186     2208.373      954.170      448.862        0.737        0.181      105.484       23.385        0.049      344.803       21.882      866.061
